GFSSW_500_spd_000.txt.gz
Wind_Speed
35 35 35 35 37 38 40 41 43 45 45 44 42 42 40 41 40 36 33 37 34 32 32 31 32 32 33 30 33 34 38 29 24 24 24 30 35 35 37 36 35 33 29 27 28
35 34 36 35 35 37 36 36 41 43 43 42 42 42 40 38 36 31 35 32 33 32 30 31 32 32 34 33 34 34 33 23 21 24 26 32 37 38 37 41 37 34 33 32 29
35 34 35 35 33 34 32 33 35 39 40 39 39 38 37 35 32 29 29 31 32 29 29 29 31 31 32 35 36 36 34 28 24 26 28 31 37 39 38 35 38 38 39 36 33
37 33 35 36 33 33 31 30 31 33 35 37 37 35 34 31 29 27 32 31 28 26 28 27 28 29 29 31 35 41 40 36 31 31 32 32 36 37 36 34 38 41 40 37 35
38 35 35 37 35 33 31 31 29 30 31 34 35 34 32 30 28 27 29 27 26 25 28 27 26 27 28 31 34 39 37 43 41 37 38 36 36 36 33 31 37 37 42 39 37
34 40 35 37 37 35 33 31 31 29 29 30 31 31 30 28 27 25 23 25 25 24 25 26 26 28 28 28 32 35 38 36 43 43 42 40 37 39 30 34 32 35 37 42 41
38 37 43 36 39 38 35 32 31 30 28 27 28 28 27 27 24 22 23 25 25 24 24 26 26 27 28 29 33 34 35 37 35 39 43 45 43 41 35 38 38 33 34 36 43
44 39 39 43 39 40 38 35 33 31 28 27 26 26 24 23 21 22 22 21 22 24 25 24 27 29 33 32 33 36 38 37 36 39 44 47 47 42 42 41 41 38 36 34 34
39 45 42 42 44 39 41 39 36 34 31 27 27 26 24 23 22 22 21 21 22 23 25 26 28 30 33 35 35 35 38 39 40 43 45 48 50 45 47 45 44 43 39 37 35
44 45 48 44 45 46 42 42 40 36 33 30 28 27 26 25 25 23 24 23 22 22 24 27 30 32 35 36 37 39 42 43 44 45 48 49 53 49 48 45 42 42 42 39 39
49 48 51 49 46 48 46 42 42 41 35 33 31 30 28 27 26 25 25 23 23 24 26 28 31 33 35 37 40 45 45 47 47 47 47 52 54 51 51 47 44 42 38 39 37
53 54 54 55 51 48 48 46 42 42 41 38 34 32 30 29 28 28 27 27 29 29 31 33 33 33 37 41 43 45 48 49 50 49 49 51 53 53 53 51 47 46 44 41 39
56 57 60 58 55 53 45 47 46 43 42 40 38 35 34 33 32 31 32 33 34 35 36 37 36 38 42 44 46 47 49 50 53 53 53 52 50 57 52 54 50 48 46 43 42
57 61 63 62 58 57 51 46 45 43 44 40 39 38 38 37 36 36 37 38 38 39 41 41 40 45 48 51 53 54 53 55 55 56 56 55 56 51 56 54 51 49 49 46 43
52 60 63 63 54 58 54 48 46 41 47 42 39 36 35 35 35 34 37 39 39 41 43 45 48 52 54 55 57 58 56 57 56 58 59 56 60 53 49 52 49 48 50 50 48
46 55 51 54 49 47 49 51 50 46 43 40 39 36 34 34 34 34 35 36 38 41 44 49 55 60 59 55 57 57 57 59 59 60 63 58 63 53 53 48 48 48 47 50 49
42 52 63 60 49 51 42 55 52 50 43 37 32 33 34 34 34 35 37 37 37 43 49 52 53 59 58 56 56 55 54 54 55 59 62 60 62 53 55 48 48 47 49 51 50
40 47 59 62 45 53 47 52 55 50 43 37 32 29 29 32 34 31 30 34 41 45 48 47 54 51 44 43 43 43 42 46 50 54 58 57 62 54 58 54 45 42 49 51 52
41 54 64 59 51 45 48 51 52 45 42 37 33 30 30 33 29 28 31 34 42 44 43 45 46 42 31 32 33 32 38 35 39 43 50 57 58 55 58 56 50 43 39 44 47
50 48 55 46 48 47 41 42 43 44 41 39 33 28 33 26 25 29 32 37 40 35 38 36 42 36 26 28 28 25 32 32 40 41 44 48 51 56 49 44 47 42 45 43 44
50 54 56 51 45 49 40 32 36 42 40 37 32 31 27 22 26 30 32 33 27 28 29 32 39 33 33 22 26 29 30 32 36 38 37 36 36 31 22 26 27 35 45 45 45
54 50 57 58 45 44 36 32 34 38 38 36 34 33 21 24 27 30 26 22 18 21 26 27 30 28 24 22 23 26 32 31 34 35 39 37 22 28 19 27 33 37 43 37 35
34 47 53 43 39 33 32 30 35 37 35 37 35 27 22 25 26 23 16 18 17 23 28 29 29 27 26 23 21 28 28 24 23 28 28 30 6 21 23 26 32 33 32 32 33
31 39 49 41 38 23 23 28 36 34 34 32 29 24 24 23 22 11 12 13 17 20 23 28 28 28 32 29 27 23 18 18 27 23 15 18 13 21 20 24 31 34 35 34 38
24 36 41 36 28 22 25 29 27 24 27 27 24 22 21 21 15 6 7 8 15 15 16 20 21 27 29 23 23 17 14 9 11 9 13 3 20 13 29 27 28 34 34 34 39
33 40 41 34 24 24 23 22 21 23 23 22 19 21 19 15 7 7 10 8 9 13 13 14 20 17 12 6 7 9 2 4 6 10 13 11 19 29 28 30 28 33 37 36 31
32 28 30 27 21 18 18 17 18 19 17 18 15 17 15 7 8 11 11 11 7 8 11 16 15 13 17 16 11 5 6 9 12 14 14 13 26 25 31 32 30 35 36 37 34

GFSSW_500_spd_003.txt.gz
Wind_Speed
31 33 35 35 34 35 34 36 38 39 42 45 45 45 45 45 44 40 37 38 38 38 35 32 31 31 32 31 31 31 34 26 23 25 25 32 35 37 36 34 39 38 36 34 32
32 35 36 36 34 34 35 36 36 37 40 39 40 43 44 44 43 41 39 37 37 36 34 33 32 32 33 32 32 33 34 23 22 24 27 33 39 42 39 36 35 42 39 36 36
34 34 36 36 35 33 34 36 36 37 40 40 40 41 42 43 42 40 38 35 36 35 32 33 33 31 31 31 30 31 30 26 23 24 25 30 37 42 39 35 34 36 42 38 38
31 36 35 37 35 34 33 35 34 34 36 36 38 39 40 40 41 39 38 36 35 33 31 32 31 28 26 28 27 27 26 27 26 27 26 27 33 36 35 29 34 36 36 41 39
33 32 38 36 38 35 34 34 34 33 33 33 34 37 37 36 36 36 39 36 34 30 30 30 29 27 24 23 23 25 26 26 27 32 32 30 30 33 34 29 33 34 36 36 42
35 34 39 38 41 35 34 35 34 32 32 32 32 33 34 34 35 33 35 33 30 29 29 30 27 25 23 22 24 25 25 26 26 28 31 38 36 42 33 34 34 32 31 33 35
36 37 34 43 37 40 34 37 34 32 31 31 30 30 32 33 33 32 32 32 30 29 27 27 26 25 25 26 25 25 27 27 26 27 29 33 40 44 37 41 37 33 29 30 31
37 37 36 41 41 38 38 36 36 33 32 30 28 27 28 30 31 31 31 30 28 26 26 25 24 24 24 24 25 27 27 26 28 30 30 31 31 41 42 42 41 38 37 33 30
45 37 39 37 45 39 40 37 38 35 33 29 28 25 25 28 27 27 26 26 26 24 23 23 23 25 27 26 27 26 29 30 32 33 33 32 34 34 44 46 45 45 44 39 35
48 45 41 41 45 43 38 43 37 38 33 30 28 27 25 25 25 25 23 23 22 22 21 22 24 25 26 25 28 32 36 36 37 37 38 37 40 34 39 47 49 48 46 44 39
50 48 45 46 47 48 47 44 41 37 35 34 31 29 26 27 25 24 23 21 20 20 21 24 26 23 26 29 32 35 37 41 42 43 43 41 47 44 37 42 48 49 48 46 41
48 54 55 52 53 52 50 44 42 40 38 38 34 31 29 27 26 25 24 20 20 21 23 24 25 26 29 32 35 37 40 42 43 45 49 49 49 47 41 38 45 48 49 46 44
42 55 61 60 59 55 53 47 39 45 43 40 38 34 33 30 28 26 24 24 25 24 26 28 30 32 36 39 41 43 45 48 50 50 51 53 53 48 45 43 43 47 48 46 46
39 49 59 63 63 59 55 49 41 42 47 41 40 39 36 32 31 29 27 27 27 29 31 34 35 38 40 43 45 47 50 53 56 58 57 56 61 54 45 44 46 44 49 46 48
35 45 52 60 62 55 49 50 43 42 46 47 42 37 36 36 34 31 31 31 32 33 34 36 38 41 44 44 50 53 56 59 62 64 64 60 64 60 54 45 42 46 47 48 48
25 40 45 54 53 52 49 39 44 48 47 45 43 37 35 34 31 31 30 28 29 32 35 36 41 42 45 50 51 55 60 63 66 67 71 64 65 57 56 53 45 44 45 48 48
17 38 44 52 59 52 47 45 44 46 47 40 37 37 33 31 29 29 29 30 33 35 37 39 39 43 46 48 52 57 56 56 57 64 70 64 65 59 56 58 53 46 44 46 49
18 29 43 54 60 49 45 56 44 45 47 38 31 31 30 29 27 30 32 32 32 32 36 39 40 43 45 47 47 50 51 47 45 47 47 52 62 56 58 56 57 51 46 46 48
18 20 40 53 66 50 42 56 42 36 39 41 34 30 27 25 26 28 27 24 28 32 34 38 42 41 35 37 38 41 51 34 41 40 40 42 49 49 51 52 53 50 46 44 51
15 16 40 60 57 46 47 41 40 39 39 39 35 31 27 27 29 26 24 25 26 29 35 36 30 27 30 37 39 43 49 32 35 39 44 38 33 39 43 42 41 44 46 43 45
14 18 46 68 58 51 46 49 40 31 36 41 36 30 29 33 29 23 21 23 25 30 28 26 26 27 32 37 39 39 42 34 35 39 37 36 26 16 20 21 30 40 46 44 48
7 19 50 52 51 38 44 44 43 31 35 37 36 36 35 33 27 20 21 25 28 22 18 23 28 23 23 34 37 38 35 35 31 37 39 38 30 32 29 26 27 33 39 41 50
21 27 46 47 55 37 36 37 35 29 31 36 37 35 37 30 22 20 20 25 17 15 15 20 22 25 27 30 32 34 30 25 26 34 23 30 19 15 15 25 24 30 35 40 51
26 20 45 38 37 36 33 36 30 26 27 34 35 35 32 21 21 18 21 15 8 13 15 16 14 21 24 29 35 33 27 22 23 18 16 13 9 2 9 20 21 27 38 44 43
16 27 43 32 30 33 35 26 25 23 27 30 32 32 26 20 21 18 17 5 6 12 15 14 11 16 16 15 19 25 17 11 8 4 3 4 6 13 22 25 19 21 30 32 37
17 27 38 32 26 21 24 26 22 21 21 21 24 27 20 20 18 15 13 6 5 9 10 9 8 14 14 12 10 12 6 6 3 7 8 5 6 22 15 19 20 24 32 35 34
17 31 38 29 26 18 15 19 20 19 17 18 20 19 18 15 15 17 14 8 6 3 5 9 12 10 16 22 20 11 6 3 4 8 7 8 15 20 19 16 26 26 35 31 31

GFSSW_500_spd_006.txt.gz
Wind_Speed
31 29 31 32 30 33 32 32 32 36 39 40 42 45 47 47 45 45 45 46 46 44 40 34 35 35 35 34 32 30 30 25 21 20 23 30 35 36 34 33 33 37 39 37 35
22 26 30 31 33 34 33 33 31 32 35 39 40 41 44 47 45 43 46 44 44 42 39 35 36 37 36 35 33 31 30 24 24 24 28 32 36 38 37 37 36 34 38 41 37
28 28 27 35 35 34 35 34 32 33 32 34 38 40 41 44 45 43 44 43 43 43 40 37 37 36 36 35 32 32 29 29 26 28 29 31 34 39 40 38 36 35 38 37 40
28 28 31 32 37 38 34 35 33 32 32 32 36 38 39 41 44 41 42 41 42 44 42 37 37 36 37 34 32 31 29 28 27 28 28 28 31 32 37 35 35 34 34 35 36
30 29 31 32 32 39 34 36 34 32 32 31 32 35 38 42 40 40 41 40 42 43 42 38 36 36 35 32 29 29 26 25 25 26 28 31 29 31 33 31 31 32 30 31 32
35 34 32 33 34 34 37 33 35 32 32 30 31 33 35 39 39 40 40 39 41 41 39 37 35 35 33 31 31 28 25 24 23 25 27 29 33 37 29 31 33 34 31 30 30
41 40 38 35 35 36 35 34 36 33 33 31 31 33 33 38 37 37 38 37 38 40 38 37 36 35 33 33 32 30 27 25 23 24 25 28 28 31 33 40 39 37 33 31 29
47 45 44 43 38 39 37 37 36 33 34 32 32 31 31 34 35 36 38 38 37 37 36 36 35 34 33 34 33 32 29 26 24 25 27 29 27 31 32 36 43 43 37 36 33
56 54 51 48 42 40 40 37 35 36 35 34 31 30 29 30 32 34 35 35 35 35 35 34 33 33 33 33 32 30 30 29 30 30 30 30 30 28 31 31 34 43 45 41 39
64 57 56 53 50 46 43 41 39 38 37 35 31 29 28 26 28 30 32 33 33 33 32 32 31 30 29 28 29 29 29 29 30 30 32 33 33 31 29 29 30 36 43 46 44
58 48 49 53 56 53 45 46 47 40 37 34 33 31 28 26 26 28 30 30 30 29 27 28 27 24 25 26 26 27 30 33 34 34 37 38 39 39 36 33 35 33 38 46 51
52 48 44 54 60 50 50 50 43 37 37 38 36 32 30 27 25 26 27 26 24 24 25 25 25 25 22 23 27 29 31 34 38 40 41 44 43 44 43 41 38 39 40 44 48
33 32 42 54 61 60 56 52 44 38 38 40 39 35 32 30 26 25 24 23 22 22 23 24 24 22 24 26 30 32 36 40 44 47 49 52 52 51 49 48 45 42 42 43 47
17 23 40 51 55 59 55 52 40 41 32 40 39 37 34 31 28 26 24 23 23 24 23 23 25 26 28 32 37 39 41 45 49 52 55 56 61 58 56 51 50 48 46 45 45
15 20 39 46 52 56 59 48 52 45 35 41 44 39 37 34 29 27 26 25 25 25 24 26 27 31 34 37 39 42 46 49 53 56 60 59 65 65 63 60 55 54 50 47 48
23 20 35 44 46 65 62 56 47 43 40 40 42 40 38 36 32 29 28 27 27 27 27 29 30 32 36 38 43 48 51 54 57 58 62 54 64 69 64 68 67 60 56 54 51
14 17 24 43 44 65 61 52 48 46 41 33 35 39 36 34 34 32 31 29 28 28 27 30 33 36 37 41 45 48 52 54 56 56 57 59 66 74 70 69 70 67 63 60 54
19 17 13 34 49 72 59 55 52 52 45 29 31 34 35 33 32 29 29 27 27 29 31 34 32 32 37 41 46 47 43 43 45 50 47 50 59 44 42 56 61 65 67 63 55
25 13 14 36 48 65 51 54 46 43 37 35 34 31 30 35 30 26 25 27 31 33 32 29 29 31 36 37 39 41 42 41 46 46 46 48 53 42 27 31 34 37 56 61 57
11 8 19 38 56 63 54 45 43 37 36 35 31 30 26 28 29 28 28 29 27 25 24 26 30 28 29 33 37 40 39 41 41 46 49 54 47 34 36 34 28 27 26 44 52
4 2 20 50 67 50 41 38 40 36 38 36 33 31 29 28 28 28 27 23 22 21 22 26 26 22 25 30 34 35 34 34 41 46 53 48 36 31 31 29 24 21 27 29 43
11 9 35 61 48 48 38 37 35 34 26 26 31 37 31 29 30 30 25 18 18 18 21 25 21 21 21 22 27 32 32 35 42 41 43 41 35 29 34 30 24 22 29 35 36
18 12 41 51 42 45 37 28 27 33 25 30 30 35 33 32 30 23 19 18 17 17 19 19 18 20 15 19 24 23 26 30 28 32 29 33 25 28 22 17 21 23 30 32 37
17 16 42 45 33 35 34 35 31 31 28 29 33 36 39 36 29 21 20 18 12 18 14 14 17 15 15 19 24 26 27 24 24 25 18 17 10 13 13 19 23 26 28 33 37
11 29 51 31 34 28 32 31 28 30 28 28 31 34 33 30 23 20 19 13 16 15 10 10 5 6 13 18 21 24 22 23 25 17 15 8 3 10 13 19 22 23 21 34 38
19 45 29 36 27 23 27 30 29 28 26 27 31 30 26 20 20 17 16 13 15 9 6 3 3 5 10 14 17 17 14 19 19 16 13 9 15 14 9 9 19 18 13 30 36
29 34 29 23 25 19 22 24 21 20 19 24 26 20 17 15 18 18 14 15 12 7 3 4 1 1 6 11 16 16 16 12 11 11 11 12 11 9 6 13 15 11 14 20 26

GFSSW_500_spd_009.txt.gz
Wind_Speed
23 22 26 36 41 32 34 33 31 33 36 39 42 44 45 45 46 46 44 45 47 45 46 44 44 41 40 39 37 37 40 35 27 23 23 31 33 36 35 33 34 31 32 40 36
24 25 26 26 40 36 32 35 32 34 34 35 37 41 43 45 46 46 47 46 46 45 46 46 44 44 42 40 36 38 40 34 26 28 27 31 34 39 36 36 36 34 32 34 37
25 26 28 27 29 34 37 33 34 33 33 35 37 38 40 43 45 46 47 46 46 45 45 45 43 44 45 40 37 37 39 31 33 32 31 32 33 37 37 37 36 36 36 39 36
31 28 29 28 30 33 34 37 33 36 35 34 38 37 38 40 43 43 45 46 46 46 44 45 43 43 46 41 39 38 38 34 35 32 32 32 33 36 35 36 38 37 38 36 32
38 35 33 32 31 33 34 36 39 37 37 36 37 38 38 37 39 40 42 44 46 46 45 44 44 44 46 42 40 38 38 37 34 33 33 34 34 34 37 35 35 34 31 32 32
45 44 39 36 36 35 37 38 37 39 39 37 35 36 37 36 34 39 40 44 45 46 45 44 45 46 46 44 39 40 37 35 33 30 31 34 34 36 35 33 36 34 31 29 30
47 47 48 42 39 40 39 39 37 40 39 38 35 36 35 35 33 35 39 41 42 45 45 43 43 45 45 44 40 39 38 35 32 30 29 31 32 35 33 35 36 35 34 33 33
55 55 54 51 47 43 44 42 40 36 38 37 35 35 33 31 30 30 34 37 42 43 45 42 43 43 43 41 40 40 39 37 35 32 31 31 30 32 35 36 36 35 37 37 35
68 66 64 61 56 50 46 46 42 38 38 37 35 35 32 29 27 28 32 36 41 41 41 40 42 40 40 40 41 40 40 38 37 34 34 32 31 33 34 35 35 37 37 39 38
74 71 65 69 66 57 49 48 42 31 40 37 35 35 30 29 26 26 30 34 39 38 40 37 39 39 39 39 38 40 40 38 34 34 35 35 34 32 34 35 36 36 36 35 36
51 50 47 48 59 61 52 46 44 43 43 35 35 34 31 28 27 26 29 33 36 38 39 37 36 34 35 36 38 35 33 34 33 35 36 37 36 37 36 36 35 36 36 37 37
41 34 29 29 44 52 52 52 52 44 43 39 37 34 32 29 27 27 29 32 33 34 34 31 29 29 29 27 28 29 30 31 34 35 38 37 37 40 40 39 39 41 40 39 40
24 16 17 21 39 49 52 54 50 46 38 33 40 36 34 31 29 27 28 30 30 31 27 26 23 22 22 22 23 25 30 31 35 38 40 43 43 45 47 46 45 42 44 44 43
23 16 12 19 40 47 56 55 53 47 40 42 38 36 36 33 30 27 26 26 25 25 25 23 20 19 19 20 24 28 32 35 39 43 45 47 51 50 51 53 55 56 53 54 51
21 24 20 13 37 47 64 55 54 47 47 35 39 38 38 36 30 27 25 25 25 23 21 21 19 19 21 24 27 32 34 40 43 47 50 52 62 56 61 60 63 66 65 61 59
8 10 23 14 32 49 55 56 53 51 43 32 40 40 38 37 32 28 26 25 22 21 20 21 20 22 25 28 31 34 39 43 48 52 57 56 64 64 62 63 69 69 70 72 69
15 20 19 14 33 57 72 48 46 57 48 32 38 37 37 36 32 30 27 25 23 22 21 23 24 26 28 30 34 38 41 47 53 57 58 59 64 66 56 58 64 69 72 74 74
17 27 10 16 40 62 67 53 54 55 42 37 26 37 38 36 35 31 28 26 25 24 24 26 29 28 30 34 37 39 44 45 51 53 55 58 65 60 52 52 61 59 63 62 66
21 24 5 18 44 62 55 46 31 50 44 28 26 33 37 35 32 30 29 27 25 26 28 28 29 29 32 33 37 40 41 45 48 47 50 53 54 50 44 46 46 52 49 50 56
18 9 11 36 48 68 62 38 17 48 46 32 21 22 28 31 29 27 27 27 26 27 28 27 29 28 30 34 37 39 40 41 41 49 49 51 49 49 31 30 36 39 38 37 40
10 8 18 33 51 62 51 33 35 42 47 37 26 23 22 26 30 28 26 27 26 27 26 24 26 25 30 33 34 36 38 39 41 42 48 52 50 32 29 36 35 32 29 31 37
6 7 18 31 46 53 33 37 38 35 36 32 26 30 28 25 28 30 30 28 25 21 22 24 24 25 27 29 32 31 32 34 40 40 48 44 39 27 26 26 32 29 32 30 35
12 9 24 38 44 35 32 27 31 26 22 27 26 27 29 28 26 27 27 22 20 21 21 22 21 23 23 25 25 22 26 32 38 41 39 40 34 26 26 23 23 29 28 24 32
15 18 33 48 46 36 27 19 30 24 22 25 28 26 32 28 25 25 21 19 19 19 19 20 19 21 17 16 21 20 20 27 34 37 36 36 34 24 23 25 27 30 25 24 29
11 28 41 38 39 33 24 23 28 20 22 20 20 22 30 28 25 20 19 18 19 18 17 15 16 11 11 10 16 21 23 23 29 30 36 23 35 18 29 25 18 25 22 21 24
19 39 30 28 30 24 22 23 24 25 25 20 19 23 28 28 27 24 23 20 18 16 12 12 10 11 9 11 16 18 18 20 27 31 33 33 26 37 29 19 14 14 12 13 13
30 23 25 22 24 22 21 19 17 19 17 18 18 17 19 21 22 22 20 19 15 12 12 10 10 9 8 10 13 17 18 19 25 27 25 29 35 23 16 14 10 8 8 9 7

GFSSW_500_spd_012.txt.gz
Wind_Speed
26 27 27 28 29 38 38 32 41 35 34 38 45 50 49 47 45 43 42 42 43 42 43 43 42 42 41 39 39 39 40 40 35 30 25 30 35 38 29 34 32 33 26 33 36
30 28 29 29 30 31 34 42 33 42 34 35 38 43 47 49 47 45 46 44 44 43 44 45 45 44 44 42 43 41 39 37 33 30 33 35 37 36 29 35 33 35 31 35 31
38 35 32 32 32 31 33 32 39 35 41 38 36 37 40 44 47 45 45 46 46 45 45 45 46 45 44 45 45 43 41 38 32 34 34 33 34 33 36 37 32 35 34 36 35
42 43 41 37 36 34 34 35 36 35 37 40 39 37 38 40 42 42 44 45 46 47 46 46 45 46 46 45 45 44 44 41 35 35 35 31 33 36 35 34 36 37 36 36 35
41 43 45 44 42 40 38 36 38 35 38 35 39 38 38 38 39 41 42 43 44 46 47 47 46 46 46 46 44 43 45 42 38 36 35 33 37 36 37 39 36 38 36 34 33
48 46 48 50 48 46 44 40 37 37 36 39 35 39 37 38 38 36 38 42 43 45 47 48 47 46 47 46 44 42 43 43 40 37 35 37 37 38 39 37 38 38 37 31 32
56 58 57 56 56 53 49 45 41 38 38 38 42 38 39 36 37 35 37 38 39 42 45 47 46 46 46 45 44 41 41 44 42 38 38 39 36 35 38 39 37 36 36 33 32
71 70 69 63 63 60 56 50 46 41 39 39 39 39 34 36 35 34 35 36 37 37 43 46 46 46 46 45 44 43 45 43 42 41 40 38 34 33 37 37 36 36 35 34 34
68 63 60 54 58 65 63 56 49 44 38 42 37 36 38 33 33 34 33 34 34 38 39 39 41 43 43 41 42 43 43 42 43 41 41 39 36 35 35 36 34 35 36 34 33
47 43 41 41 40 55 65 60 52 43 41 39 37 36 37 34 33 32 33 33 32 33 35 38 38 40 41 41 40 42 43 43 40 43 40 41 38 37 37 37 36 35 36 37 36
39 33 30 29 27 40 57 62 54 45 43 38 35 36 34 33 33 31 31 31 31 31 33 34 35 34 36 39 39 41 41 38 38 38 40 40 41 40 39 37 36 38 39 40 40
18 16 16 13 15 32 45 56 52 44 45 45 37 37 35 35 33 31 31 30 29 29 29 29 29 32 32 35 36 36 36 33 33 36 41 39 40 40 41 39 40 39 40 42 42
18 21 26 13 11 26 42 48 44 43 44 41 38 37 35 35 32 29 30 28 26 28 25 26 29 29 29 29 30 31 31 30 32 31 33 37 39 38 39 39 40 41 42 44 46
14 19 32 27 8 22 43 54 54 50 45 39 36 38 34 34 31 29 27 26 26 24 23 25 24 25 23 23 25 24 25 23 25 28 32 35 42 38 40 44 47 48 49 50 52
16 15 21 16 12 25 44 60 45 46 48 43 36 38 39 34 31 27 26 22 22 22 22 21 20 20 19 20 20 21 21 24 28 31 35 36 45 42 46 49 53 57 61 61 60
19 21 24 15 14 36 57 45 53 49 44 44 40 34 37 34 29 26 23 21 21 22 21 20 18 17 18 18 19 21 24 28 32 36 39 44 49 39 51 53 51 59 59 64 69
27 27 28 15 8 46 66 40 40 54 43 41 37 32 34 31 30 28 24 21 22 20 19 18 18 19 19 20 22 25 28 33 37 40 41 49 50 43 44 48 52 57 57 56 63
37 34 14 7 21 54 58 33 39 51 48 38 32 30 35 32 32 29 26 25 23 21 19 19 19 19 20 22 25 27 31 34 41 43 42 47 44 46 52 48 53 63 62 59 58
33 27 13 9 31 49 41 31 32 43 46 26 29 33 36 32 31 29 26 23 22 20 20 20 20 20 22 24 28 29 34 37 41 42 44 46 49 49 44 49 53 54 57 59 57
34 23 4 26 43 55 35 31 25 43 31 32 17 30 31 30 29 28 26 23 21 21 21 19 21 22 22 27 31 34 33 35 38 43 45 45 47 48 50 47 50 47 45 44 40
28 11 20 33 39 53 35 30 21 36 37 27 18 24 28 30 27 26 26 24 22 21 20 20 21 21 24 29 29 30 32 33 39 40 45 42 49 44 46 49 43 37 35 39 43
20 5 18 34 42 43 18 26 20 34 38 25 22 21 28 29 27 26 26 23 22 21 19 19 18 21 24 26 29 29 28 31 37 37 44 44 44 43 46 44 38 34 37 32 34
16 10 21 33 50 37 23 18 17 28 33 28 21 16 22 27 29 28 25 24 22 20 17 18 18 20 22 25 25 22 25 31 34 34 34 40 42 37 48 46 38 35 35 36 37
19 18 32 42 35 23 20 22 18 21 30 29 19 15 26 23 25 26 25 22 19 16 18 19 16 19 21 23 16 16 20 23 25 31 39 35 42 39 38 44 39 30 30 31 32
22 27 42 39 22 24 16 18 20 16 18 23 20 20 24 22 21 20 19 17 16 17 18 15 15 16 20 13 15 17 19 20 22 28 35 36 36 42 44 34 33 33 20 23 21
23 34 30 24 22 21 15 22 21 14 14 14 15 15 17 21 19 13 13 14 15 15 15 15 14 14 15 11 12 15 14 14 20 27 34 35 30 43 35 28 22 20 18 16 9
23 24 16 16 13 14 12 14 20 13 11 10 10 8 7 14 18 17 17 16 15 15 14 13 12 15 12 12 10 8 9 17 22 27 37 32 28 31 28 23 20 12 5 7 3

GFSSW_500_spd_015.txt.gz
Wind_Speed
36 36 34 34 33 31 31 29 38 34 47 42 44 43 51 52 52 49 44 44 44 43 42 39 39 41 42 41 39 39 41 36 30 27 20 27 32 38 38 31 29 33 29 31 31
35 37 38 37 37 35 33 33 32 42 36 44 40 44 44 53 53 49 48 47 45 44 45 43 42 43 42 41 42 41 40 34 30 31 26 31 35 37 39 29 28 32 29 29 33
46 37 39 40 40 40 37 35 35 35 44 35 42 37 42 45 53 50 50 49 48 46 45 46 46 46 45 44 43 42 40 37 34 34 33 32 34 35 37 34 26 32 33 33 34
48 48 41 40 40 42 42 39 37 36 35 48 39 40 39 39 43 49 51 50 50 48 48 47 47 48 47 46 45 44 42 41 36 37 37 32 31 33 33 35 35 31 37 32 31
52 48 50 45 45 42 44 44 40 37 37 36 41 41 41 37 36 41 46 49 51 50 49 48 47 47 47 47 47 46 44 43 40 40 40 36 31 34 36 36 35 34 37 36 31
63 59 56 57 54 51 46 47 45 42 38 40 42 36 40 40 35 36 39 44 48 50 50 50 49 48 46 47 48 48 46 43 39 39 39 39 33 36 37 37 37 36 38 37 34
65 63 63 66 60 59 56 50 49 45 41 36 38 43 36 39 39 34 34 36 41 45 46 47 47 47 47 47 47 46 45 42 39 38 39 42 37 38 36 39 38 37 36 39 35
55 50 49 48 52 62 65 59 53 49 44 38 39 37 39 38 37 34 35 35 35 39 41 44 44 46 47 46 46 46 46 43 38 40 41 42 37 37 40 39 38 38 37 37 37
50 44 40 38 38 37 48 67 58 52 47 40 39 39 37 40 31 32 33 36 34 34 36 42 44 46 46 46 46 46 45 44 42 41 42 42 40 40 41 40 38 37 36 37 38
36 28 25 24 26 26 30 48 63 52 48 39 40 39 34 33 41 30 32 33 33 30 34 35 42 42 42 42 41 41 44 46 44 43 44 44 41 40 40 40 38 38 37 36 37
23 23 25 19 14 15 25 42 52 52 48 44 40 34 33 32 36 31 31 31 31 32 35 33 35 32 32 38 41 42 42 40 39 42 42 42 42 41 40 40 41 41 40 39 39
17 24 28 26 17 12 23 34 47 52 48 42 40 36 33 35 32 31 28 29 29 29 31 32 29 30 33 35 37 38 36 35 37 40 43 39 39 40 40 41 42 41 41 40 42
22 24 28 30 27 11 20 35 49 53 44 41 39 35 30 32 32 29 29 27 28 28 27 28 29 32 33 31 27 32 33 34 33 35 36 38 38 37 37 39 40 41 40 42 43
31 29 30 26 24 11 17 41 49 56 51 43 40 33 31 32 31 31 30 29 28 27 27 29 27 28 27 24 23 25 25 25 26 28 32 34 38 32 34 36 38 36 39 42 44
34 38 33 27 20 9 26 46 39 56 45 43 41 37 34 29 29 29 29 25 24 25 25 23 24 23 21 20 20 20 20 18 21 23 26 27 35 33 30 34 38 42 45 48 50
40 34 32 19 12 5 37 44 45 45 30 43 40 38 34 30 29 30 27 24 22 25 24 25 22 20 18 18 17 16 16 19 21 22 27 29 31 33 36 40 42 45 48 48 51
42 37 24 12 5 28 50 43 42 30 36 39 39 34 33 27 29 28 23 23 21 21 22 20 21 21 19 17 15 16 17 21 23 25 28 33 36 33 38 44 42 42 46 49 52
42 31 14 7 27 52 46 38 24 34 41 40 33 28 23 32 31 27 25 22 22 22 22 23 21 19 17 16 16 16 18 22 27 30 34 37 39 37 37 41 46 47 47 51 52
38 26 14 29 46 40 39 30 36 33 37 39 34 28 25 33 31 28 24 21 22 20 21 21 18 17 16 15 14 16 20 23 28 31 37 36 33 33 40 40 43 48 53 52 52
30 17 42 56 45 37 31 33 31 33 32 33 24 25 22 30 30 27 23 21 20 19 20 16 15 14 11 13 16 19 21 25 28 33 31 32 35 39 36 35 42 49 53 55 55
27 37 49 42 45 35 40 35 28 30 30 26 25 18 23 26 26 23 22 19 18 18 17 15 12 8 12 15 18 21 21 25 26 27 31 32 30 32 37 42 46 51 56 56 51
27 51 40 41 38 37 32 35 32 27 22 20 16 23 29 25 25 24 23 21 19 17 14 12 10 12 15 17 17 19 21 22 24 25 25 27 28 32 35 38 45 54 49 45 48
32 47 39 39 34 34 29 27 21 24 27 18 13 22 26 23 25 23 21 20 19 17 14 12 12 15 16 15 16 15 19 21 21 23 17 27 29 32 36 39 44 49 41 32 41
43 33 28 32 31 27 24 17 20 22 22 21 15 14 20 23 23 21 21 20 18 15 14 13 13 15 14 15 14 15 16 16 16 15 17 27 34 30 36 39 43 41 31 30 25
37 27 25 27 22 27 20 18 18 21 25 17 8 7 15 17 22 22 20 19 17 16 13 13 14 12 15 14 11 11 10 10 12 17 24 27 27 28 33 36 36 34 30 23 14
20 21 21 15 16 15 15 15 15 17 12 14 9 6 6 16 15 16 17 17 16 15 14 11 11 12 14 11 11 10 7 9 14 20 22 24 26 27 35 34 31 30 26 18 13
16 12 11 15 14 8 4 7 5 6 4 6 5 5 3 12 17 15 15 15 14 14 11 9 10 12 11 10 8 7 3 7 15 20 22 23 22 27 29 32 32 28 21 14 12

GFSSW_500_spd_018.txt.gz
Wind_Speed
46 45 50 40 38 41 42 39 38 37 38 45 49 47 47 56 56 54 50 49 49 48 47 44 40 39 42 44 44 45 46 41 34 31 25 28 31 33 35 34 30 29 30 31 32
53 55 52 41 43 44 44 43 40 39 37 44 42 49 46 52 52 53 55 52 50 48 48 45 42 39 40 42 44 46 46 38 33 30 30 35 38 37 36 33 28 28 33 32 31
63 60 57 53 47 45 46 46 44 41 38 36 46 44 47 45 54 52 55 54 53 49 49 48 47 42 42 44 45 47 44 37 33 33 37 37 37 38 39 33 27 28 34 34 33
75 70 63 58 55 50 48 47 47 44 41 36 36 44 46 44 45 48 55 55 54 52 50 48 48 46 44 45 45 46 44 39 36 38 37 38 37 38 39 34 28 26 33 33 32
71 70 64 56 60 61 53 49 48 46 43 39 39 42 39 46 36 48 49 54 55 54 52 49 48 49 48 46 47 48 45 43 40 40 40 38 35 35 36 36 34 29 35 37 32
68 61 51 42 47 62 60 55 50 48 45 40 35 38 49 37 38 39 43 47 55 54 53 52 49 49 49 50 51 50 49 47 44 41 41 38 35 33 35 38 39 35 34 35 34
57 46 36 37 36 43 60 59 54 50 46 43 39 42 30 41 40 36 39 42 44 54 53 52 51 50 49 49 50 51 50 48 44 41 43 44 39 35 36 40 42 39 35 34 35
46 32 27 26 25 37 40 59 59 52 46 43 40 38 38 40 36 38 34 37 38 44 50 51 51 51 49 50 49 49 49 48 43 46 45 45 38 35 38 42 44 41 39 36 35
39 35 34 34 25 21 30 41 62 55 47 43 40 37 42 41 33 37 34 33 34 35 39 46 48 50 50 50 50 50 49 47 44 45 45 46 40 36 40 41 42 43 42 38 36
42 36 35 35 36 18 18 31 53 59 50 43 44 41 40 31 39 32 35 32 31 29 30 37 44 46 47 48 47 45 46 46 45 46 46 44 42 37 39 40 40 41 44 43 40
41 36 33 35 32 31 13 26 43 60 53 45 45 41 41 35 40 33 32 30 31 33 28 32 38 42 39 42 45 45 46 46 43 44 46 44 44 40 36 41 42 43 43 44 42
42 38 35 36 31 31 11 25 37 57 56 44 44 38 37 37 31 38 32 31 30 34 31 31 29 30 34 38 42 43 43 42 42 43 45 43 42 39 37 40 41 42 43 43 42
44 35 35 27 28 28 9 23 37 55 56 47 45 36 32 31 33 28 36 29 31 32 33 31 31 33 32 33 37 37 37 38 40 39 40 39 41 37 36 36 38 39 41 44 44
47 33 31 29 19 24 3 23 41 56 59 53 44 39 32 31 31 28 31 28 30 32 32 32 31 33 31 29 30 32 31 32 32 33 36 35 40 31 33 33 33 37 39 40 41
35 32 24 22 10 11 12 34 48 54 51 48 43 36 33 32 28 28 29 28 27 26 26 25 25 26 26 25 26 27 23 24 26 27 29 26 37 26 26 28 30 32 36 39 42
37 34 17 10 5 2 30 44 51 53 29 47 41 40 32 32 28 29 27 26 25 24 24 24 24 24 25 25 23 21 21 22 22 20 24 18 27 30 23 28 33 37 40 42 46
32 21 6 1 12 34 39 56 56 20 37 42 42 38 31 30 27 27 25 24 21 22 21 19 21 22 23 24 22 21 20 18 17 17 17 20 25 25 29 33 36 38 41 44 47
23 17 12 22 47 40 42 50 32 20 33 42 39 34 31 28 27 26 24 24 21 18 19 22 25 25 22 22 22 19 16 15 16 18 22 25 27 28 31 34 37 39 42 45 48
36 47 56 60 55 42 36 31 31 37 38 38 37 32 30 27 23 25 25 19 18 17 21 23 22 22 23 20 18 15 14 13 17 21 24 25 26 25 27 31 38 41 43 46 48
52 50 40 37 40 35 33 32 30 31 33 29 30 28 24 25 24 22 19 17 17 20 23 24 22 22 18 16 14 11 11 14 17 22 25 23 21 20 25 28 32 37 43 46 48
38 31 37 40 40 37 31 25 25 29 30 26 23 21 16 22 25 21 20 18 21 21 22 22 20 17 15 12 10 10 12 15 18 21 23 24 13 22 26 32 37 39 40 45 52
25 25 37 42 41 36 38 32 25 25 24 19 18 16 17 24 21 21 22 20 20 19 18 16 15 13 10 9 9 11 13 15 15 18 21 25 11 24 29 30 32 38 46 52 54
29 26 18 30 21 28 19 19 28 25 20 13 12 11 21 24 23 23 21 20 19 18 15 14 12 11 10 9 10 11 12 13 14 13 15 21 18 26 27 28 36 42 43 42 44
28 23 14 13 24 18 21 16 16 18 13 7 10 12 21 18 19 20 20 19 17 14 12 12 11 10 8 9 8 11 13 11 10 8 9 23 13 17 23 30 34 39 38 36 37
10 11 17 8 9 9 7 10 17 16 13 13 11 12 17 15 18 18 18 16 15 14 12 11 11 9 9 9 9 12 8 7 6 7 12 12 23 23 28 31 36 36 30 29 30
4 5 4 5 6 5 7 1 5 8 9 6 7 7 12 13 15 16 16 15 14 13 12 12 11 10 11 10 10 8 7 5 4 13 18 19 20 23 28 29 30 29 23 23 23
12 4 2 3 3 0 1 5 7 5 7 5 2 3 6 13 13 13 15 16 16 15 14 13 11 11 11 10 11 7 7 5 6 11 16 20 18 18 20 23 26 25 23 22 21

GFSSW_500_spd_021.txt.gz
Wind_Speed
55 61 63 61 62 58 55 48 49 47 45 43 43 44 56 58 58 54 52 52 51 49 46 45 44 46 50 51 51 50 49 45 40 34 34 36 38 39 37 32 32 32 28 28 32
64 70 73 67 65 62 57 51 52 50 47 44 42 41 48 54 57 54 55 56 53 50 48 46 45 45 47 47 50 52 49 46 41 37 36 37 39 39 38 36 31 29 28 29 32
73 76 76 70 66 61 58 56 53 52 50 46 42 41 43 48 54 52 56 55 56 52 50 50 48 46 44 43 46 48 47 46 38 39 38 41 43 42 40 37 30 26 27 26 31
78 79 76 63 55 45 53 58 56 54 52 50 44 40 44 46 50 49 54 55 57 55 52 50 48 47 45 44 43 45 45 43 38 40 41 43 45 43 41 34 34 30 28 30 34
78 75 63 47 35 32 44 57 57 54 53 49 45 40 40 42 38 48 48 52 56 56 54 50 47 47 47 45 43 44 43 40 40 41 42 42 42 40 36 36 36 32 32 35 37
68 59 51 36 26 28 36 46 56 53 53 49 45 43 38 36 45 44 43 50 53 56 56 53 49 47 48 48 46 45 44 42 43 44 43 42 40 39 36 37 37 35 35 37 38
61 51 45 36 28 27 30 33 53 52 52 49 46 45 45 27 42 39 43 44 45 53 53 53 50 48 47 47 48 48 46 45 44 43 43 43 40 38 38 39 39 40 39 39 40
56 49 40 34 35 34 23 31 41 53 52 50 46 43 37 40 38 38 42 39 46 41 53 53 52 50 47 49 49 50 48 47 44 45 45 47 41 41 41 40 43 44 41 38 38
53 45 39 32 32 34 31 19 33 50 51 48 45 41 33 40 38 41 36 41 39 40 37 51 50 51 50 50 49 50 51 48 45 47 47 48 44 40 43 42 44 44 43 40 38
51 42 40 30 31 28 29 12 32 48 51 48 45 45 42 39 25 36 40 36 31 34 36 38 49 50 50 51 50 49 46 46 44 47 48 47 47 40 42 42 43 44 44 44 41
47 41 42 28 26 24 24 11 28 45 51 48 46 43 38 42 32 33 33 35 31 35 35 35 40 49 46 48 48 51 50 48 45 46 46 45 46 40 40 44 45 44 45 45 43
40 41 33 25 23 22 22 9 29 49 52 49 45 37 32 39 34 37 34 39 35 32 33 31 32 36 41 46 47 49 48 45 43 44 46 44 44 42 41 42 44 44 43 43 44
34 32 21 21 20 13 21 5 30 55 53 48 45 44 31 38 32 34 33 37 32 31 28 26 26 26 30 36 40 42 41 41 42 43 44 44 44 42 40 41 41 41 42 42 41
30 26 21 12 12 13 16 16 36 57 53 45 39 41 36 36 33 32 32 34 38 37 27 32 26 25 27 28 30 33 35 37 39 40 42 42 42 33 36 36 35 37 38 39 39
30 25 15 13 10 10 6 27 51 54 51 44 38 38 38 29 31 28 29 31 35 34 31 28 29 28 28 26 25 26 28 29 32 35 39 35 39 25 28 28 29 28 32 34 35
26 19 5 7 2 6 24 42 57 54 39 37 36 37 31 28 32 26 26 35 35 35 33 31 28 28 29 27 25 25 25 27 28 27 34 25 33 29 21 23 25 27 30 34 37
33 23 15 11 13 27 38 54 56 47 42 37 40 37 28 30 28 25 24 29 28 27 26 27 25 26 25 24 23 23 23 24 24 24 23 21 26 22 15 21 26 30 33 35 39
57 42 35 34 39 40 46 49 31 22 42 39 38 33 29 29 24 21 21 25 20 21 22 21 23 24 25 24 24 25 22 20 19 18 18 19 21 18 20 23 29 32 35 38 41
48 46 45 41 49 56 33 25 27 35 45 40 37 31 27 27 21 24 21 23 21 19 23 24 24 23 22 21 21 20 19 17 16 18 19 18 17 19 23 26 32 33 32 33 35
40 40 38 40 27 27 29 33 25 28 38 30 30 27 22 21 20 18 21 18 19 19 22 21 20 19 18 19 20 19 15 14 14 16 16 15 16 19 24 27 28 30 33 37 41
42 30 27 21 22 21 21 24 25 29 30 27 22 18 18 18 19 19 19 17 18 18 19 19 18 17 18 18 16 13 12 13 15 16 17 17 13 21 24 23 25 31 35 37 40
23 22 26 24 19 16 17 27 24 24 22 20 15 15 17 21 21 18 19 17 17 17 17 18 16 17 15 13 12 12 12 13 15 14 15 17 14 19 20 22 27 30 36 40 45
12 16 20 25 26 24 21 19 19 19 16 13 12 7 8 17 21 18 16 16 17 18 17 17 16 14 14 13 11 11 12 12 13 13 14 10 12 19 19 19 27 33 35 40 42
17 9 15 16 17 20 17 18 18 16 11 6 5 6 9 17 15 16 15 15 17 17 16 15 14 13 11 11 10 11 12 11 10 9 6 10 10 20 22 24 27 28 35 35 34
14 10 11 8 9 14 12 9 8 12 15 11 5 9 15 13 13 14 15 15 15 14 14 14 13 10 9 9 11 12 11 8 8 4 6 11 14 14 18 20 23 28 31 29 29
11 11 9 8 8 4 9 6 5 5 8 10 9 9 12 12 13 15 15 15 14 14 14 13 12 11 10 11 12 12 9 8 7 4 5 8 15 12 13 18 22 28 27 23 21
13 11 10 5 4 3 6 7 4 7 7 3 5 4 11 12 13 13 13 14 15 15 15 13 11 11 12 12 13 9 10 11 8 4 5 8 9 9 16 21 21 23 23 19 18

GFSSW_500_spd_024.txt.gz
Wind_Speed
59 59 59 61 65 66 66 64 65 65 61 55 55 51 48 53 56 55 50 51 53 49 49 50 57 51 50 49 49 49 48 45 40 37 30 35 36 37 35 31 32 31 28 28 29
62 62 65 69 70 72 64 64 63 66 62 60 58 54 50 49 52 56 54 54 54 50 50 47 48 57 52 51 50 50 47 43 42 39 32 35 37 38 37 34 33 30 29 29 27
66 68 71 73 70 59 54 44 43 58 61 62 57 56 48 49 45 49 60 57 54 52 51 48 47 49 57 51 50 50 47 47 43 41 35 36 38 40 41 38 33 30 29 27 25
70 71 74 63 54 48 38 27 33 53 58 61 57 54 50 47 42 45 51 53 55 52 51 49 47 46 46 53 51 49 49 48 46 45 39 40 42 43 43 37 35 31 29 29 26
75 76 62 50 43 39 34 27 31 34 54 58 56 53 50 47 43 41 46 49 54 51 51 50 47 45 44 43 45 46 46 42 40 40 39 42 44 46 43 39 39 33 32 33 32
79 64 50 43 37 32 32 27 29 32 51 54 54 52 49 47 41 40 39 45 48 48 50 50 49 46 45 45 44 45 44 39 37 35 38 42 46 47 42 39 39 36 34 35 36
75 45 42 40 36 29 29 28 21 33 45 51 51 50 48 43 38 36 39 43 46 48 45 50 50 49 45 45 46 46 44 41 36 33 39 44 46 46 42 41 40 40 37 38 38
65 43 36 34 37 27 27 24 21 29 41 48 49 49 48 40 34 41 38 38 43 41 49 51 50 50 47 46 46 48 45 42 37 35 41 45 44 46 43 41 40 41 40 38 38
60 39 31 34 31 26 22 22 23 24 39 47 47 48 47 44 30 38 42 37 41 30 45 50 51 51 50 49 46 47 45 43 39 39 41 44 44 44 43 42 41 41 42 41 38
46 30 41 27 23 21 18 19 21 23 42 47 46 47 43 41 32 24 32 32 30 27 30 46 50 49 50 50 48 47 45 42 40 40 40 44 45 41 42 44 43 42 43 44 45
41 31 29 28 17 15 19 15 9 24 46 47 46 42 37 30 38 32 33 34 37 26 32 31 47 48 47 48 47 47 45 44 43 43 44 44 46 41 41 44 44 44 45 46 45
37 24 19 19 15 16 13 20 15 32 49 47 44 43 45 25 37 32 36 32 38 32 23 27 29 42 48 49 49 49 47 43 39 40 43 42 44 39 38 42 44 44 45 45 46
35 28 17 15 11 12 18 15 25 46 49 46 43 44 44 28 35 19 31 33 32 29 24 24 24 26 38 46 46 45 43 40 40 41 43 41 41 39 38 40 41 43 43 43 44
37 19 14 11 8 10 14 15 34 54 47 43 39 32 31 32 35 31 31 28 25 26 21 27 25 23 20 29 40 41 41 40 40 41 41 40 41 34 37 37 39 39 39 41 42
43 29 8 11 7 6 15 30 50 51 50 43 41 34 34 33 32 25 27 24 35 32 21 26 27 22 26 29 27 30 35 37 37 37 38 38 40 27 30 35 34 33 35 38 40
49 36 23 16 12 25 33 48 51 47 40 44 39 34 33 38 28 22 31 30 33 32 34 18 29 25 29 29 25 23 25 28 30 32 35 30 34 23 23 29 31 32 32 34 36
70 58 38 27 32 41 49 49 46 39 39 39 36 30 30 31 25 21 22 26 32 34 35 25 29 27 25 25 22 21 22 25 26 27 26 22 25 24 22 23 27 30 32 34 35
60 57 55 42 49 51 52 40 26 35 32 32 31 31 28 27 24 21 22 24 26 28 26 24 24 20 20 22 23 23 22 22 21 22 20 19 20 20 20 20 25 30 32 32 34
44 47 47 33 37 39 28 25 29 33 32 33 33 26 22 19 16 20 18 22 26 25 25 21 22 23 22 21 19 21 20 19 19 19 18 17 15 18 22 24 25 25 26 29 32
44 35 36 28 20 18 13 21 26 28 30 27 26 20 20 19 15 16 20 24 22 23 25 24 21 22 22 20 21 20 19 18 17 17 15 13 13 19 21 23 25 26 28 28 29
38 40 28 27 21 17 11 16 23 20 21 19 19 11 13 15 13 18 15 17 17 18 19 22 19 19 19 19 19 19 18 18 15 13 12 13 15 19 21 22 24 25 24 26 29
26 32 35 32 25 20 22 23 23 18 16 16 13 12 14 15 16 21 18 15 13 14 15 18 19 19 18 17 18 18 15 14 14 12 13 12 13 18 19 18 20 21 23 27 31
22 21 26 28 22 18 21 21 19 15 13 10 10 7 11 12 15 14 13 13 13 14 15 18 18 18 17 17 15 14 14 12 12 10 12 8 13 14 15 17 19 19 22 29 31
14 18 18 19 19 16 16 15 12 11 9 7 3 1 3 10 15 11 12 13 15 15 17 17 15 15 15 13 12 11 11 11 10 10 9 7 11 13 14 12 15 20 22 25 24
13 13 12 12 11 14 9 10 13 13 10 3 2 3 12 15 12 12 11 13 14 16 15 14 12 12 11 10 10 11 11 10 10 7 9 8 8 13 8 8 8 15 16 20 23
8 12 9 9 5 5 8 7 4 7 9 11 8 5 12 11 12 14 14 15 16 15 14 13 13 11 10 9 10 10 9 9 11 12 10 7 11 8 9 10 15 16 16 23 24
8 10 10 6 5 1 1 2 3 3 4 4 6 2 9 9 10 11 12 12 14 15 14 14 11 10 9 9 10 11 10 12 13 12 9 10 8 6 7 10 13 17 18 20 19

GFSSW_500_spd_027.txt.gz
Wind_Speed
52 52 57 60 59 60 64 63 63 58 62 63 64 65 63 58 54 61 54 47 52 52 50 49 52 53 53 53 48 47 47 44 40 38 35 35 37 35 32 30 28 29 29 30 31
56 59 63 64 65 70 67 63 60 59 64 71 69 72 68 62 59 54 58 58 55 51 51 47 48 52 54 51 53 50 47 41 40 38 37 36 38 37 33 31 30 30 29 29 28
61 65 68 71 71 57 54 53 53 49 48 50 64 69 67 61 58 50 57 62 58 51 51 49 49 48 51 55 54 50 47 44 43 41 39 39 39 38 36 31 32 32 31 29 27
67 73 74 70 52 47 47 42 40 35 32 32 49 63 63 59 53 53 55 56 58 55 51 51 48 46 49 55 57 50 47 46 43 43 41 40 40 40 37 34 34 33 31 30 29
74 74 69 57 41 41 39 35 34 30 32 38 34 59 59 59 53 49 49 51 54 56 53 48 47 45 42 47 54 54 46 45 44 43 42 40 40 40 38 38 36 35 33 32 32
72 72 66 40 37 37 29 33 30 29 30 42 34 54 55 56 50 49 39 46 47 51 54 48 47 45 43 42 45 53 51 44 43 43 43 41 42 42 39 43 40 38 35 34 33
76 75 43 33 31 30 27 25 26 25 24 33 33 50 53 52 47 43 39 39 40 47 48 48 45 47 44 43 43 47 50 44 40 39 40 40 41 40 44 46 44 41 38 36 35
81 57 26 24 29 27 27 19 21 22 22 29 36 48 51 50 48 32 31 37 38 45 46 50 44 48 46 44 44 46 47 46 40 39 38 37 37 40 44 45 44 41 39 38 37
70 42 26 25 25 19 17 16 17 19 12 24 43 48 49 47 45 41 26 33 35 41 41 48 47 49 48 45 44 45 46 45 42 39 37 34 34 39 42 44 43 41 39 37 36
62 31 27 19 17 14 11 15 13 16 18 35 47 48 47 41 38 40 37 29 31 36 36 36 50 49 49 48 45 44 44 42 39 38 37 35 37 36 41 42 42 41 40 39 39
56 26 26 21 14 10 10 12 14 9 25 45 46 45 45 42 36 32 36 33 26 30 32 36 40 49 48 48 46 44 42 39 38 40 41 40 42 37 39 41 41 42 42 42 42
57 21 18 18 15 9 12 18 3 22 44 44 43 41 45 46 27 36 37 34 28 29 33 31 36 47 48 47 46 45 43 41 38 39 40 41 41 32 36 40 43 43 42 42 43
57 36 12 17 13 11 14 3 25 43 47 42 41 37 36 42 32 32 32 29 22 17 29 30 29 43 47 46 49 48 45 42 40 39 41 41 40 33 35 38 41 42 42 42 43
58 38 25 14 10 13 11 27 44 48 47 43 43 42 34 34 35 31 30 27 28 20 18 19 23 33 44 44 45 45 43 42 41 41 40 39 40 30 34 37 38 38 38 40 42
53 38 33 27 26 27 35 46 47 46 44 41 36 40 30 36 29 32 26 23 22 24 19 23 22 20 25 33 41 41 40 40 40 40 40 38 38 29 34 35 34 35 36 37 39
54 44 41 37 40 43 47 46 47 44 41 35 25 37 32 35 23 28 26 17 20 18 12 28 19 25 24 21 26 35 38 39 37 37 36 34 35 28 30 31 31 31 33 35 38
54 53 51 47 47 45 44 46 45 47 38 31 27 28 26 27 21 30 18 28 30 26 26 24 26 21 23 26 26 22 26 29 30 32 30 29 29 27 24 27 30 31 33 35 37
42 44 45 49 34 35 36 36 38 42 38 34 29 29 26 26 21 15 14 18 19 25 27 22 24 19 29 27 23 22 22 24 24 24 23 21 23 24 21 24 27 29 31 32 32
31 30 28 32 31 18 26 31 33 35 27 26 26 28 27 22 15 14 16 20 19 23 23 25 21 25 24 21 20 22 22 20 20 20 22 21 22 22 22 24 24 26 26 28 30
33 28 23 23 23 18 21 23 25 23 22 23 18 18 16 14 14 15 16 22 24 21 20 20 23 24 23 21 20 20 21 21 19 19 19 17 19 21 22 22 22 21 23 26 27
29 32 27 26 21 17 19 23 22 19 20 20 13 12 13 12 12 13 16 16 19 20 19 21 19 20 23 20 19 20 20 20 20 17 16 15 18 19 20 19 20 23 23 23 23
20 26 25 24 23 16 16 13 17 16 15 13 9 9 11 9 13 15 16 16 15 15 16 18 18 17 19 19 19 19 19 17 15 14 14 16 18 18 17 18 20 18 18 21 21
15 16 20 20 17 16 14 13 11 11 10 10 9 8 8 6 8 12 15 13 11 13 15 16 19 17 17 18 18 19 18 17 15 13 14 15 17 15 13 13 15 16 16 16 18
7 9 12 15 14 12 10 10 11 9 8 7 4 4 5 8 10 13 10 11 12 13 14 15 16 15 17 18 18 18 16 14 12 13 13 15 14 10 10 12 11 8 8 11 12
3 5 6 8 12 11 9 10 10 10 6 0 2 3 8 14 16 12 11 11 12 13 13 14 14 16 17 16 15 15 14 12 13 13 14 12 14 10 7 8 8 8 12 12 14
2 2 4 5 3 7 8 8 8 6 5 8 2 4 10 16 14 12 11 12 13 15 16 15 14 15 15 14 13 12 11 12 12 13 15 13 11 10 10 11 8 12 15 16 16
8 6 2 5 6 4 5 5 6 7 4 1 4 5 9 9 10 11 12 12 13 14 14 14 14 13 12 10 9 9 8 10 13 13 15 12 10 7 8 6 7 9 9 11 14

GFSSW_500_spd_030.txt.gz
Wind_Speed
51 52 54 53 55 58 59 61 62 63 62 61 59 61 63 61 58 54 48 52 56 55 53 51 50 51 49 50 50 47 49 47 43 41 42 43 44 43 39 36 33 31 30 28 30
53 54 57 60 64 65 67 67 66 63 63 60 58 62 64 67 67 62 55 56 61 55 54 52 51 51 53 51 52 51 51 42 42 40 42 42 44 43 40 36 33 31 29 29 30
58 62 65 67 65 62 58 52 48 54 58 60 65 68 71 72 74 67 55 61 62 57 52 52 53 50 51 51 50 52 52 44 40 41 43 45 46 43 40 37 34 32 30 28 29
65 67 70 69 63 53 41 40 42 42 47 52 57 60 69 74 72 67 65 55 61 62 55 54 53 51 50 52 50 52 52 46 41 42 44 45 45 42 39 39 36 34 30 28 29
71 76 69 56 37 26 27 30 35 39 42 37 40 39 47 66 72 67 65 51 60 60 56 51 53 50 47 49 50 51 53 52 41 42 45 46 46 44 39 39 37 35 31 29 30
74 80 56 22 24 23 26 32 29 31 30 33 34 30 37 44 63 59 59 54 53 55 56 53 50 48 50 47 46 50 49 52 43 43 44 46 46 44 40 41 40 37 34 32 32
74 73 36 18 20 23 26 25 21 25 23 24 26 29 38 41 57 47 47 47 54 50 53 51 51 46 48 48 45 48 51 53 43 41 43 45 45 43 42 43 42 39 38 36 33
78 53 33 17 16 19 24 23 19 21 20 19 25 23 29 49 56 56 51 28 44 47 50 50 53 47 50 49 48 46 48 52 49 40 40 42 42 44 43 43 43 41 40 38 34
67 40 29 17 16 14 11 11 16 17 15 20 17 26 42 52 58 35 50 36 37 44 46 52 54 53 49 49 49 46 44 44 49 48 43 39 39 40 41 43 44 44 44 42 37
58 41 19 23 19 14 7 8 11 14 15 15 23 41 46 50 52 42 38 35 33 40 46 50 46 53 51 48 46 44 43 41 41 46 43 41 38 36 38 40 41 43 44 43 40
55 40 12 17 16 10 11 11 12 5 15 26 42 45 48 49 46 37 29 36 33 36 41 45 40 41 51 48 48 45 42 41 41 40 41 40 41 37 36 38 38 40 42 43 42
56 39 22 16 15 12 14 10 18 23 36 44 43 45 45 48 50 40 38 37 34 33 40 39 34 38 48 50 48 45 44 41 40 40 41 43 43 35 36 36 37 37 38 41 43
57 46 28 19 14 15 25 31 43 46 46 41 43 44 44 44 42 38 33 17 32 29 34 32 32 36 46 48 47 44 42 39 38 38 38 40 40 36 35 35 35 38 39 40 42
63 48 42 36 36 40 49 50 48 47 43 43 38 42 40 38 43 37 25 24 27 22 36 33 30 33 41 48 47 45 43 40 39 37 38 38 37 33 34 36 37 37 38 39 41
63 50 47 46 49 50 50 49 47 44 47 38 29 36 38 33 42 40 21 27 27 28 33 32 30 28 32 43 46 46 45 42 41 40 40 39 36 33 33 34 36 36 37 38 39
51 43 42 43 42 43 44 50 49 42 40 34 29 26 32 25 33 25 18 21 21 21 23 27 23 22 30 40 42 40 41 41 41 42 42 41 38 35 34 34 34 36 37 38 39
39 40 30 35 38 38 37 41 36 39 40 28 27 29 25 21 18 22 12 15 19 21 24 28 24 24 22 35 39 37 39 39 40 40 42 39 38 36 33 34 34 33 34 35 35
30 31 25 24 30 32 34 31 30 30 33 27 27 33 23 28 26 24 15 17 22 22 18 27 27 18 20 23 28 33 37 38 38 39 39 36 36 34 31 31 31 31 31 31 31
22 24 23 19 20 27 29 25 23 28 24 20 23 19 17 15 12 8 12 13 19 20 19 23 24 21 21 23 25 25 23 26 31 32 33 32 32 28 27 28 29 28 27 27 28
22 22 19 18 18 22 24 22 22 23 20 18 17 20 18 14 11 9 9 12 17 18 19 22 21 23 26 27 24 23 24 23 23 25 23 28 26 26 25 24 25 26 26 26 27
14 17 14 12 16 17 13 13 14 17 16 16 15 13 12 11 12 12 10 12 14 13 16 20 24 23 22 24 22 23 23 23 22 22 23 23 26 25 25 25 24 23 23 24 24
9 12 15 15 12 17 15 13 15 16 13 13 12 12 10 9 10 15 15 15 14 17 16 15 22 24 23 25 22 21 22 21 22 20 20 23 25 25 23 19 22 23 22 23 24
2 6 11 14 15 14 12 11 11 11 10 9 8 8 6 5 7 10 12 13 14 15 16 15 17 19 20 25 25 22 21 20 20 22 22 23 24 21 20 21 20 20 21 21 20
5 4 5 8 10 11 11 10 10 10 9 8 6 5 6 6 7 12 14 13 12 10 12 14 16 19 19 20 21 20 19 20 20 20 21 23 21 19 18 18 18 20 20 16 16
6 8 9 7 9 11 11 11 10 8 6 7 8 9 9 11 13 14 12 12 13 13 13 12 15 17 18 19 19 20 19 18 18 20 18 20 19 15 16 16 18 19 17 14 13
11 9 12 13 10 10 8 11 11 8 5 4 6 8 10 15 17 11 10 10 11 13 13 15 16 16 17 16 16 16 16 16 17 17 20 19 18 17 15 14 16 15 13 14 18
16 14 11 15 16 13 12 10 11 9 6 3 4 7 6 12 15 12 11 11 12 13 15 14 13 14 15 16 16 15 15 16 18 18 17 18 16 15 13 11 14 10 12 13 12

GFSSW_500_spd_033.txt.gz
Wind_Speed
47 48 49 51 53 55 58 61 62 62 63 64 63 59 57 57 62 58 51 46 51 51 53 53 54 51 51 49 54 48 50 55 48 42 39 43 45 43 43 41 36 37 38 29 28
52 54 57 60 63 64 65 66 69 69 68 70 69 66 62 61 66 64 56 53 53 55 51 52 49 56 51 49 48 42 50 46 40 38 40 46 41 45 42 41 39 36 36 32 31
57 61 64 63 64 63 56 51 52 55 58 57 61 64 64 66 68 64 62 58 54 51 55 51 53 51 52 54 48 44 48 47 45 42 42 45 44 49 43 44 40 38 38 33 31
67 69 68 61 50 36 29 24 27 37 44 50 53 56 62 66 67 68 66 63 57 52 53 53 53 53 54 50 48 47 46 51 49 42 38 44 45 49 46 44 45 41 33 33 32
71 69 59 45 29 19 21 24 21 22 25 33 39 46 53 61 65 68 69 66 62 53 53 55 51 51 53 47 52 50 50 49 50 39 40 46 48 45 47 48 42 39 37 35 33
71 60 48 33 17 15 21 20 22 24 26 31 37 41 44 52 59 67 57 65 59 57 56 53 51 49 53 56 48 50 53 48 50 41 43 45 48 48 45 48 42 41 39 37 34
64 52 34 27 17 13 21 23 23 22 23 25 27 29 35 39 53 64 60 59 57 41 51 55 54 50 48 50 51 48 54 48 49 44 43 45 49 47 46 46 44 42 41 38 34
64 50 25 18 17 15 15 17 25 21 18 17 23 25 29 36 40 57 69 56 65 34 42 51 54 50 51 51 49 46 51 50 47 48 46 42 44 48 47 46 45 44 42 39 35
66 48 22 10 16 12 7 8 9 14 15 18 20 21 25 34 34 45 60 54 59 43 45 51 52 51 52 51 51 50 46 48 47 46 49 44 44 48 45 45 44 43 42 40 37
65 49 25 14 15 10 7 7 6 8 11 14 17 18 23 30 38 47 48 42 58 55 44 49 53 52 51 52 48 48 49 46 42 45 44 49 40 46 42 41 42 43 43 42 40
64 51 34 22 17 15 12 10 5 2 7 12 21 29 35 57 41 49 44 39 37 64 52 46 51 54 48 47 47 50 46 43 39 41 40 50 43 39 36 38 41 42 43 42 42
59 52 46 37 27 20 17 18 20 19 21 24 32 44 44 40 38 33 45 31 30 39 46 44 42 46 44 50 49 49 44 44 41 38 37 40 51 45 38 37 37 38 38 40 41
52 54 52 50 50 52 51 48 43 38 36 34 35 46 55 48 44 45 42 27 31 33 38 39 41 46 40 44 50 48 44 45 40 37 37 37 42 46 42 37 35 34 33 34 36
42 45 47 47 42 41 41 42 43 39 35 33 38 45 48 26 31 45 34 33 29 32 33 38 42 43 38 37 49 47 45 43 41 38 38 38 39 42 41 37 35 35 34 34 35
34 34 38 37 36 36 42 42 36 30 30 26 31 37 34 29 35 35 33 39 32 30 35 34 40 38 38 40 47 52 44 42 39 40 39 36 38 39 37 38 39 40 37 35 34
28 24 29 30 33 34 35 32 33 35 28 31 31 24 24 21 32 33 7 23 28 24 31 32 32 34 32 39 45 47 44 42 41 39 42 39 36 40 35 36 35 36 37 37 37
21 17 18 23 27 29 25 27 28 27 26 25 21 20 17 23 27 13 10 20 25 30 34 25 30 28 28 28 40 44 43 43 43 42 42 42 41 42 35 35 33 34 34 36 36
17 15 13 16 22 25 22 18 17 22 20 17 22 12 12 20 20 13 11 22 19 25 26 28 24 21 19 26 28 41 41 42 42 44 44 42 42 45 39 36 35 35 35 35 35
12 12 12 13 16 18 17 9 19 20 22 19 17 14 21 19 17 11 9 14 14 15 26 25 28 25 22 17 24 31 37 36 37 40 40 40 41 39 38 36 35 35 33 32 31
8 7 8 10 12 12 12 12 8 12 17 16 11 14 13 8 7 7 9 15 15 16 16 19 24 21 18 24 19 24 28 34 36 35 36 37 38 38 35 33 33 33 32 31 30
3 1 4 6 9 10 12 12 7 9 8 8 10 10 8 5 5 5 8 10 16 16 17 19 23 19 22 22 22 23 26 25 26 30 30 30 32 35 32 32 32 31 31 30 29
3 1 7 7 8 11 9 11 10 7 7 6 5 5 6 4 5 8 10 10 14 17 16 19 21 23 20 25 25 23 23 26 25 25 24 27 29 30 29 30 30 30 31 29 28
7 4 7 10 8 10 11 10 12 9 8 7 7 7 5 6 7 9 10 13 14 14 16 16 21 22 25 26 24 24 21 22 21 23 25 25 29 27 29 26 28 28 27 26 25
12 10 10 11 11 11 11 11 12 12 11 10 9 9 9 9 10 11 10 10 9 12 18 19 18 20 24 24 25 27 24 22 24 23 24 26 26 26 22 25 25 25 24 24 23
17 15 15 13 13 12 12 13 13 12 12 12 11 10 10 11 11 12 11 11 11 11 10 17 18 19 21 23 22 23 23 22 21 23 27 28 25 23 23 24 24 24 23 22 21
22 18 17 18 17 14 12 13 13 12 11 11 13 15 14 14 13 13 12 11 12 13 14 14 15 19 21 21 21 21 21 20 22 23 21 23 22 20 21 21 20 20 20 20 19
24 23 19 20 20 21 16 15 15 13 10 9 8 10 11 12 15 16 12 11 11 12 12 12 14 14 14 17 17 17 17 18 19 21 24 19 21 19 19 19 17 16 18 17 18

GFSSW_500_spd_036.txt.gz
Wind_Speed
53 56 56 56 56 57 57 59 62 63 62 61 63 62 60 56 55 56 51 46 45 48 48 51 46 48 52 44 52 48 48 49 46 47 43 40 47 43 42 41 42 39 43 37 31
60 63 61 58 59 63 65 64 65 67 69 68 63 66 62 59 59 58 52 51 48 48 49 47 48 47 50 47 49 49 48 40 37 45 44 39 45 45 44 41 38 39 39 35 32
64 67 63 55 49 47 45 42 44 52 65 69 68 65 66 63 59 57 56 55 50 47 48 48 48 50 48 50 46 49 42 41 35 42 47 38 48 43 43 43 41 40 40 36 34
69 71 62 46 35 29 25 21 18 19 23 34 54 62 65 67 62 64 63 58 54 53 50 51 48 48 49 49 47 47 46 45 39 35 34 44 50 39 44 42 42 43 44 36 34
74 71 54 29 30 25 14 16 16 16 15 19 27 36 53 65 59 64 63 60 57 55 50 49 48 46 47 45 48 48 45 43 44 47 42 41 41 42 43 45 46 45 35 36 37
76 69 47 23 22 14 15 13 17 16 14 14 22 25 35 48 54 63 61 53 59 56 52 48 45 47 45 48 47 46 51 47 47 43 40 37 38 46 44 47 45 40 38 39 36
77 67 42 16 16 15 13 15 17 16 13 15 20 21 24 33 45 52 60 62 50 55 48 50 46 47 46 47 48 48 50 48 47 43 41 44 43 44 42 47 44 42 40 39 37
74 63 43 18 17 18 15 13 16 16 14 13 21 22 27 33 36 43 52 46 60 52 51 45 45 45 48 46 47 49 49 52 45 44 41 43 44 43 39 45 44 42 40 40 37
67 59 50 29 18 14 10 10 5 9 12 11 13 18 26 29 33 39 46 50 54 53 51 42 44 46 48 47 48 52 49 47 43 43 44 41 44 43 41 43 44 43 43 41 39
57 57 63 53 32 18 10 10 7 3 5 9 12 13 19 25 32 35 45 51 47 45 43 38 48 53 52 50 44 41 44 47 42 46 42 40 46 45 44 40 40 42 41 41 40
52 52 52 58 57 46 29 16 10 5 6 7 10 14 17 26 29 33 46 52 48 54 58 36 42 48 48 37 39 43 44 46 38 42 45 41 42 48 43 39 36 40 42 41 41
46 46 48 46 49 53 49 39 28 20 14 14 21 20 22 22 28 33 49 55 45 49 61 33 30 34 38 45 45 45 46 46 41 39 43 43 40 49 47 40 36 38 39 41 40
39 40 42 43 44 44 44 42 36 30 25 20 25 42 48 36 45 41 39 51 46 47 47 40 31 34 38 43 45 38 44 42 46 42 37 41 40 37 49 37 33 34 34 37 39
33 32 34 38 39 43 37 29 30 28 29 33 26 29 22 32 24 20 21 40 43 50 47 42 34 34 39 41 42 40 41 41 41 38 38 39 40 39 45 45 36 34 34 35 34
27 27 26 33 35 36 32 30 26 27 27 19 21 24 22 14 26 29 29 33 32 40 55 61 38 34 35 38 36 43 43 43 38 40 40 38 38 35 34 51 43 38 35 35 33
22 22 19 23 28 30 29 21 17 28 32 17 18 23 20 34 38 25 26 27 27 26 32 47 47 40 39 41 40 37 41 41 41 40 41 38 38 34 31 28 42 46 41 36 35
18 16 14 14 20 24 26 18 17 22 23 23 17 25 37 36 27 18 22 28 23 27 28 31 34 36 37 39 39 36 39 45 41 41 41 36 36 35 36 29 28 33 37 38 38
12 13 10 9 12 16 18 15 9 16 18 16 12 18 31 27 12 17 12 21 25 25 28 30 28 35 32 33 33 37 36 43 44 41 40 39 38 35 37 28 28 31 33 34 35
10 8 6 4 6 10 14 12 9 10 14 13 10 9 14 12 16 13 12 11 15 23 23 26 24 24 25 23 26 25 35 39 42 42 43 42 39 37 36 34 34 33 33 33 33
11 5 3 2 4 3 5 8 8 6 10 13 12 13 15 11 12 12 15 16 12 13 22 26 22 28 23 17 18 23 26 36 38 38 40 41 41 41 38 36 38 36 35 33 33
11 9 6 4 4 4 4 3 3 2 2 4 7 7 3 5 5 6 8 12 11 14 14 19 21 22 20 20 18 10 21 27 33 36 34 35 41 41 39 37 36 37 35 34 34
14 11 9 6 9 8 7 9 3 3 2 2 4 2 2 1 2 2 1 3 8 10 10 15 20 22 19 18 20 16 17 19 22 29 32 35 39 38 36 35 34 35 35 34 32
16 14 10 12 7 10 11 13 8 6 4 3 3 3 3 4 4 5 5 6 7 10 11 12 15 19 20 21 22 17 21 23 27 25 24 26 31 30 26 32 34 33 33 32 30
19 17 14 13 12 12 12 11 12 11 9 7 7 6 6 7 8 8 6 6 8 10 14 18 19 21 22 22 21 21 25 23 20 20 19 22 28 23 25 23 28 29 29 29 27
19 21 18 16 16 15 16 14 14 13 12 11 10 10 10 10 11 10 10 8 8 9 12 16 20 21 22 22 24 25 25 24 19 18 22 24 28 24 22 21 22 23 24 24 24
21 23 22 22 20 20 19 17 15 14 13 12 13 15 17 16 13 11 11 10 9 10 13 12 15 21 21 23 24 25 24 24 24 25 23 23 24 21 19 22 22 19 22 23 23
18 21 26 24 25 23 19 18 18 16 14 12 10 11 12 12 13 13 13 12 12 12 13 14 15 15 17 21 21 21 18 19 21 22 22 23 21 19 18 20 19 19 20 20 20

GFSSW_500_spd_039.txt.gz
Wind_Speed
57 60 62 60 56 54 51 55 59 62 62 59 58 59 59 55 58 57 55 48 45 46 46 52 51 50 53 48 49 49 56 44 54 59 52 51 50 51 42 41 42 44 41 36 34
59 62 65 62 57 43 37 39 50 61 62 62 58 57 59 61 57 56 55 53 47 46 48 45 49 48 50 45 42 44 52 42 42 47 51 52 48 51 43 45 46 44 39 36 36
64 68 68 63 39 28 29 24 24 28 44 62 66 62 60 58 57 58 59 57 49 48 45 47 48 50 48 50 43 40 44 38 40 42 43 44 49 29 45 47 47 43 39 37 38
67 73 73 60 28 24 23 19 13 9 12 21 40 50 63 61 54 59 61 60 51 48 47 47 46 47 48 46 49 40 39 39 47 46 42 45 47 40 45 49 48 45 43 41 41
69 76 74 52 19 17 18 13 11 10 8 13 18 22 30 57 59 56 59 62 54 50 46 43 45 43 44 42 43 48 45 45 47 48 43 45 43 47 44 49 46 46 42 41 41
68 73 70 49 20 16 15 13 12 11 9 4 13 15 24 32 52 56 55 59 55 51 49 45 42 45 42 43 41 41 44 42 46 54 50 35 33 30 41 46 46 46 44 39 39
63 65 66 62 34 17 15 12 16 13 8 4 15 23 26 25 34 55 53 56 47 51 42 47 44 44 45 42 44 44 43 40 40 45 42 32 42 40 37 46 46 43 42 39 41
58 55 65 67 68 27 10 10 6 9 7 4 10 21 21 24 32 39 51 58 51 43 46 46 47 43 44 44 41 45 42 43 39 39 39 44 37 40 38 42 44 43 40 40 42
50 52 62 55 62 58 24 14 10 4 8 5 10 20 19 25 35 39 43 54 52 45 46 45 43 45 43 44 43 44 40 40 36 35 38 41 40 40 44 44 44 44 43 42 42
45 51 57 53 48 57 45 23 16 8 9 5 9 16 24 27 32 38 41 50 48 45 44 45 42 42 44 40 39 33 30 35 35 34 40 40 38 39 42 46 44 41 40 40 39
41 47 50 49 54 55 54 38 25 14 6 9 12 12 17 25 30 38 44 49 51 50 39 41 40 35 33 34 36 37 33 37 37 38 40 41 39 36 40 44 43 38 38 39 38
37 41 45 45 47 50 42 41 34 28 18 9 9 14 19 24 30 36 46 44 46 48 36 36 39 34 35 36 34 38 36 34 41 39 37 41 39 39 39 41 41 36 38 39 40
32 35 36 34 38 37 36 39 42 39 31 45 34 22 20 24 31 36 41 47 41 42 33 30 31 35 35 34 37 34 34 35 38 37 38 38 42 39 35 38 44 34 36 37 38
28 26 28 26 30 29 29 31 36 34 31 27 28 31 28 19 25 35 39 48 49 46 37 35 29 31 34 33 36 36 37 37 36 36 35 39 41 41 40 37 46 40 36 36 38
25 20 24 18 24 23 25 30 39 33 38 38 27 27 15 17 28 28 36 42 45 44 46 42 35 33 29 30 34 36 39 38 33 38 38 40 41 36 40 42 37 46 38 36 34
21 17 16 11 17 18 22 22 30 30 31 26 28 18 22 23 21 23 35 41 46 32 43 43 41 28 28 32 30 32 37 37 37 36 39 35 39 37 34 36 36 40 43 35 34
18 14 11 11 10 14 17 17 22 24 23 22 25 27 19 25 24 23 26 35 36 38 37 39 39 31 26 24 28 32 34 37 39 40 35 34 39 34 32 36 38 32 49 42 37
15 10 6 6 8 7 9 13 13 19 23 16 24 26 20 19 15 23 19 23 26 29 33 42 44 36 33 30 29 29 32 32 33 35 35 39 38 36 31 34 37 31 33 47 50
15 11 3 2 1 3 6 12 13 15 18 13 12 20 14 18 21 15 12 16 18 19 23 24 33 45 46 37 37 34 34 35 32 32 40 38 36 34 33 28 32 29 30 31 35
16 12 8 3 4 4 3 5 8 12 11 11 9 11 16 19 15 18 14 15 19 19 22 24 27 31 34 37 32 30 34 32 34 35 37 41 38 36 34 31 28 32 31 30 31
18 11 11 9 8 8 9 3 2 4 6 8 7 6 8 12 13 11 13 12 14 15 20 18 23 21 19 30 23 21 23 27 29 33 35 38 41 38 36 35 32 32 34 34 34
16 13 13 11 12 11 9 11 5 2 2 3 3 3 2 4 7 7 7 6 11 11 10 11 21 21 24 20 21 19 18 21 27 30 33 34 36 36 36 35 34 33 34 35 36
18 12 15 12 12 13 14 11 11 8 4 4 3 2 2 1 2 4 7 8 9 8 10 12 16 20 21 24 22 22 18 13 13 16 26 31 34 32 33 34 34 34 35 35 36
22 12 16 16 14 14 13 12 11 11 9 6 5 4 4 3 3 3 5 9 12 13 13 13 13 14 20 18 16 19 15 17 24 26 23 20 23 23 24 25 28 28 33 35 35
23 11 15 19 17 17 17 14 12 11 11 10 8 6 6 7 7 7 5 8 10 12 14 17 18 20 22 22 22 21 22 21 19 18 17 17 24 21 18 21 19 23 25 28 29
22 12 17 20 22 21 19 16 15 14 13 11 9 10 11 10 10 11 9 8 10 11 9 10 15 21 21 22 25 25 25 25 21 20 20 20 18 15 15 14 19 20 20 22 23
26 15 19 20 26 24 21 20 18 16 15 13 11 9 8 8 7 9 10 10 10 10 11 13 15 15 18 23 24 25 23 24 24 22 23 25 19 21 16 16 19 20 19 18 18

GFSSW_500_spd_042.txt.gz
Wind_Speed
54 57 60 64 66 53 36 31 29 37 57 63 62 61 62 55 57 66 60 52 48 47 46 51 52 56 59 62 52 54 58 60 59 61 57 57 59 56 54 51 48 45 40 38 36
57 61 66 71 69 39 20 28 22 27 32 50 60 59 61 62 58 60 60 62 53 50 49 47 51 52 57 60 62 48 58 51 51 58 59 59 60 59 56 54 50 48 44 40 37
59 64 69 71 66 27 18 25 19 21 22 28 47 57 59 62 59 58 67 62 59 52 50 50 51 51 53 56 50 44 51 46 54 50 58 58 56 61 57 56 52 47 44 40 39
62 62 70 68 65 31 16 20 17 15 16 17 23 41 58 58 56 57 62 68 63 55 51 50 49 53 52 53 52 42 50 48 56 50 46 56 41 57 59 57 57 50 47 46 43
58 60 66 64 64 42 16 13 11 12 5 5 9 18 37 59 57 58 56 60 65 57 52 49 49 47 50 50 50 43 48 43 56 45 46 56 63 56 57 54 57 48 45 48 47
55 62 62 64 64 45 21 13 9 9 9 4 9 18 28 40 61 58 52 53 55 52 53 51 47 47 45 48 45 47 45 47 52 45 43 46 44 45 54 51 51 54 45 44 46
51 56 55 61 63 54 28 18 9 9 9 6 11 9 24 29 48 61 53 52 48 49 48 50 48 48 45 44 45 47 51 48 46 41 53 55 50 44 43 44 50 53 47 46 44
48 40 50 56 63 60 44 24 12 6 6 4 11 12 19 33 33 59 58 53 50 47 45 49 49 46 45 44 45 45 49 54 45 39 48 55 40 46 42 43 48 47 49 41 42
40 38 44 50 56 63 62 39 16 5 7 2 10 17 13 24 29 44 54 54 51 43 39 44 49 46 45 44 42 44 42 43 51 39 41 53 47 42 42 44 50 50 46 45 43
31 33 39 45 49 54 56 54 29 15 7 2 6 16 15 21 30 40 55 54 48 44 43 39 48 47 43 42 42 29 27 29 34 40 41 51 46 39 47 41 40 43 44 44 46
23 23 31 37 44 51 49 47 45 25 3 4 8 13 20 26 31 40 49 50 46 42 38 39 43 42 42 37 37 37 31 28 26 38 43 44 38 38 40 40 39 41 44 44 43
20 15 27 30 40 46 46 43 41 39 26 8 7 13 21 27 38 39 44 47 51 49 37 39 36 39 41 37 34 34 38 30 32 32 35 38 36 36 41 43 40 42 42 44 45
23 6 18 24 30 37 38 40 44 37 30 27 12 15 23 30 42 39 39 41 53 45 37 40 35 38 39 39 33 30 29 33 30 31 33 36 37 34 36 41 40 42 45 44 43
22 13 12 18 23 31 35 36 41 36 31 23 25 16 22 33 42 49 40 44 51 41 38 33 38 32 36 36 33 31 28 30 30 29 32 32 39 30 39 42 38 37 43 44 45
20 14 9 12 16 25 30 32 32 25 31 23 23 26 22 30 37 46 38 48 48 41 33 29 31 34 32 29 30 32 31 30 29 30 31 33 35 37 35 41 40 36 42 45 44
18 13 8 4 11 19 25 27 27 25 24 20 18 23 28 23 38 39 40 43 43 40 34 29 33 32 32 32 31 32 33 33 34 32 33 32 34 38 37 34 41 40 32 46 45
17 11 7 6 7 10 18 19 21 19 19 22 20 23 17 21 27 39 37 50 41 38 40 33 38 32 27 28 30 29 28 30 34 36 31 33 36 33 37 37 36 42 41 37 50
19 7 6 6 5 5 10 14 17 12 17 17 21 24 20 14 21 26 38 35 29 25 33 29 25 25 26 25 22 22 25 26 30 32 32 38 36 31 32 34 36 38 41 44 37
22 9 6 6 8 2 5 6 12 13 13 14 22 20 19 15 15 24 29 35 33 32 31 40 36 36 33 30 28 26 27 26 31 33 32 35 36 32 32 34 34 34 36 37 37
23 12 7 8 10 8 5 3 5 10 13 10 15 21 16 16 16 16 19 22 28 30 29 29 33 35 34 33 31 28 28 27 30 35 35 31 31 33 34 33 33 31 33 36 36
22 15 10 10 11 13 9 6 2 3 6 9 9 10 12 14 12 11 11 22 20 19 20 21 22 34 42 42 41 37 33 31 34 33 35 35 32 31 34 33 31 31 31 42 35
23 17 11 13 10 16 11 7 7 5 4 6 5 5 6 8 9 9 10 12 14 17 19 20 19 20 20 25 27 31 34 33 34 35 33 32 31 31 32 34 33 31 31 34 38
26 20 10 14 11 13 17 15 10 9 5 5 6 5 5 5 5 7 8 9 12 14 14 15 19 24 26 24 29 32 28 27 25 26 33 33 29 29 27 28 32 30 30 32 34
37 20 10 14 16 13 14 14 11 11 11 9 7 6 6 5 4 6 9 12 12 10 11 13 13 16 19 19 24 24 23 25 25 18 10 11 13 25 26 26 25 26 29 31 32
45 25 13 15 19 18 17 16 13 10 12 10 8 7 6 4 4 4 7 12 15 17 18 18 18 18 20 22 23 21 22 26 20 16 23 12 21 19 22 25 26 26 28 31 32
49 29 14 15 19 20 16 16 15 13 12 11 9 6 6 6 6 7 8 9 14 17 18 20 21 23 24 25 26 27 27 25 23 21 18 18 13 11 15 22 14 20 23 25 24
53 32 14 14 18 22 20 17 17 14 13 13 11 8 6 5 6 8 9 11 12 15 16 16 17 19 21 24 25 27 24 27 26 26 22 25 14 22 18 16 17 24 23 21 21

GFSSW_500_spd_045.txt.gz
Wind_Speed
51 56 57 57 61 60 40 17 20 25 21 24 49 66 63 63 59 58 53 63 57 54 54 52 52 63 59 64 67 56 55 62 58 55 53 53 53 55 54 52 50 43 41 37 35
52 50 52 59 66 57 26 13 20 21 22 28 30 46 65 65 64 57 55 67 61 56 53 51 50 57 66 62 68 62 53 60 52 58 57 57 57 57 56 54 51 46 43 41 35
45 47 49 60 70 67 25 15 20 18 16 24 29 28 47 65 65 58 63 71 63 57 54 52 52 54 58 65 62 52 47 51 53 54 58 60 60 61 57 55 54 50 47 44 40
39 42 48 61 67 73 44 13 18 21 17 14 19 19 30 59 62 62 59 71 68 61 55 53 52 55 58 58 61 56 60 52 55 56 54 59 61 61 58 57 54 53 51 49 45
35 40 50 60 61 68 64 27 11 11 10 5 5 13 28 46 60 57 54 67 69 64 51 51 51 50 54 56 55 62 50 55 42 52 54 56 59 61 59 57 57 55 51 51 49
31 38 49 55 58 62 67 47 13 6 6 5 5 15 28 32 56 56 52 63 67 63 49 52 49 49 49 52 51 50 52 51 47 43 45 54 54 57 59 61 59 60 53 50 50
29 36 46 50 55 60 61 60 32 4 3 4 8 6 29 32 52 53 49 53 61 60 47 50 50 49 47 50 50 52 53 46 44 44 48 55 55 50 44 50 59 59 56 51 52
27 32 41 44 51 54 60 57 47 9 4 3 4 6 21 25 48 49 45 48 53 54 46 47 50 49 49 47 50 50 50 45 45 41 47 55 52 58 48 48 50 58 57 53 55
27 28 36 39 44 51 57 52 52 27 4 6 4 5 14 24 34 51 47 48 40 51 52 44 53 49 49 47 49 51 50 49 48 39 45 53 50 62 49 48 51 55 55 54 53
27 26 28 37 39 44 52 48 48 41 14 9 2 11 13 24 24 49 52 49 43 42 41 41 50 53 48 49 44 47 44 47 48 43 42 50 53 58 50 46 52 53 52 52 50
28 24 24 30 36 40 47 44 43 43 31 11 3 9 14 20 23 43 56 51 53 43 44 37 41 50 45 43 41 39 39 40 50 47 43 45 55 60 43 49 50 46 48 49 47
30 23 21 24 32 36 41 40 38 39 36 19 5 8 14 15 24 35 53 54 55 43 38 37 35 45 42 41 41 39 35 35 36 33 46 46 44 44 50 39 47 47 50 51 49
37 21 19 20 26 32 36 39 31 33 33 31 9 9 14 20 27 37 52 52 54 46 32 34 35 45 44 40 36 36 35 33 32 32 36 44 47 41 40 38 42 45 47 44 45
40 20 17 16 19 27 32 34 30 29 31 28 13 10 13 22 27 37 45 47 45 43 38 34 35 37 45 41 36 34 34 35 32 29 28 29 43 47 39 40 40 43 42 41 41
41 21 14 14 15 23 28 28 26 26 25 25 24 12 18 23 36 38 32 44 43 47 37 32 33 36 40 39 37 33 33 30 30 31 28 29 34 34 36 36 40 38 41 41 42
48 24 13 11 13 19 22 23 22 25 23 21 20 14 22 26 34 35 39 50 42 39 33 29 35 35 33 34 36 34 31 28 26 28 27 27 28 30 38 32 38 39 39 39 42
56 28 13 12 10 12 14 18 19 24 23 21 17 24 25 27 23 33 39 49 40 36 38 33 36 31 33 34 34 34 31 30 30 29 26 28 30 18 27 37 39 40 41 42 39
64 33 17 11 9 7 9 13 12 15 24 22 15 16 19 30 27 23 33 41 41 33 28 27 30 29 26 28 29 30 31 30 31 27 25 28 26 21 27 32 39 42 40 43 44
69 36 22 12 11 8 5 6 9 11 15 22 14 9 18 25 24 23 29 28 33 29 28 25 25 27 28 28 30 31 30 28 27 24 23 25 23 25 32 32 36 42 43 38 39
69 40 22 16 12 11 7 2 4 5 8 14 18 12 8 16 23 23 35 33 30 28 29 27 25 26 25 26 27 28 25 26 24 24 23 24 25 25 31 35 32 37 39 38 37
70 48 26 19 15 14 10 7 2 0 4 5 10 13 13 11 19 25 28 20 22 25 31 30 30 29 29 33 30 27 27 25 23 25 28 28 26 26 29 33 35 35 36 35 35
71 54 36 18 16 13 13 9 8 4 4 4 5 5 7 10 11 14 21 25 29 28 24 22 24 25 28 34 34 32 32 33 34 33 29 30 28 30 31 32 32 33 35 33 34
69 61 38 17 15 13 12 13 10 9 6 6 6 5 5 5 5 8 11 16 22 22 21 25 27 28 30 35 44 46 42 39 40 34 30 31 33 31 28 26 24 28 31 27 33
65 61 39 22 17 15 12 13 14 13 12 10 9 8 7 7 5 7 10 13 14 14 17 20 20 20 21 23 21 22 23 27 28 29 27 30 22 18 27 29 27 25 29 30 30
62 63 47 21 16 17 14 14 13 13 14 14 11 9 10 9 8 8 10 12 16 17 18 17 18 16 20 24 24 25 23 26 30 25 29 15 16 16 17 27 29 30 29 30 33
60 66 51 23 17 18 16 16 17 15 14 15 14 12 12 12 10 10 10 12 14 18 21 22 20 20 20 22 23 24 26 25 22 25 25 20 19 14 18 22 20 25 28 28 29
59 63 54 32 18 17 20 17 16 18 17 15 15 14 14 14 13 13 14 14 15 17 19 20 22 25 24 25 26 28 25 29 28 28 28 31 13 24 18 15 16 24 26 29 27

GFSSW_500_spd_048.txt.gz
Wind_Speed
71 51 42 48 46 54 59 62 20 15 21 21 19 25 57 61 60 52 53 61 62 58 57 56 52 50 57 61 48 51 60 58 53 54 55 52 52 52 51 49 48 46 41 39 40
72 43 43 43 48 61 62 66 31 16 17 19 24 24 28 64 60 61 51 62 70 59 57 54 54 52 57 66 54 53 49 56 44 54 57 57 52 53 51 52 50 48 43 41 40
72 40 41 42 51 61 63 64 55 20 19 20 20 27 24 45 65 60 55 62 70 66 58 56 55 54 49 59 63 54 45 44 43 48 56 61 59 54 53 54 51 48 44 41 43
69 41 43 43 51 59 62 64 62 19 17 16 14 21 29 29 60 60 59 58 69 71 60 61 54 53 53 54 57 64 53 55 45 46 56 58 60 59 55 54 52 48 45 42 43
71 45 41 42 48 55 62 62 61 29 7 4 10 10 17 30 46 65 61 56 63 70 63 57 55 51 52 47 62 56 51 51 55 46 50 51 59 55 59 55 53 50 46 43 42
75 44 37 42 44 52 58 58 59 40 9 8 9 9 12 25 32 59 60 56 59 66 67 51 55 51 50 47 50 60 69 49 41 43 51 48 56 52 52 55 55 52 48 46 45
72 45 32 40 44 49 54 52 56 46 16 11 10 8 12 26 21 51 57 55 53 63 68 51 51 52 50 46 45 55 64 62 46 49 40 46 53 59 50 51 53 55 51 48 48
73 45 35 36 42 46 51 48 51 49 24 13 6 3 15 19 28 33 48 54 47 58 57 54 50 48 49 43 45 49 55 57 56 43 44 36 43 52 58 56 52 54 53 51 51
73 46 34 31 39 44 48 47 46 47 34 19 4 2 9 22 35 35 46 41 44 58 55 50 47 48 49 48 45 50 52 53 49 50 43 39 38 49 55 56 58 56 54 54 53
76 48 34 29 33 39 45 46 42 42 41 23 8 4 5 16 22 38 40 41 46 53 57 40 43 49 50 49 40 33 46 45 40 41 45 37 42 50 52 58 60 58 51 50 54
80 55 33 27 28 36 41 43 40 41 40 30 12 6 10 19 19 38 38 45 44 52 58 46 39 35 44 46 43 37 40 42 42 38 46 38 44 47 51 56 53 52 49 45 50
81 57 33 27 22 31 38 37 38 36 37 33 14 5 13 13 18 40 38 40 34 47 45 46 40 33 41 44 45 38 37 41 40 42 44 43 44 48 52 57 54 45 48 46 47
80 60 31 25 23 25 34 34 37 35 35 34 15 4 13 14 19 43 43 37 26 47 33 32 33 39 42 43 42 40 34 35 38 39 42 47 44 44 45 51 61 60 54 52 54
80 64 35 23 21 23 29 30 34 33 32 35 17 5 8 11 19 42 48 47 39 35 28 36 30 34 41 43 38 39 33 34 35 38 34 39 47 40 38 39 47 48 51 45 42
78 70 36 22 21 22 24 25 31 30 26 32 19 8 7 9 23 41 49 49 42 37 29 32 28 34 42 40 37 36 34 34 32 30 34 33 42 46 44 39 43 33 39 50 46
73 74 39 23 18 16 19 21 24 30 23 26 19 11 6 14 22 39 48 45 31 33 29 30 31 34 38 37 34 32 34 34 33 31 28 26 32 33 37 38 34 37 36 46 50
70 76 38 28 17 13 15 18 18 25 25 24 23 11 17 22 34 32 39 40 35 31 30 27 26 28 33 34 35 34 33 32 31 29 29 32 30 34 21 27 28 34 36 41 47
68 73 40 31 17 10 10 12 14 18 27 22 24 13 14 18 20 12 33 38 32 32 22 26 26 31 33 35 39 39 35 31 32 29 24 22 17 15 18 22 28 32 39 39 43
67 72 46 31 21 10 7 8 10 10 18 21 19 20 18 20 15 16 35 35 30 34 26 25 28 31 31 30 30 33 36 31 30 28 23 20 18 21 24 26 29 32 35 40 40
65 69 52 33 22 12 6 4 5 6 9 13 16 15 15 13 15 11 29 35 24 29 27 24 28 25 23 25 26 27 27 30 29 29 26 23 17 20 23 27 33 34 35 37 43
62 70 66 38 21 14 7 5 4 1 3 7 11 14 14 14 15 15 18 31 22 24 20 21 21 26 27 26 26 29 32 33 32 31 29 24 17 18 22 27 32 38 40 37 36
60 69 70 45 20 14 9 9 9 5 4 2 5 10 13 13 15 17 22 24 21 20 20 21 21 25 23 19 21 26 28 29 31 29 25 25 24 23 26 28 31 33 37 39 38
59 68 70 52 18 13 9 10 11 9 6 6 3 4 9 12 17 20 16 18 22 20 21 23 26 25 24 26 29 31 31 29 30 30 31 36 32 30 25 27 27 31 33 37 36
58 68 70 59 25 12 8 9 14 12 10 8 8 6 6 7 10 14 20 21 20 24 24 27 25 25 27 30 30 33 34 36 39 43 42 39 32 21 19 27 32 32 30 33 36
55 63 68 63 33 15 8 11 12 14 14 13 11 10 10 9 8 10 12 14 20 24 24 26 27 26 25 23 25 25 24 29 35 31 32 19 20 17 21 20 23 31 31 32 35
52 60 65 63 36 21 9 14 14 13 15 16 14 13 13 13 12 10 10 12 14 16 18 21 22 23 25 23 23 26 28 28 29 23 27 21 21 21 24 23 25 21 30 33 35
51 58 62 61 44 24 13 12 16 18 18 15 16 15 15 16 14 12 12 13 13 14 17 20 21 22 21 22 22 19 19 24 24 24 25 26 17 22 20 22 21 24 24 31 36

GFSSW_500_spd_051.txt.gz
Wind_Speed
84 74 54 42 44 46 51 54 60 64 28 16 23 33 39 37 64 59 58 54 56 61 63 61 57 54 51 55 56 52 54 64 56 54 53 55 53 50 53 53 50 48 46 44 42
83 76 54 42 45 47 51 52 57 63 33 16 17 23 31 36 55 62 59 52 59 65 67 60 57 55 53 51 52 55 49 53 62 53 51 52 58 51 52 54 52 49 45 44 43
83 74 55 40 44 47 50 53 54 61 44 16 24 20 25 23 41 63 61 53 57 63 65 61 58 57 53 50 59 43 48 49 55 59 53 51 57 58 52 54 54 50 46 44 42
82 78 53 36 43 46 51 55 54 57 51 21 10 19 23 31 27 57 58 52 33 69 60 64 56 57 55 55 64 44 49 43 38 58 52 48 52 60 59 54 54 52 47 45 42
82 79 52 37 38 44 50 53 54 54 50 23 9 12 18 24 28 49 60 58 43 63 69 61 54 57 55 53 57 51 50 37 42 47 53 45 50 55 60 59 55 54 49 45 44
80 81 58 36 34 40 47 51 52 52 50 25 11 12 12 17 31 38 61 58 42 46 72 48 57 53 55 53 51 51 53 52 38 48 46 44 49 52 57 60 60 56 51 47 44
81 81 57 35 31 37 44 49 49 50 48 28 15 10 11 11 23 36 55 55 54 47 61 49 54 53 55 53 51 47 47 53 45 44 47 42 41 47 52 57 62 57 52 48 46
80 82 56 36 29 34 42 46 48 46 47 33 14 10 5 11 16 25 52 49 43 51 51 53 47 55 53 53 49 48 40 46 59 41 37 41 38 41 52 52 56 62 54 48 47
79 82 59 38 29 31 39 43 45 43 46 36 14 6 2 14 8 18 50 56 51 47 49 58 44 51 54 51 47 47 35 41 45 39 32 36 37 42 56 53 50 53 55 52 48
76 81 59 42 30 28 34 41 43 42 42 39 18 3 3 18 18 23 42 39 47 44 50 46 47 49 55 51 47 46 38 37 42 53 42 31 36 39 46 58 52 51 48 47 48
74 82 64 43 30 28 31 37 42 39 40 40 19 3 4 13 23 28 37 30 28 47 51 33 49 45 52 51 45 42 39 35 42 41 48 52 45 35 38 46 61 58 54 50 45
72 79 70 43 30 27 29 32 38 38 38 37 19 2 10 11 26 43 35 29 34 45 46 35 41 38 44 45 43 41 35 37 37 37 40 47 41 43 37 37 51 57 54 52 53
70 77 72 42 31 27 25 27 33 35 36 35 20 3 10 10 27 41 36 29 32 38 49 38 33 37 39 38 41 39 34 31 35 36 34 41 42 42 37 39 45 51 55 53 53
67 75 75 44 30 24 22 24 30 34 34 33 19 7 4 11 26 39 40 32 40 38 45 50 32 32 32 37 39 36 34 30 31 38 35 39 39 40 38 37 41 47 50 54 57
64 72 73 51 32 23 19 21 26 32 30 32 18 13 4 10 29 37 34 30 32 35 41 47 40 30 26 29 33 32 34 31 29 33 37 38 44 37 39 34 37 39 47 51 47
61 70 74 51 33 22 16 19 23 28 24 27 18 15 7 13 32 41 34 29 31 34 33 21 35 31 31 35 35 30 31 33 29 31 32 33 35 39 34 36 39 38 41 52 52
58 68 77 62 32 21 14 15 17 23 28 25 16 16 12 17 34 42 39 28 31 34 25 28 28 30 33 37 36 32 31 34 33 31 29 27 28 27 24 30 28 38 41 36 37
56 65 75 63 40 19 12 11 14 18 23 22 12 16 22 16 29 40 37 28 29 28 23 29 28 26 31 32 31 34 32 32 32 28 26 26 28 25 19 25 29 25 34 34 35
54 63 73 68 46 17 10 7 10 12 18 19 13 15 16 21 21 28 30 25 29 26 25 26 26 24 28 30 33 35 31 29 26 24 21 18 18 24 21 23 20 25 30 33 32
52 61 69 69 54 22 8 6 5 6 11 16 14 15 18 14 17 18 22 30 19 21 20 25 23 26 27 30 35 33 28 27 26 23 24 21 18 18 22 26 27 28 29 34 35
49 58 65 66 55 26 6 5 3 1 6 10 13 9 10 11 12 18 26 29 20 24 20 23 20 22 23 26 25 26 27 28 28 29 28 26 24 20 21 23 27 29 31 32 33
48 56 63 65 53 32 5 5 6 4 2 4 8 11 12 14 10 14 26 24 25 24 20 19 19 21 19 20 21 22 24 26 29 30 30 30 25 25 22 20 25 29 33 34 35
44 53 61 62 58 35 11 5 8 6 2 1 3 7 6 8 12 12 23 21 24 22 21 19 20 22 23 24 25 25 23 27 29 33 36 36 35 36 22 24 30 32 33 35 38
42 49 58 61 60 35 13 6 9 8 5 3 3 4 9 9 12 16 15 21 22 22 20 22 21 21 23 23 25 24 23 27 30 34 34 34 34 25 32 30 31 35 35 34 38
38 46 53 58 57 39 16 7 9 13 10 7 6 5 8 10 11 13 16 18 20 21 20 20 21 22 24 26 26 27 26 29 32 34 38 30 34 30 28 31 32 31 31 34 34
36 43 50 53 55 38 21 3 11 12 15 12 10 9 9 10 11 12 13 15 18 20 21 21 22 25 29 28 26 24 23 26 27 25 25 23 28 21 23 27 28 26 27 27 30
34 39 47 51 51 42 23 15 10 14 14 15 13 13 12 12 12 11 11 12 15 18 19 19 21 22 23 25 25 22 22 23 26 25 27 28 20 24 21 22 23 24 23 21 24

GFSSW_500_spd_054.txt.gz
Wind_Speed
69 77 80 66 52 36 34 40 46 49 51 55 31 16 26 33 42 56 58 57 61 62 62 63 58 57 55 54 54 51 52 59 48 52 56 60 58 53 53 53 51 51 50 48 46
69 77 80 64 50 36 34 41 47 50 50 52 36 18 24 32 35 45 58 57 58 61 61 64 60 58 54 54 54 58 51 51 55 54 54 58 59 59 52 52 52 50 50 49 48
69 76 80 67 50 37 34 40 46 49 51 51 41 16 21 33 38 39 58 59 41 60 58 63 61 61 60 54 54 55 50 45 60 50 55 57 58 56 60 52 53 51 49 49 49
69 76 81 65 48 34 33 40 45 50 50 51 37 10 19 24 34 36 45 62 42 53 60 60 60 64 59 52 53 55 51 51 54 62 50 56 53 55 58 61 52 52 51 50 49
68 76 82 64 48 32 32 39 43 48 46 49 36 13 13 18 28 34 43 63 44 40 53 55 52 64 60 60 49 52 55 53 51 52 61 52 52 48 53 60 60 52 51 51 50
67 75 80 63 47 31 31 37 42 46 43 45 33 18 11 14 25 36 42 59 53 44 44 54 53 61 61 59 53 52 54 50 49 46 55 65 56 52 44 51 62 59 51 51 51
65 73 80 65 45 32 31 35 40 44 41 44 33 13 12 13 14 33 35 61 47 37 34 49 54 60 59 57 55 53 54 60 53 49 45 43 60 54 47 46 52 61 60 50 51
64 70 80 69 47 32 31 34 38 42 40 42 31 11 11 6 10 28 35 55 49 39 39 50 51 57 57 58 56 46 46 57 38 46 39 45 48 56 47 49 51 53 61 58 48
62 69 78 65 49 32 30 34 35 40 39 41 28 9 6 4 7 21 37 52 60 43 39 56 46 61 51 55 56 48 40 43 38 39 42 38 42 56 52 49 49 54 56 59 54
59 68 76 71 50 34 31 31 34 38 38 39 26 10 4 8 4 18 43 41 47 43 46 48 45 50 52 52 55 51 45 34 37 40 39 34 42 45 42 45 50 51 54 54 57
57 66 74 74 50 33 28 29 33 35 36 38 25 10 5 11 9 46 45 36 40 43 42 51 34 39 57 49 50 49 45 42 34 36 48 38 35 45 45 36 48 50 50 49 49
55 65 74 79 50 33 27 27 31 32 33 31 22 8 4 10 16 47 43 39 39 43 47 50 39 37 45 52 45 45 42 39 37 29 31 40 43 34 39 42 41 50 49 49 46
53 64 72 77 50 33 25 26 30 32 31 29 22 6 8 13 24 39 41 29 38 37 44 43 43 35 35 45 48 44 40 36 34 32 30 33 45 43 36 32 38 38 57 52 48
52 61 70 76 53 34 24 22 27 30 30 26 20 7 9 23 40 37 34 28 26 39 45 31 31 36 35 35 43 41 38 33 30 34 35 36 41 47 46 35 33 35 41 54 58
50 59 69 75 63 32 21 20 24 28 29 24 22 11 14 30 33 28 33 34 34 37 41 35 27 39 34 27 37 35 35 32 27 25 28 33 36 38 37 40 40 39 40 41 53
47 58 65 72 62 31 17 18 21 25 25 21 23 11 15 32 34 24 27 32 34 41 46 35 29 31 32 28 30 34 29 30 29 28 25 26 29 32 33 34 40 43 39 41 45
43 54 63 71 64 38 15 15 17 22 26 21 24 16 20 34 35 22 21 26 34 44 47 34 35 31 28 28 27 30 31 30 31 30 28 22 29 28 29 36 37 45 38 38 41
42 52 60 68 66 41 13 11 14 18 21 19 25 20 20 36 30 27 23 24 28 32 36 21 35 29 25 28 26 30 31 31 33 30 26 21 26 22 26 26 33 34 36 36 41
39 48 57 65 65 46 13 8 11 14 18 18 19 24 26 42 36 29 29 26 35 23 22 22 29 29 28 25 28 30 29 30 30 30 25 22 22 22 23 23 18 30 31 37 37
36 45 53 62 62 48 16 5 6 9 15 15 16 20 20 32 27 25 30 34 26 28 24 27 27 30 27 25 27 29 31 29 26 25 23 22 20 20 23 28 25 21 25 32 33
33 41 51 58 59 50 22 2 1 4 10 12 9 12 17 17 19 29 26 23 22 24 23 25 24 21 24 30 31 27 28 28 26 26 24 22 21 19 18 19 23 26 27 27 29
30 38 48 55 57 51 28 7 3 1 4 9 12 9 15 15 17 24 26 19 24 18 21 23 19 18 19 19 22 24 27 27 28 28 27 27 25 23 24 23 22 22 24 27 29
28 35 43 52 56 50 34 5 4 5 4 5 8 8 7 10 15 19 25 20 21 20 17 22 17 20 20 21 24 23 22 26 28 27 27 28 32 28 26 21 22 23 24 26 30
26 33 39 46 50 49 34 11 6 8 5 6 5 4 7 9 11 17 25 24 21 22 19 18 17 18 20 19 20 21 23 26 29 31 27 31 28 25 24 26 31 33 31 28 30
24 31 31 42 46 46 34 14 7 11 9 6 6 6 6 9 11 13 28 27 26 25 21 20 19 20 20 20 22 23 24 25 26 23 30 24 28 26 28 29 36 39 38 39 36
23 28 29 38 42 45 35 21 5 12 13 11 8 8 7 6 9 12 15 20 20 21 23 20 19 20 24 26 26 26 23 24 28 29 32 30 27 25 32 31 31 36 38 41 36
21 24 26 32 36 40 38 26 4 13 14 15 12 10 9 9 10 10 12 13 16 19 22 24 23 24 25 25 27 28 27 29 28 29 32 30 26 23 22 24 26 26 29 25 22

GFSSW_500_spd_057.txt.gz
Wind_Speed
54 59 66 72 75 66 55 38 32 35 41 47 47 50 36 22 43 32 25 59 62 62 63 61 58 57 59 56 57 59 57 54 57 57 59 61 58 58 53 52 52 51 46 42 38
53 58 66 73 76 70 52 38 32 35 40 47 46 49 31 22 47 35 30 50 58 60 63 60 60 60 61 55 56 61 64 56 53 57 62 55 57 59 59 51 53 54 51 47 46
53 57 66 75 73 65 52 40 33 36 39 46 47 48 27 23 36 48 33 42 59 42 63 63 63 61 63 57 55 56 58 59 56 53 54 52 55 57 58 61 54 53 53 51 50
53 58 66 74 75 68 51 37 33 36 41 44 46 45 27 19 27 31 40 40 60 48 64 63 60 63 62 59 50 52 56 56 64 55 55 56 54 59 61 59 57 51 52 53 53
52 57 66 74 76 70 52 37 35 36 40 43 44 40 24 15 32 33 35 43 62 38 51 59 55 59 64 60 57 54 55 52 57 53 59 53 56 55 58 57 60 51 50 52 54
50 57 65 74 75 71 50 36 33 36 39 40 42 36 18 14 16 35 37 40 59 40 50 58 53 57 64 64 59 58 55 57 54 43 48 59 54 57 54 58 57 63 51 51 53
48 56 65 73 76 66 45 35 33 35 39 39 41 30 14 11 14 25 35 37 59 41 37 51 55 52 61 71 54 47 51 49 57 56 47 62 55 57 50 51 56 57 63 51 51
47 56 64 73 75 66 46 34 33 35 38 39 38 23 12 10 11 17 32 40 62 38 33 43 49 48 56 66 50 50 46 46 57 50 50 49 56 53 49 48 47 55 59 61 52
46 55 63 73 75 66 45 33 33 35 37 40 35 19 11 2 3 18 35 48 60 42 40 38 43 46 50 54 58 62 44 38 53 52 50 47 46 51 57 50 46 42 48 53 60
44 54 63 71 76 63 43 31 32 35 35 36 30 16 4 3 4 13 37 53 50 44 39 32 50 49 50 43 62 53 44 39 42 51 48 50 46 46 54 60 50 46 44 50 50
43 53 62 70 75 65 42 29 31 35 33 34 27 13 4 5 4 21 37 48 53 46 39 36 38 38 47 41 54 50 46 41 39 39 49 42 47 45 45 54 60 50 49 43 50
42 52 61 68 74 63 37 27 29 32 33 30 22 10 1 2 13 27 41 48 51 53 54 26 32 33 41 47 51 55 48 46 33 32 42 36 28 34 37 41 52 55 47 51 48
40 50 59 66 72 59 37 26 28 33 31 29 21 5 4 2 14 30 23 38 48 51 47 31 24 33 34 46 46 54 48 43 37 30 25 34 30 36 28 41 43 44 41 51 54
39 48 56 64 71 62 33 22 26 31 30 29 17 1 3 9 17 33 27 31 39 40 41 41 25 29 25 39 42 43 40 38 36 33 27 24 26 33 38 31 41 42 43 40 51
36 46 54 62 70 60 33 21 24 29 26 28 17 5 4 13 28 19 24 31 35 36 43 32 30 29 29 29 43 40 33 31 28 28 29 28 26 23 30 38 36 37 40 43 39
33 43 52 59 68 62 27 18 22 25 23 22 16 6 8 27 26 18 21 24 33 39 33 33 25 26 25 26 30 40 39 29 25 24 27 28 30 29 28 31 37 45 40 38 41
30 40 48 56 65 61 30 16 18 23 22 24 16 14 22 38 20 22 23 23 34 43 22 29 26 24 27 23 19 25 35 30 31 30 29 26 24 30 32 29 30 34 46 46 40
27 36 44 51 62 59 32 14 14 18 21 21 12 21 24 22 25 25 27 24 30 41 33 28 32 25 29 27 20 23 28 30 32 31 31 27 26 25 21 23 30 35 35 38 43
25 32 40 49 58 57 39 13 11 16 19 18 10 23 24 17 20 22 22 28 32 38 39 27 27 25 27 27 25 23 28 33 33 33 31 28 25 21 19 22 25 30 36 38 39
22 28 37 46 52 53 40 13 8 12 17 17 11 26 25 23 23 19 21 26 26 32 36 23 23 28 21 24 24 22 25 29 29 27 25 27 26 21 19 22 22 26 23 31 36
19 25 34 43 49 50 42 17 3 7 13 14 16 26 25 23 23 20 20 26 24 24 28 19 25 25 21 21 21 24 25 27 28 26 22 23 19 18 18 20 22 26 30 27 26
17 22 31 38 46 49 45 21 5 3 7 12 15 16 20 17 18 21 23 19 19 19 17 21 22 22 23 22 22 24 27 27 27 24 24 23 24 19 20 21 20 19 22 28 29
14 19 28 34 44 47 44 26 3 2 4 7 13 10 12 18 18 22 23 22 20 18 22 23 20 18 20 22 21 21 23 22 24 26 26 26 27 28 26 25 22 24 25 28 29
11 16 25 32 39 44 43 31 6 6 4 5 5 7 9 11 22 22 17 23 17 16 16 19 16 15 19 18 15 17 19 21 26 29 26 28 26 27 23 25 26 29 34 31 31
10 15 21 27 35 40 42 36 14 8 8 6 6 6 8 10 14 25 23 18 16 16 15 16 16 16 17 17 17 18 20 23 25 20 26 23 27 25 25 29 31 34 36 36 37
7 12 17 23 30 35 39 36 20 8 12 9 8 8 7 9 11 14 28 27 21 19 19 19 19 18 19 20 20 19 22 25 25 23 28 28 27 28 29 29 31 34 35 31 31
5 9 13 15 25 29 35 37 26 8 12 14 11 9 9 8 9 12 21 22 24 24 25 24 23 22 21 22 23 25 25 27 29 29 31 33 35 33 32 29 27 29 35 36 35

GFSSW_500_spd_060.txt.gz
Wind_Speed
50 48 51 54 63 71 75 65 55 42 34 32 36 41 45 47 41 20 30 27 36 55 60 60 59 60 62 60 49 55 62 64 60 58 56 55 53 50 55 50 47 49 45 43 42
49 48 50 55 63 70 76 65 55 40 33 33 37 42 45 47 33 40 28 30 34 51 59 57 62 58 62 59 61 58 54 59 57 58 61 53 55 53 53 54 50 53 51 46 43
47 49 49 55 64 71 76 66 51 37 32 33 37 43 46 43 29 41 31 29 27 48 55 56 61 61 58 61 55 58 55 46 58 59 58 55 54 51 49 53 60 53 52 48 43
46 48 48 56 66 73 78 64 47 35 32 33 37 42 46 41 20 23 44 28 28 47 43 53 60 63 61 62 59 50 60 49 55 56 54 53 53 55 56 57 48 55 53 51 48
44 45 49 57 66 73 77 65 43 34 32 34 39 42 44 36 18 28 49 35 34 49 40 59 58 58 58 58 57 60 56 48 50 47 53 53 55 55 53 54 54 55 54 53 52
43 44 49 59 68 73 76 64 39 32 32 36 38 43 41 30 12 29 34 36 38 53 39 52 47 54 56 58 57 52 50 58 55 51 48 45 54 54 53 50 56 47 59 52 53
44 43 49 60 68 73 76 59 37 33 34 38 39 41 37 16 14 15 29 32 39 57 45 45 51 56 56 52 55 52 46 49 59 42 60 53 37 41 53 50 54 56 52 59 53
44 44 50 60 67 72 75 57 36 32 35 38 38 39 24 15 12 17 27 30 43 60 34 38 52 54 51 54 42 55 61 40 47 48 53 66 51 47 53 53 46 49 51 50 59
43 42 50 60 66 71 73 51 34 32 36 37 37 32 17 2 6 15 24 32 40 51 34 41 51 51 52 49 51 52 46 49 37 62 27 51 46 51 52 48 46 47 53 55 53
39 40 50 58 66 71 70 48 34 32 36 35 36 26 9 6 13 7 25 31 44 56 39 46 40 49 45 46 51 49 51 55 50 52 56 46 54 43 39 43 46 46 45 48 53
38 39 49 58 64 70 67 41 33 33 36 35 33 19 5 9 9 6 30 36 47 38 35 37 47 48 47 28 44 52 49 38 43 22 45 51 48 46 45 44 49 45 45 44 43
36 37 47 56 62 69 66 41 29 30 35 34 28 13 4 10 2 15 36 41 52 42 36 36 37 33 41 36 45 47 42 40 39 26 36 51 50 45 42 40 41 50 48 46 42
34 35 46 54 61 67 60 39 28 32 33 33 25 7 7 7 4 21 35 37 48 35 29 28 44 41 41 39 41 36 42 32 32 26 27 38 46 41 41 43 44 45 44 51 48
32 33 42 50 59 67 55 36 27 32 33 32 19 5 6 8 9 27 28 37 28 31 28 29 42 42 37 37 39 35 35 47 37 26 21 25 28 42 27 34 37 41 46 44 49
30 30 40 47 56 65 57 34 25 30 30 30 14 7 6 9 22 11 34 31 35 39 34 35 34 27 32 40 37 32 35 24 36 36 29 20 21 23 30 41 29 27 35 37 45
28 28 37 45 54 62 54 31 25 29 28 25 11 10 15 15 17 23 27 28 33 31 27 31 29 24 23 30 35 35 34 44 38 34 32 27 24 21 23 20 22 27 30 34 38
25 25 34 43 51 58 54 29 22 26 29 19 10 10 22 19 15 15 29 27 27 31 29 32 32 24 21 19 26 32 32 35 31 33 33 29 28 29 28 24 22 22 24 27 36
20 22 31 39 46 55 53 30 20 23 25 12 9 21 20 9 15 17 24 32 30 32 26 22 26 21 21 19 18 26 32 33 38 37 30 26 26 25 24 20 22 25 27 28 33
16 19 29 34 42 53 49 28 22 20 21 12 18 24 17 14 14 9 19 28 30 27 24 28 24 16 19 20 17 19 26 29 33 37 35 28 27 27 19 16 16 21 25 28 32
11 16 25 31 39 49 48 32 17 16 19 12 18 14 14 17 14 12 17 25 36 27 26 25 28 21 20 22 18 16 19 23 27 28 27 25 18 19 18 17 16 20 23 25 28
7 13 22 29 35 46 45 32 15 11 16 9 20 13 17 16 19 17 18 21 26 31 23 23 19 20 21 23 21 20 17 21 26 27 20 15 21 20 18 16 19 20 22 23 24
4 10 20 23 31 43 43 34 18 8 11 6 14 15 12 12 12 14 22 20 21 26 32 25 18 23 23 18 20 21 20 20 22 24 22 22 21 18 15 15 17 18 20 24 27
2 7 14 22 27 39 40 36 22 5 5 9 11 16 11 10 8 19 19 20 20 20 22 22 19 23 20 16 18 17 16 18 18 22 24 24 23 23 19 19 20 21 24 28 26
3 5 11 20 22 34 38 36 28 7 0 2 3 8 17 13 11 15 16 15 14 14 14 15 15 16 15 13 13 13 16 18 21 22 19 22 23 21 20 23 28 30 30 30 27
5 4 7 17 20 27 36 35 33 12 4 3 2 4 6 15 18 16 16 15 14 13 13 14 15 13 12 13 15 16 18 21 23 18 24 19 22 22 24 25 26 25 25 28 29
7 3 4 8 18 22 30 33 33 23 5 6 4 3 4 7 18 24 18 17 17 13 12 12 15 14 11 12 12 14 16 18 18 19 22 21 22 24 24 22 23 25 28 30 31
9 5 2 4 15 19 25 27 31 25 11 8 7 4 5 5 9 21 27 22 20 15 14 14 14 14 12 14 15 18 17 18 19 20 23 25 27 25 26 27 30 34 34 34 34

GFSSW_500_spd_063.txt.gz
Wind_Speed
42 44 45 47 45 51 61 68 72 74 66 43 32 29 31 33 38 43 42 18 22 33 40 54 61 62 64 66 63 58 61 62 58 61 56 53 54 49 52 51 56 53 46 42 47
42 44 44 45 44 54 64 71 73 74 60 40 30 28 30 35 39 39 17 33 22 19 38 51 59 61 63 62 67 54 60 61 56 59 58 52 50 54 53 52 47 51 47 46 42
42 43 42 44 45 56 65 71 74 71 53 35 29 30 33 37 40 35 22 25 31 29 36 50 56 61 62 62 66 61 52 57 58 56 57 55 55 54 51 51 45 46 49 47 43
43 42 41 44 47 58 66 71 74 67 47 34 31 33 36 40 40 29 33 31 34 32 28 47 56 59 62 61 66 69 51 51 54 57 57 58 56 54 51 52 50 45 50 45 49
43 42 42 45 49 58 67 71 73 63 44 33 32 36 38 40 37 22 33 39 36 42 32 49 59 56 58 59 65 52 49 49 52 56 57 57 58 56 52 47 47 50 46 51 48
41 43 44 43 50 60 67 71 72 59 41 33 35 38 39 41 31 16 24 46 35 38 43 40 58 54 57 58 65 56 39 55 46 50 58 59 59 57 53 49 47 42 45 50 49
42 42 39 41 52 61 68 72 69 53 39 34 37 39 39 35 23 14 18 42 42 29 39 43 45 48 54 57 64 56 46 48 39 54 54 60 57 58 53 52 47 43 41 47 50
40 40 38 40 52 61 68 71 66 48 37 36 38 39 35 23 9 10 18 27 43 37 48 42 45 48 44 50 62 57 46 44 52 52 47 46 50 52 51 50 48 47 44 46 51
39 39 39 41 51 61 69 70 61 44 36 36 36 37 26 9 8 12 13 23 37 40 58 35 45 43 44 47 51 53 55 51 52 40 38 51 50 40 44 49 51 50 47 44 49
38 39 38 42 51 60 67 68 57 43 36 36 37 31 15 9 14 9 10 25 39 43 54 38 49 42 47 44 46 48 49 46 49 61 32 33 50 46 39 34 36 42 45 45 47
37 36 36 42 51 60 65 65 50 38 36 36 36 19 10 16 13 8 11 29 42 40 41 35 47 40 39 41 40 28 42 46 49 27 39 42 36 43 51 50 37 46 45 44 42
36 35 35 42 50 59 63 62 45 34 36 38 32 14 14 14 10 5 22 27 41 41 41 33 42 41 39 40 36 37 36 47 49 37 22 46 37 33 46 45 37 30 30 38 42
34 32 33 42 49 56 60 60 40 32 34 38 23 14 15 15 13 15 29 26 35 36 33 39 29 41 40 35 35 36 38 36 38 37 32 19 47 53 38 45 40 34 36 38 38
31 30 32 40 47 53 60 55 37 31 34 31 19 15 14 15 12 23 25 27 31 31 27 31 29 32 32 33 30 33 38 40 29 32 38 30 25 37 45 44 41 44 39 38 36
29 28 31 39 46 51 57 51 36 31 34 26 18 15 25 21 11 15 29 32 22 21 27 34 35 25 32 38 32 25 37 36 25 30 29 28 26 30 41 42 36 38 41 43 42
28 25 29 36 42 48 56 47 34 28 26 21 10 14 19 15 14 26 21 24 21 28 27 37 39 32 28 32 30 28 24 24 37 29 24 20 16 18 22 33 39 38 33 34 30
26 23 26 33 38 44 54 43 27 25 22 19 13 9 15 12 14 22 25 22 23 26 32 38 31 24 33 31 29 26 25 26 33 33 32 26 18 20 21 22 19 18 20 24 28
23 19 23 29 34 40 52 41 25 24 17 14 17 14 13 15 12 16 15 18 30 29 30 30 29 25 26 30 32 34 30 34 26 25 25 28 32 25 23 21 23 23 21 21 23
19 14 20 25 31 37 47 41 23 22 14 18 14 8 9 13 11 18 14 11 21 26 26 33 26 21 15 16 25 32 31 27 25 27 28 28 27 25 24 23 21 22 26 29 29
14 12 16 20 27 35 42 39 17 20 13 13 12 11 14 7 11 12 15 14 21 18 20 28 22 15 15 15 15 17 24 27 26 28 29 27 28 26 21 19 21 19 19 21 22
13 11 12 17 23 31 39 36 19 16 16 13 7 6 10 17 10 12 19 17 19 15 19 22 14 14 17 21 19 16 18 23 28 29 26 31 31 30 25 23 26 24 20 19 18
14 10 7 13 20 26 37 34 28 13 15 10 8 7 8 16 13 17 17 19 22 17 16 17 23 15 13 19 20 17 17 19 21 23 23 24 25 23 24 26 26 24 22 20 20
16 7 4 11 16 21 31 32 26 12 11 13 14 4 5 11 12 12 21 19 22 22 17 18 15 11 13 16 15 15 16 16 17 22 25 23 21 20 19 21 24 26 22 19 18
17 9 1 9 15 17 27 29 30 20 9 9 6 9 7 4 8 17 18 18 16 21 21 22 22 15 16 18 12 14 15 16 18 19 20 22 23 24 24 23 23 23 21 20 21
18 12 6 9 11 15 22 27 30 25 14 5 5 5 1 7 7 13 16 17 16 14 15 15 18 14 15 14 13 15 16 18 18 17 21 20 25 27 25 23 22 20 18 21 24
19 14 10 8 12 15 18 23 26 28 19 5 4 3 3 6 12 13 11 10 10 10 12 14 14 13 9 9 10 10 12 12 12 16 18 19 22 26 24 18 16 19 21 22 23
21 16 13 11 10 12 15 19 23 26 24 12 2 2 1 2 8 16 15 11 11 9 8 7 8 8 8 8 9 9 11 11 11 13 14 14 16 17 18 22 25 25 26 28 30

GFSSW_500_spd_066.txt.gz
Wind_Speed
39 40 42 43 41 39 44 45 54 62 68 72 71 58 40 28 27 29 34 39 48 48 43 36 46 56 56 65 64 53 64 66 63 63 57 54 55 58 51 51 52 51 56 63 48
39 40 42 42 43 40 45 50 56 64 70 74 67 51 33 28 28 33 37 38 25 16 18 21 45 61 58 65 69 55 68 58 59 58 57 55 56 53 54 52 47 48 51 47 42
39 41 42 43 42 42 44 52 59 66 72 72 61 43 32 30 30 36 36 37 18 16 22 22 40 60 60 68 67 65 72 49 61 59 58 59 57 55 55 51 52 45 48 49 43
39 42 42 43 40 41 45 54 61 69 74 69 53 40 32 32 37 38 40 29 30 28 22 27 43 56 62 68 76 50 68 52 58 57 58 59 57 56 53 50 52 52 39 42 49
39 40 42 42 38 41 48 57 63 69 72 63 47 37 36 38 40 43 38 22 39 28 26 29 46 52 58 62 67 59 66 44 58 56 55 59 58 54 56 50 46 46 44 42 40
39 41 41 41 39 42 51 59 64 71 68 56 43 38 40 42 42 38 30 21 45 36 27 31 43 53 54 64 57 62 63 52 47 57 56 56 59 58 55 54 47 40 41 45 40
41 41 41 40 41 44 52 60 66 70 64 49 41 40 41 42 35 22 14 15 47 44 40 30 45 53 54 65 54 45 57 49 42 53 58 55 54 60 56 53 49 42 38 40 40
41 40 41 40 42 47 54 60 66 66 58 46 41 41 41 32 14 7 13 16 45 48 34 30 44 51 52 63 65 48 59 65 42 55 51 58 56 57 60 53 51 45 41 38 35
40 41 41 40 42 48 55 61 66 62 50 46 42 40 29 14 12 13 16 13 40 37 34 37 40 49 52 55 63 52 55 45 45 48 53 47 56 61 60 58 52 48 44 42 43
35 40 38 40 43 49 54 60 63 55 47 42 41 32 18 16 14 11 11 13 37 37 39 37 36 50 44 49 59 52 56 58 33 53 52 48 49 55 63 63 56 51 48 46 45
33 38 36 40 45 48 54 59 57 49 44 41 34 22 14 13 17 14 5 17 40 40 44 43 35 49 45 37 50 52 51 34 40 45 41 48 42 40 52 51 51 48 45 45 47
31 38 33 39 45 48 53 57 50 47 40 34 27 15 13 11 17 7 5 27 37 36 40 36 36 46 33 37 47 51 56 54 41 41 32 27 34 42 39 45 49 46 40 37 39
31 35 31 39 45 46 51 54 45 38 35 29 19 14 15 9 9 8 18 29 36 34 50 31 48 37 41 39 35 36 39 41 45 34 37 21 22 31 46 39 40 36 34 30 30
28 31 31 38 41 44 49 48 44 34 28 20 19 24 23 25 21 21 23 24 30 29 38 34 52 32 36 38 29 28 32 32 38 35 35 25 21 35 29 39 42 46 46 38 31
35 27 31 35 39 42 46 44 39 30 22 13 14 15 16 14 16 23 23 25 26 34 26 33 44 29 38 30 32 24 21 21 22 31 32 25 20 34 33 29 27 28 36 37 34
39 23 29 33 36 38 42 43 32 24 15 9 16 14 16 22 18 23 22 20 28 25 26 26 26 27 27 29 24 15 22 24 20 22 24 25 27 28 28 29 30 35 39 37 39
28 23 28 30 32 35 37 39 25 19 16 8 8 15 11 18 13 10 16 21 25 26 30 33 28 23 34 30 28 16 20 27 24 24 23 23 22 20 20 20 27 34 35 36 37
19 24 27 25 27 31 34 34 24 17 18 14 8 11 9 13 19 13 14 19 19 26 35 30 24 29 33 34 32 23 20 24 26 34 22 22 23 20 15 14 15 18 25 26 24
17 22 24 21 23 26 31 30 19 15 16 15 10 11 13 13 8 11 15 24 22 23 32 28 22 24 26 25 25 25 20 27 29 31 27 26 26 20 18 17 18 20 23 22 22
17 24 17 16 18 21 28 26 18 13 12 13 12 12 16 11 6 6 10 22 21 25 27 22 21 25 22 23 23 24 27 28 27 23 22 22 24 25 25 24 24 26 26 28 29
16 22 14 10 11 18 25 23 18 12 10 13 11 9 14 13 9 7 7 11 18 23 29 23 19 15 16 16 21 29 32 31 27 26 27 27 27 27 28 28 29 27 25 25 24
20 19 13 4 8 16 22 23 19 14 14 14 13 11 11 14 5 7 9 9 13 19 16 18 11 8 9 13 13 15 19 26 28 25 23 25 26 26 29 32 31 28 29 27 29
22 18 12 3 6 13 20 23 17 15 18 16 14 15 11 13 6 8 13 10 9 9 10 13 13 9 5 7 13 15 13 15 18 20 23 26 28 31 35 33 34 33 32 29 28
26 19 13 7 9 10 18 22 20 15 16 16 12 12 11 16 13 16 14 13 13 12 6 6 12 10 3 6 10 10 13 15 16 19 22 25 24 24 24 26 28 29 30 28 26
26 22 14 11 12 10 16 20 21 18 16 15 14 11 10 7 9 14 18 16 14 17 18 18 19 19 15 13 14 13 14 16 16 18 20 26 28 28 27 27 28 26 25 27 29
27 23 17 14 15 11 15 19 22 25 18 13 14 13 13 11 13 13 15 20 15 13 14 16 16 14 11 12 14 14 15 18 16 20 23 24 27 31 30 28 24 22 26 29 30
31 24 19 18 17 12 14 16 21 26 23 15 14 11 12 12 12 12 11 11 11 10 10 9 10 11 11 10 10 11 12 13 13 14 14 19 22 23 20 21 23 26 28 26 26

GFSSW_500_spd_069.txt.gz
Wind_Speed
42 40 41 43 42 42 43 43 41 43 46 55 61 64 67 70 60 44 34 34 34 37 41 46 47 50 54 55 54 53 67 67 60 56 57 60 61 60 54 62 53 43 57 60 51
39 40 40 41 42 42 41 42 41 45 50 58 63 67 68 65 49 38 35 36 37 41 46 48 56 62 64 62 61 64 63 60 48 57 56 57 59 55 53 54 60 38 53 61 63
38 39 39 40 41 41 43 43 44 47 53 59 65 67 66 57 42 38 39 39 40 44 43 35 34 37 58 54 65 64 58 62 43 53 61 58 52 56 51 52 57 43 46 63 62
38 39 40 40 40 42 43 44 47 52 57 62 66 67 60 51 42 42 44 44 43 42 31 29 14 16 44 51 50 57 56 65 50 61 49 57 51 56 54 48 47 57 49 46 47
43 38 39 39 40 42 44 47 50 54 60 64 66 64 57 47 45 46 47 48 44 31 30 30 22 13 36 47 57 50 52 55 48 53 53 55 53 52 56 51 46 46 43 48 39
46 43 37 38 40 42 45 50 53 57 61 64 64 60 53 51 47 46 43 37 29 23 36 31 28 31 42 31 52 49 57 55 38 54 55 57 57 52 53 51 47 48 48 49 41
46 49 37 35 39 42 47 50 54 58 62 63 61 57 53 49 43 32 23 15 16 26 35 31 33 33 40 37 48 56 52 57 51 54 53 57 58 58 53 52 49 46 43 37 35
46 48 53 40 38 42 48 51 55 59 61 61 56 53 49 42 25 19 17 16 15 34 33 33 35 47 23 40 51 62 43 33 63 60 53 55 59 57 58 54 52 49 42 36 32
47 48 53 50 41 46 49 51 56 58 60 54 54 49 41 27 21 18 16 18 15 36 44 30 32 38 25 43 54 73 39 44 57 57 50 54 55 57 57 55 49 46 45 40 35
43 46 51 57 43 47 48 52 55 56 53 51 48 43 30 19 15 16 15 13 13 35 39 35 37 39 37 48 55 54 26 32 64 48 39 43 57 56 54 56 54 47 46 45 41
45 44 48 58 51 49 47 52 54 52 49 48 42 31 22 18 17 17 19 9 17 31 33 36 32 39 43 48 56 50 24 37 49 50 40 35 51 57 54 55 55 52 50 47 44
46 49 52 57 53 49 46 49 53 51 43 39 25 25 23 17 15 17 6 6 30 32 28 34 26 35 43 42 42 54 42 32 40 32 49 43 42 45 52 54 53 55 54 49 46
51 50 52 53 58 52 44 47 50 41 38 27 22 20 21 19 14 9 6 19 34 34 27 25 25 34 33 33 35 36 42 28 28 56 19 33 44 37 37 54 55 53 54 53 46
48 49 47 50 54 50 41 44 44 35 28 18 17 19 14 15 16 14 13 22 29 30 23 30 28 38 37 15 24 31 37 41 34 35 33 27 31 36 40 44 45 46 47 48 44
52 49 46 53 57 48 38 41 38 32 21 16 13 15 11 15 19 19 22 26 23 31 29 28 35 32 23 26 29 25 32 29 35 39 27 18 22 19 26 37 33 35 39 42 41
51 51 43 53 53 41 34 37 33 22 14 7 11 12 11 18 20 23 16 18 18 18 28 31 40 21 23 23 28 22 20 11 11 28 31 26 19 18 25 25 35 32 34 36 39
51 46 43 50 51 37 31 32 24 13 10 3 6 11 9 13 22 13 10 14 19 22 25 35 39 17 24 23 22 17 20 19 17 20 23 21 21 16 24 28 28 24 26 32 32
46 44 44 46 41 26 28 26 15 8 4 5 8 13 11 11 16 11 13 15 17 21 23 24 31 12 20 23 20 13 10 14 16 14 17 23 21 21 21 24 27 29 31 35 36
42 44 43 46 28 22 24 21 7 3 8 9 12 16 10 12 14 15 13 16 17 27 30 24 25 22 25 22 18 14 7 13 18 15 19 21 21 22 24 28 29 28 30 31 30
35 42 44 36 22 19 19 13 4 7 9 10 11 16 9 11 10 11 14 15 19 27 21 14 19 18 28 23 16 13 11 16 13 19 23 20 20 23 21 18 17 18 20 21 23
35 39 42 20 16 16 14 6 4 11 9 11 12 18 13 8 10 15 13 15 23 22 18 11 15 23 19 18 17 17 17 17 17 17 21 20 19 23 26 24 22 21 23 26 28
27 33 26 17 11 11 5 4 7 15 11 11 15 17 13 9 7 19 19 18 21 21 17 16 16 10 9 11 16 21 22 23 23 20 17 19 20 24 27 26 25 25 28 31 32
32 32 18 15 10 7 5 9 13 16 14 14 14 15 13 10 9 11 11 16 15 13 17 13 7 10 9 7 8 9 14 22 27 27 26 25 24 25 27 28 29 30 30 32 33
27 33 17 15 10 4 9 15 15 16 19 17 14 13 17 14 9 12 9 7 10 13 10 5 8 8 5 2 7 12 13 12 14 17 25 29 28 28 29 30 31 32 33 34 35
28 20 19 15 12 10 12 19 19 17 19 17 17 15 15 16 11 9 11 12 6 6 6 3 5 7 9 7 6 7 7 11 13 14 18 21 24 26 28 30 31 33 37 38 39
26 20 22 18 14 14 17 20 23 21 20 18 17 17 14 12 13 16 16 13 10 8 9 13 14 16 13 10 9 11 9 10 12 16 17 18 21 25 27 29 31 32 35 35 34
25 24 23 19 20 19 19 21 21 24 23 19 17 18 18 16 14 12 13 15 15 13 12 11 12 11 10 8 8 9 11 13 15 17 18 19 21 25 26 27 27 29 32 35 39

GFSSW_500_spd_072.txt.gz
Wind_Speed
38 40 42 40 39 40 40 41 41 42 45 46 48 49 52 56 59 62 64 61 52 44 39 36 40 49 51 49 45 42 51 56 61 63 51 51 53 60 63 59 61 64 49 47 61
37 37 41 40 39 39 40 40 41 42 45 49 51 50 53 58 60 63 60 59 51 41 38 38 41 49 53 52 51 54 53 50 54 55 49 55 55 54 62 61 62 58 57 55 51
38 38 39 42 42 40 39 40 39 42 46 51 52 52 56 60 62 59 61 57 50 45 41 43 47 50 51 57 58 57 55 47 48 48 47 62 52 52 61 60 59 51 49 53 51
43 40 41 42 45 45 38 39 41 44 49 51 53 54 57 62 60 62 61 57 50 46 44 46 48 49 51 57 60 65 54 56 42 51 47 61 47 58 61 60 49 47 47 61 55
43 44 44 43 45 51 44 39 39 46 49 52 55 57 60 63 59 63 57 55 50 42 45 45 43 40 34 37 53 67 65 61 50 43 60 61 49 52 63 61 47 37 51 60 43
42 43 46 45 44 50 52 50 42 50 49 52 56 59 62 62 58 57 55 47 37 35 34 31 29 27 31 20 38 40 54 62 51 41 45 57 49 49 59 54 45 29 38 56 58
46 44 44 47 44 47 52 62 47 53 51 52 57 60 62 59 57 52 43 35 27 24 19 24 31 31 27 12 30 28 46 54 50 47 54 41 59 46 53 47 48 47 44 50 51
45 47 44 46 45 46 52 62 54 56 53 54 57 60 59 56 50 43 30 26 21 16 15 31 26 30 29 25 26 29 41 45 47 45 55 40 48 51 50 45 45 44 36 34 48
47 46 46 44 46 46 50 59 63 61 54 53 58 57 54 47 43 34 22 17 18 17 19 27 27 28 23 25 24 42 42 43 52 53 49 47 42 49 53 45 47 45 42 36 36
52 49 48 49 44 51 53 57 63 62 54 54 54 54 45 41 38 30 24 20 21 14 32 27 29 29 31 16 26 45 49 39 46 51 37 42 51 51 57 49 49 47 43 40 35
57 55 49 50 45 52 52 55 61 63 54 50 51 40 38 33 29 22 22 17 11 16 33 29 28 38 23 16 28 42 45 40 50 42 35 40 39 51 56 54 48 47 44 44 38
55 49 48 53 46 49 44 56 58 60 51 46 41 34 24 25 25 17 9 6 11 22 33 25 25 35 19 18 31 41 60 25 36 32 43 52 41 45 52 54 51 49 45 41 38
57 53 48 51 47 49 49 47 55 64 45 40 28 20 19 18 18 21 20 13 27 26 25 21 21 32 22 18 25 39 55 28 14 24 47 51 46 31 52 51 53 49 48 45 44
62 53 46 49 47 43 48 48 54 62 39 28 20 14 15 12 13 12 16 22 26 19 15 16 13 23 19 19 23 35 54 38 20 25 37 35 40 41 39 50 49 46 45 46 47
59 48 43 47 40 41 41 42 51 53 33 18 8 10 15 15 17 21 21 23 21 17 17 16 22 19 15 13 21 21 33 30 29 28 33 27 16 19 26 37 48 45 43 41 50
54 45 46 34 36 37 41 43 48 37 24 13 4 3 10 13 16 15 13 12 15 17 17 22 32 33 19 21 16 14 14 12 18 17 26 27 11 12 26 31 36 30 43 44 42
49 48 39 35 32 34 37 38 44 31 17 5 7 7 13 7 8 7 6 8 7 15 20 21 26 19 16 22 17 15 12 13 13 10 24 17 18 13 20 25 31 35 37 38 37
52 49 31 31 28 31 32 39 36 22 8 6 8 7 11 12 9 10 10 12 15 18 20 30 18 25 21 20 19 27 19 15 17 13 16 13 16 16 18 21 24 28 25 28 32
52 36 30 25 26 31 34 36 24 14 4 16 12 9 11 10 12 12 12 13 17 21 28 26 17 18 18 19 21 17 16 10 14 14 16 20 22 17 13 22 20 28 31 27 30
37 32 27 23 25 33 30 31 17 11 5 15 15 12 14 11 11 11 10 20 27 20 14 13 10 11 18 17 13 10 8 9 8 11 18 19 19 18 18 18 21 21 25 28 30
37 32 23 21 27 29 28 17 13 9 9 16 18 13 14 17 15 15 14 24 23 20 12 15 8 15 13 13 10 10 9 7 7 12 13 17 17 17 18 21 25 28 30 31 31
36 25 25 22 26 27 20 9 12 12 12 19 20 16 14 20 19 20 19 22 22 17 14 16 15 12 10 7 9 10 11 8 10 11 14 16 17 19 20 21 24 25 24 23 24
34 30 17 21 18 17 13 5 13 14 13 22 22 18 13 18 21 21 24 22 19 20 20 15 14 14 11 6 2 5 7 10 12 17 16 17 16 17 21 24 26 27 26 26 30
30 26 23 18 14 11 7 11 17 17 21 23 25 20 17 15 16 17 19 17 17 17 9 10 15 13 11 7 1 2 2 5 9 14 18 21 20 20 21 24 28 30 33 32 33
30 23 15 17 16 10 10 17 20 19 20 23 22 21 21 18 13 9 10 15 13 9 8 7 6 3 6 6 4 1 2 5 7 9 10 13 18 23 27 28 29 32 35 36 37
33 21 19 19 13 11 13 20 23 23 20 19 22 21 22 23 18 13 12 8 4 2 3 3 5 6 10 4 3 3 5 3 4 7 11 12 12 15 17 21 25 29 33 35 39
26 19 19 17 17 20 20 22 24 25 24 22 22 21 20 18 17 15 17 15 9 5 5 8 6 8 10 4 3 1 3 6 7 9 11 13 15 18 21 23 26 27 29 32 37

GFSSW_500_spd_075.txt.gz
Wind_Speed
35 37 35 35 36 35 37 41 44 44 43 44 43 45 45 46 49 52 50 52 53 56 58 59 53 45 43 43 51 53 57 56 49 48 37 42 46 52 59 62 67 64 62 63 57
36 35 36 38 35 39 39 45 47 45 43 42 44 47 48 47 49 50 49 50 56 58 59 56 49 43 43 44 55 57 56 50 39 41 43 43 50 54 57 60 67 65 66 66 54
39 38 38 38 39 40 41 43 47 47 44 43 45 49 51 50 51 49 49 53 57 59 59 56 48 45 44 47 53 59 54 43 41 41 40 43 53 54 54 57 65 64 67 65 50
40 41 40 41 41 41 40 42 45 44 47 45 43 45 47 49 49 50 53 56 61 60 58 54 50 45 48 50 50 57 53 51 45 43 40 40 53 44 57 47 62 65 58 56 60
43 42 42 42 43 43 43 43 44 42 49 54 45 48 47 49 49 53 56 60 60 56 57 50 45 47 49 48 50 53 49 53 50 49 41 36 49 49 47 49 52 59 52 54 65
46 46 44 43 44 43 44 44 46 44 49 57 58 55 55 54 50 54 58 59 60 53 45 40 37 37 37 43 47 44 49 49 54 50 43 37 49 50 46 49 46 49 40 45 62
47 46 45 45 43 46 43 46 47 51 52 55 58 62 60 54 54 55 56 58 57 43 30 32 26 26 19 23 36 41 44 51 56 50 43 38 53 52 55 46 48 36 46 28 53
51 47 46 46 43 44 44 46 47 50 55 55 60 61 63 54 54 56 55 52 40 25 21 22 17 21 20 15 27 21 34 50 56 52 44 46 49 45 56 43 47 41 43 32 43
53 51 49 47 46 44 46 47 48 47 54 54 59 65 60 52 54 51 48 38 29 24 19 18 17 26 24 11 17 15 16 33 38 53 50 43 40 40 49 41 46 43 44 41 28
58 56 51 49 46 46 47 51 46 45 51 57 56 67 52 48 44 43 42 30 23 20 15 16 22 24 21 17 14 20 22 30 43 52 46 37 38 40 51 40 44 40 45 34 33
62 57 51 48 45 45 48 50 45 43 50 54 55 60 45 39 38 35 35 16 12 12 14 28 24 19 18 16 8 24 22 29 37 45 45 26 36 38 45 41 44 40 44 44 37
64 63 56 50 45 45 45 45 35 43 41 50 49 38 31 30 30 23 27 6 2 13 30 23 23 26 18 16 18 23 32 31 22 40 44 33 23 33 41 45 42 40 41 44 48
69 63 60 54 48 47 45 36 36 45 37 48 37 27 25 26 20 11 15 22 17 28 21 17 21 27 9 15 14 29 35 34 17 29 43 23 29 42 38 39 43 43 39 39 36
65 67 61 57 49 44 41 32 34 35 41 41 23 18 19 19 9 12 21 22 18 22 17 11 14 23 17 15 10 25 34 28 20 23 28 24 31 36 38 42 43 46 40 31 34
59 66 58 58 47 46 34 28 42 28 40 23 19 11 8 14 14 11 21 19 18 13 8 6 10 13 5 11 15 17 41 26 25 19 18 24 31 36 29 29 39 43 43 38 39
29 42 60 57 47 39 26 26 36 29 19 22 12 5 3 6 10 11 15 15 8 7 13 22 19 13 14 8 10 14 29 31 22 10 20 27 27 31 29 31 38 39 48 43 35
33 31 56 53 44 32 26 31 29 24 18 17 6 5 5 3 3 5 8 11 11 12 21 31 24 19 18 14 13 9 8 11 12 9 17 18 18 19 24 27 32 35 41 38 35
31 32 51 48 37 31 24 25 25 13 19 8 9 2 6 9 8 7 7 9 10 18 30 25 20 24 22 25 20 18 14 10 15 17 22 16 13 14 15 14 17 17 33 33 37
23 50 51 42 33 23 24 25 12 12 4 7 11 4 6 8 12 15 13 16 14 22 25 25 27 22 21 25 22 19 14 14 15 19 23 14 13 13 14 17 20 26 30 30 30
48 48 41 37 30 25 12 8 7 3 4 20 11 7 10 11 10 14 20 21 17 22 23 21 19 22 21 19 23 23 20 20 20 20 17 13 11 11 14 17 16 18 22 24 23
40 40 38 33 27 14 10 7 6 4 7 25 14 12 13 17 18 27 31 28 21 16 12 11 16 19 17 15 13 10 8 11 12 12 16 16 15 13 11 14 17 15 18 21 21
40 33 31 27 20 14 1 7 2 14 12 26 16 15 17 21 23 26 26 24 18 17 22 19 19 14 15 13 11 11 11 8 4 4 7 11 13 11 12 13 14 16 17 19 24
28 29 22 15 18 6 4 2 14 16 19 26 19 20 23 22 24 26 26 20 19 20 22 24 23 18 15 11 8 9 6 6 8 7 8 8 7 7 8 9 12 14 18 18 19
20 23 20 14 4 1 2 11 15 15 25 26 23 20 24 28 26 23 25 26 20 23 24 24 22 20 17 13 10 9 7 7 6 6 7 8 11 14 14 15 17 20 22 25 27
29 20 13 9 5 4 6 14 16 16 29 28 26 24 25 27 22 21 21 19 20 20 19 15 14 12 13 11 10 10 10 9 5 5 7 10 14 16 17 19 20 23 27 31 33
28 20 13 10 7 9 13 17 20 25 28 28 24 24 23 25 18 16 18 16 12 11 9 8 5 5 7 7 8 6 7 8 6 5 5 4 6 9 13 17 23 30 34 36 38
25 19 16 8 10 14 20 21 25 29 26 32 26 23 21 21 16 13 10 9 6 5 6 5 3 5 5 4 4 4 3 1 2 3 3 5 6 8 11 15 19 23 26 29 33

GFSSW_500_spd_078.txt.gz
Wind_Speed
37 37 37 36 35 35 34 35 35 38 40 40 48 45 44 44 47 49 49 50 52 51 46 49 50 51 54 56 59 59 66 66 55 44 40 42 40 38 44 47 57 65 64 70 69
42 41 40 39 38 37 37 36 38 36 38 40 44 47 42 42 44 49 48 50 51 51 48 47 49 51 55 58 60 60 64 58 41 40 44 45 43 41 47 48 54 62 66 69 64
46 46 44 43 42 40 41 39 37 38 40 40 41 42 45 46 44 41 43 43 44 46 47 50 52 54 57 57 59 56 60 46 46 45 45 45 44 43 47 49 54 59 64 69 65
51 50 48 46 45 44 42 42 40 37 40 42 43 46 47 50 51 48 44 41 44 44 46 49 52 56 60 60 54 56 51 50 46 48 48 44 41 48 48 44 51 58 66 74 67
54 53 51 49 48 47 45 44 42 39 40 42 43 45 51 53 54 51 50 45 45 45 47 51 56 60 60 53 49 51 48 51 51 53 47 46 42 37 46 44 52 54 63 68 64
56 54 53 52 50 48 47 45 44 42 40 44 44 47 51 53 56 55 53 47 47 48 51 55 57 57 49 42 44 45 50 50 50 51 50 46 38 38 43 46 56 55 63 60 50
56 56 54 54 52 50 47 45 44 44 42 44 46 49 51 54 54 55 57 53 51 50 50 52 51 44 38 32 33 36 45 46 49 48 50 47 44 35 36 47 36 48 54 50 43
56 57 55 53 54 51 49 47 44 44 46 47 48 49 52 54 60 61 57 52 51 49 46 45 40 31 19 12 9 14 32 41 41 43 48 50 40 40 34 44 42 48 44 33 30
60 59 58 57 53 54 51 49 47 44 45 48 47 50 51 52 54 50 46 48 50 48 40 33 27 16 18 15 10 17 19 27 42 44 44 46 39 36 34 45 42 46 39 38 26
62 64 63 61 56 53 50 51 46 44 43 44 41 45 42 44 40 43 42 45 47 41 26 22 16 17 20 14 8 10 11 15 34 46 43 40 40 35 37 44 45 48 36 32 41
66 70 68 64 60 53 48 49 44 44 41 36 37 41 45 38 37 39 39 39 33 20 15 9 19 26 19 12 15 3 9 11 25 36 41 40 39 33 37 39 48 49 57 30 38
55 60 68 67 64 58 50 45 42 43 37 32 37 39 30 27 31 27 24 20 10 5 10 23 23 19 14 13 9 9 17 18 18 31 45 42 36 28 33 34 40 43 46 41 33
57 51 56 60 59 58 51 46 41 41 32 32 35 24 17 22 16 13 15 10 18 21 18 17 17 17 11 4 12 17 18 21 16 28 40 39 33 28 32 32 36 39 43 44 37
37 34 34 38 48 54 50 47 43 36 28 33 29 12 11 11 11 13 14 20 21 19 17 9 13 19 18 13 14 19 28 20 17 17 28 35 23 19 27 36 34 30 40 39 30
34 37 33 36 29 46 47 46 42 27 25 23 14 2 6 11 13 11 14 8 14 15 12 14 16 16 15 18 20 29 23 31 32 22 20 28 15 23 27 31 36 33 38 36 36
29 31 28 33 38 43 46 44 34 24 24 17 3 2 6 6 10 9 5 7 5 13 20 14 10 10 18 20 16 23 17 19 16 22 18 16 18 21 34 39 29 27 34 34 32
27 22 21 17 32 44 42 39 26 24 22 5 7 9 7 7 3 4 5 5 10 24 23 11 12 16 14 28 20 19 19 9 7 11 19 16 12 18 26 23 21 27 27 23 30
22 23 19 17 41 35 36 28 27 20 5 13 11 10 11 7 5 8 7 8 23 28 18 17 22 22 26 24 19 9 9 3 7 22 20 22 19 19 17 14 17 19 22 27 28
22 21 21 25 40 34 32 23 17 11 19 20 13 14 7 9 8 11 10 13 31 27 17 16 21 20 26 26 19 13 11 16 19 22 20 23 21 17 14 15 11 21 25 31 34
31 38 46 44 38 31 26 17 15 23 26 21 15 12 11 8 13 16 15 24 27 23 23 21 22 21 22 24 21 17 16 19 24 21 18 19 17 15 16 16 10 19 20 24 24
42 48 45 42 38 32 23 15 27 25 29 20 18 15 14 15 27 24 24 29 28 25 27 25 21 22 27 23 22 25 20 19 17 16 11 17 16 15 15 15 18 20 22 24 24
37 40 36 33 28 20 21 33 28 32 29 22 18 17 23 33 30 29 25 19 16 21 23 24 23 21 24 21 19 17 18 19 16 16 12 11 11 10 8 10 14 13 15 19 19
26 32 29 19 20 23 29 35 29 36 28 23 20 25 30 27 27 26 22 25 26 24 23 22 18 14 18 18 16 16 15 13 12 12 12 11 9 10 7 6 6 8 11 12 13
22 19 20 23 23 34 37 32 32 39 30 27 25 31 29 28 23 21 25 28 31 33 30 27 22 17 15 16 14 14 15 14 13 10 10 7 6 6 6 6 6 7 10 13 15
19 17 20 23 31 33 33 30 34 36 31 26 27 31 29 25 29 26 28 29 27 25 23 21 20 17 15 14 15 15 15 14 12 13 11 12 11 10 11 13 15 18 20 22 25
23 19 12 28 28 33 33 31 36 37 29 27 25 28 26 26 24 23 25 21 18 16 14 13 14 14 15 13 15 15 12 12 14 14 13 13 14 18 21 23 25 25 26 28 30
19 20 20 23 28 30 26 33 43 40 32 30 27 25 23 23 20 17 13 12 14 13 13 12 13 12 11 11 10 10 10 8 8 7 7 9 12 15 15 16 20 22 25 29 31

GFSSW_500_spd_081.txt.gz
Wind_Speed
48 50 50 49 48 47 46 45 42 41 39 39 37 39 39 39 43 44 43 47 50 49 49 51 52 52 51 51 52 55 61 61 55 56 55 48 49 51 45 47 47 49 53 58 59
48 50 50 53 52 52 51 50 46 45 43 41 40 40 40 41 41 46 46 45 45 47 44 46 50 51 53 52 53 55 56 54 51 55 56 51 48 52 49 48 49 51 51 55 64
51 51 50 52 56 55 55 54 51 47 46 44 43 42 41 42 41 44 45 45 45 45 47 41 44 47 50 52 52 51 54 51 55 55 56 58 53 53 52 53 50 48 48 51 61
55 53 53 52 56 57 57 56 55 50 49 48 45 43 43 44 45 43 44 46 45 43 41 41 43 45 46 49 47 52 52 53 52 57 59 56 51 51 49 54 46 42 45 53 59
55 55 55 55 56 57 58 58 56 53 50 49 48 45 45 45 47 46 46 49 45 50 47 44 44 43 44 46 47 47 50 52 56 60 60 55 52 54 51 44 42 46 48 54 55
60 55 53 55 57 57 58 58 56 56 51 48 48 47 46 48 47 49 49 49 51 48 48 48 45 42 43 46 45 45 52 56 57 58 56 55 51 51 46 41 47 50 51 49 59
60 56 52 54 56 58 56 55 55 55 52 48 48 46 46 48 50 48 51 51 52 54 49 46 46 43 42 40 41 47 52 50 51 55 53 49 49 55 36 43 45 45 51 53 57
58 55 54 55 58 56 55 53 53 53 49 48 48 46 47 45 44 47 48 49 49 48 48 48 44 40 36 34 32 31 32 30 34 45 43 49 45 37 40 38 39 44 48 51 57
62 58 57 57 59 57 53 50 50 49 48 47 48 46 45 42 40 45 50 46 46 47 48 45 36 29 25 17 8 4 2 3 13 28 37 43 33 42 41 38 33 43 44 49 50
67 68 66 60 61 60 55 49 49 44 44 45 47 44 40 37 40 47 42 41 44 45 39 29 21 16 10 16 6 7 5 11 15 21 31 33 34 41 42 37 29 37 43 48 51
54 55 56 53 58 62 60 51 46 44 41 40 41 39 34 37 41 42 39 37 36 32 18 9 7 10 19 12 5 5 10 18 17 23 30 31 31 41 36 35 32 35 36 40 39
48 46 45 41 43 50 59 54 47 40 43 39 35 31 32 35 35 32 26 24 17 5 5 9 14 21 12 7 10 5 8 6 5 8 30 31 29 37 35 30 29 35 37 40 39
35 37 35 39 41 37 41 47 45 43 40 36 30 29 31 27 22 14 10 16 17 16 17 13 12 9 7 5 7 4 5 4 4 12 24 28 28 27 30 27 31 36 39 43 44
26 27 26 26 29 31 36 36 39 39 37 32 25 25 22 12 5 7 16 17 16 11 13 17 11 7 7 5 9 7 14 12 3 14 21 24 23 25 25 19 33 34 45 45 41
22 20 20 20 18 28 35 31 24 40 32 27 21 19 8 3 6 10 9 14 12 14 13 15 12 12 9 14 17 15 21 15 12 8 13 20 22 22 19 24 27 36 42 38 39
18 17 17 20 19 24 27 26 31 31 23 18 17 14 12 8 7 6 6 8 11 16 13 8 11 16 14 13 20 21 22 15 26 12 8 20 21 14 20 22 31 29 27 29 35
20 11 15 20 23 25 26 30 25 22 24 18 10 14 13 10 7 6 2 10 14 11 9 7 10 14 17 14 18 12 12 15 21 16 11 10 9 4 20 23 28 27 24 25 27
11 17 17 26 25 28 32 27 19 25 20 13 18 15 13 10 8 7 4 19 16 13 7 15 16 20 17 15 10 10 11 18 17 16 20 13 9 10 18 24 18 24 14 16 27
10 22 26 18 29 35 31 27 22 19 17 23 21 16 12 11 10 8 8 20 17 13 20 23 24 24 22 17 10 4 12 19 19 17 17 17 15 20 11 15 11 8 11 13 16
26 25 23 40 45 37 32 20 20 17 32 25 21 15 13 12 13 10 13 22 17 12 11 26 21 22 21 14 15 15 24 22 21 22 20 21 19 14 12 10 8 9 13 14 17
50 52 52 47 41 35 30 19 22 33 28 26 19 17 17 16 17 15 25 19 17 15 20 21 21 22 24 18 17 18 20 18 16 12 18 17 15 14 12 10 8 10 18 19 17
40 45 40 36 35 29 23 32 39 30 27 24 22 21 27 25 24 28 21 21 26 23 23 29 26 22 23 25 24 20 17 15 12 15 13 14 14 12 11 11 11 10 11 14 15
33 38 39 29 27 27 32 38 34 30 27 26 29 32 29 27 25 23 22 23 24 23 22 24 23 23 21 19 21 20 21 19 16 15 15 11 10 9 9 9 8 7 10 12 13
22 15 20 23 29 34 40 37 31 30 29 30 35 32 29 24 22 23 20 22 24 18 17 17 19 15 16 17 17 17 15 15 13 13 12 11 11 8 7 6 6 4 4 6 8
16 20 22 30 35 39 42 36 31 28 33 34 32 29 26 27 27 31 32 31 26 22 18 16 13 12 11 12 14 14 14 14 12 11 7 5 5 6 6 7 7 8 9 12 15
20 22 34 37 37 39 41 36 32 30 31 31 31 28 28 28 30 27 24 21 18 16 16 15 13 12 11 10 10 10 9 10 10 10 12 13 14 13 13 15 16 18 21 21 23
27 29 36 36 36 40 40 37 34 32 33 30 27 30 29 28 24 19 18 18 16 14 12 14 13 13 12 11 10 8 7 6 6 7 8 9 8 9 12 15 17 20 22 24 25

GFSSW_500_spd_084.txt.gz
Wind_Speed
55 56 55 55 53 53 53 54 51 52 50 48 47 47 45 44 42 40 39 38 38 41 42 40 41 45 46 47 49 52 53 52 49 51 50 52 54 53 52 54 55 54 55 54 59
58 58 57 57 55 55 54 55 54 53 53 53 51 50 49 47 45 42 44 42 40 42 43 42 41 39 45 47 47 51 53 53 53 55 56 57 56 53 55 58 57 59 52 56 58
59 59 59 60 60 58 57 57 56 54 54 54 53 53 51 51 48 43 46 45 43 43 45 44 43 43 37 42 47 49 49 54 53 56 57 58 57 56 59 59 58 56 53 52 59
61 62 61 60 61 61 59 57 57 56 56 53 53 54 53 52 50 46 46 48 48 46 45 48 47 44 43 41 43 49 49 52 53 55 59 59 58 59 58 56 54 56 55 53 53
66 67 65 63 62 61 61 60 59 57 56 55 53 52 52 51 51 48 48 48 49 51 48 49 48 46 43 41 44 43 48 51 52 56 58 60 60 62 58 55 56 57 55 56 56
68 69 70 67 62 61 60 60 59 57 55 54 54 50 49 49 49 47 48 50 50 53 51 50 47 47 45 49 48 46 44 49 52 55 56 59 60 61 54 53 53 52 53 52 55
69 70 69 68 64 60 57 58 56 54 52 52 52 49 48 47 48 46 47 50 52 51 50 50 51 49 51 53 51 46 43 45 48 49 51 57 59 56 52 46 48 48 52 51 52
70 67 67 64 61 58 57 56 53 50 47 47 49 45 46 45 44 44 45 48 50 49 51 51 56 60 57 53 47 40 38 37 41 46 47 53 51 51 45 40 45 47 44 43 46
62 61 60 58 55 53 51 52 44 40 41 41 44 44 43 43 41 40 42 45 47 47 51 56 57 57 53 43 31 21 17 17 13 14 20 37 41 32 34 39 41 40 37 42 45
55 52 52 51 50 47 47 47 43 42 38 37 39 41 38 35 35 37 39 42 44 48 53 56 55 42 31 21 12 8 3 5 7 11 15 15 10 24 30 39 36 33 35 37 43
45 43 41 41 43 43 39 31 41 42 46 36 35 35 31 31 31 31 34 40 47 50 51 45 25 10 6 12 6 0 4 6 13 18 20 16 16 24 19 31 31 30 26 32 39
27 28 29 32 33 31 28 30 28 32 30 34 33 30 28 26 25 28 32 40 42 33 10 5 14 17 12 5 1 4 6 9 12 13 17 21 16 23 26 30 33 27 27 28 33
26 25 23 20 25 26 22 27 35 33 30 22 21 24 21 20 22 26 29 24 7 5 11 13 11 9 8 4 2 1 3 3 8 9 6 16 19 23 29 20 27 28 24 29 33
18 14 11 17 26 29 35 23 26 31 29 31 26 19 17 15 18 18 13 2 2 9 14 7 5 3 2 6 9 1 1 9 9 9 12 15 14 15 24 22 21 24 26 33 36
13 11 7 9 22 29 31 25 22 34 26 20 17 14 11 13 14 7 7 5 7 7 9 11 6 5 7 13 8 5 6 8 12 8 8 11 9 13 17 21 19 22 26 29 32
11 11 5 9 22 31 30 25 23 25 19 13 14 13 10 10 8 12 6 10 12 7 8 9 8 4 8 15 10 10 12 4 11 10 4 5 9 17 16 10 15 18 17 27 28
16 6 7 23 23 31 32 34 30 26 20 17 12 8 10 11 13 9 8 16 10 4 6 7 13 17 10 14 12 7 13 10 7 7 4 11 5 8 7 9 18 16 19 21 16
4 14 18 24 21 30 40 35 21 24 20 16 13 14 15 14 13 7 9 14 8 5 5 6 11 11 12 10 7 5 8 15 6 4 6 6 12 12 14 11 19 21 22 30 14
17 26 29 30 33 40 44 32 21 26 23 15 24 18 18 11 11 8 12 13 9 4 9 11 17 16 12 8 9 14 20 18 14 18 22 19 15 13 16 10 12 11 16 12 5
31 38 39 37 42 40 29 10 19 21 21 27 20 17 17 16 13 10 14 16 10 11 16 19 19 13 12 13 15 19 16 14 12 14 19 18 18 22 16 15 12 11 9 7 11
35 40 44 40 40 38 31 25 14 22 34 24 19 17 20 19 15 14 17 12 7 12 18 16 18 13 13 15 18 15 16 18 19 16 17 15 18 13 11 9 8 11 15 13 11
43 42 41 37 31 26 20 14 39 30 26 21 20 22 25 23 23 19 15 13 15 19 14 21 20 19 17 19 18 16 19 19 16 18 16 12 14 13 11 9 9 10 8 8 5
26 30 30 31 27 27 33 36 28 27 24 22 22 24 24 24 24 21 23 21 27 24 20 21 22 22 21 21 19 17 17 15 15 18 17 17 16 13 9 9 7 5 4 4 4
17 17 25 30 40 39 34 31 27 26 28 30 31 30 26 22 18 16 21 21 20 19 18 18 16 14 17 18 17 17 17 16 16 14 14 11 12 12 12 9 8 7 4 3 0
17 14 26 43 39 34 31 30 28 32 32 29 27 28 28 25 20 19 17 14 14 13 11 10 10 12 12 11 12 12 12 10 10 11 10 9 7 7 6 6 7 7 7 8 9
25 25 40 40 36 33 30 30 34 36 31 28 29 31 32 31 31 27 23 18 17 13 12 10 7 7 5 5 4 3 3 3 2 2 1 1 3 4 4 6 8 10 12 15 15
34 38 38 38 36 34 32 34 33 27 26 27 32 31 29 27 26 22 18 15 12 12 12 12 10 10 10 9 8 7 4 1 2 4 4 5 8 10 11 13 15 17 19 21 22

GFSSW_500_spd_087.txt.gz
Wind_Speed
60 59 57 55 55 54 54 55 54 54 51 52 52 52 53 52 48 45 44 41 40 38 37 37 36 36 36 38 39 41 42 46 43 45 45 44 48 48 51 49 47 51 54 57 59
60 61 61 59 57 57 56 54 54 55 54 51 52 53 53 52 50 49 48 46 44 42 41 39 39 38 40 40 40 42 42 43 45 46 49 49 49 48 52 51 51 50 55 58 59
61 60 61 61 60 60 59 56 55 56 57 54 54 54 52 52 51 50 50 49 47 46 46 44 43 40 41 43 42 41 42 43 43 47 49 51 51 52 53 52 54 56 57 60 58
65 64 61 61 62 61 61 58 58 56 57 57 53 54 53 52 50 48 49 48 49 48 48 47 45 45 46 45 45 43 41 42 43 46 50 51 51 52 54 53 55 57 58 60 56
64 66 67 66 64 63 62 60 58 56 56 58 55 53 52 51 49 49 49 49 48 48 48 49 49 48 48 48 49 45 42 44 44 46 50 51 50 48 52 56 58 58 56 59 56
65 66 67 67 65 63 61 59 58 57 55 56 54 52 51 50 47 46 47 46 47 46 47 49 50 51 51 52 52 47 45 45 45 50 53 55 51 51 52 58 59 59 60 60 57
66 63 62 61 62 61 59 54 55 55 52 52 51 48 48 46 44 43 44 44 43 44 44 47 50 51 51 54 53 51 52 49 51 54 53 60 45 50 56 58 59 60 60 58 54
67 63 58 54 49 48 48 49 46 48 47 50 50 46 45 42 39 40 38 39 40 41 42 46 50 51 54 54 55 57 57 55 54 53 55 55 46 53 58 62 61 57 58 55 52
57 52 51 47 43 41 38 35 35 31 36 38 40 41 36 38 36 34 34 35 36 38 40 46 49 51 55 54 61 65 61 53 42 41 45 52 49 52 55 57 55 52 53 53 50
32 37 39 38 35 35 28 33 26 27 32 26 22 27 30 25 29 29 29 30 31 34 40 45 47 50 57 63 56 39 19 14 14 20 21 21 26 28 37 48 49 50 48 47 44
23 23 19 22 27 27 30 27 22 16 32 25 22 26 23 23 21 22 23 26 30 38 41 44 49 52 45 17 6 9 7 7 13 13 11 12 11 18 20 21 22 28 34 37 39
20 22 22 16 17 24 29 34 34 28 27 26 27 19 23 19 15 16 20 21 28 33 37 26 12 3 9 8 5 1 1 4 7 15 19 18 12 14 16 13 16 17 21 26 26
17 13 15 14 16 26 29 34 39 27 23 23 27 22 18 14 12 11 11 15 24 15 1 3 5 3 4 3 5 4 6 5 5 9 8 10 9 8 18 16 18 20 24 27 26
8 10 5 12 19 30 34 35 23 24 25 22 15 18 16 11 10 8 7 15 8 5 5 3 7 5 2 9 6 8 8 9 7 9 10 9 7 11 19 15 18 22 23 25 22
6 5 1 7 16 38 40 37 33 22 22 24 23 12 9 11 9 7 6 4 12 4 4 3 2 6 10 8 7 3 3 8 10 9 9 10 12 7 12 11 15 17 16 18 17
11 4 2 6 25 36 29 30 33 29 24 27 18 14 16 12 13 9 8 15 12 4 2 2 5 9 8 7 8 10 5 7 8 10 8 5 10 9 12 12 12 11 12 11 15
4 2 5 16 30 32 28 29 28 30 21 27 24 21 18 18 18 13 11 17 10 3 2 8 8 8 10 7 4 7 6 10 5 5 3 3 3 9 11 11 13 16 13 18 13
12 13 17 35 38 39 35 33 32 26 26 29 29 26 21 21 18 13 15 15 8 2 6 11 9 9 8 8 5 7 12 6 3 4 7 13 11 12 16 22 20 13 18 15 18
23 28 30 45 45 39 38 21 24 22 30 28 31 26 22 20 15 13 13 11 5 6 11 12 10 6 5 9 13 17 18 12 12 16 19 20 19 16 18 15 18 16 10 9 5
33 35 46 44 38 29 27 26 16 28 29 27 25 24 19 19 13 11 15 9 8 13 19 15 10 12 12 14 15 13 15 15 13 17 21 22 21 17 17 14 14 10 16 9 8
43 50 55 41 31 35 30 29 30 26 25 23 22 19 20 16 16 19 15 11 15 18 15 13 13 12 12 17 13 15 15 18 20 19 18 19 21 22 16 11 13 14 14 11 11
33 29 30 32 35 29 30 33 26 26 23 20 19 20 19 20 22 18 11 14 19 15 13 15 15 14 17 18 18 17 18 18 14 18 18 16 23 23 20 15 14 11 12 13 8
25 23 27 28 31 42 37 33 27 24 23 23 24 25 25 25 19 14 13 20 17 17 15 17 17 15 14 14 14 12 17 18 17 18 18 17 18 18 20 18 17 14 12 12 11
17 16 28 39 39 33 31 29 26 26 28 29 30 32 28 21 20 20 20 19 17 17 17 16 14 14 16 15 14 12 15 13 12 14 14 16 15 14 14 14 13 11 8 8 7
29 35 38 36 32 33 37 38 37 32 31 30 28 24 23 24 24 20 20 17 15 13 11 10 10 10 10 10 11 11 11 11 10 8 11 9 9 9 8 6 6 6 4 1 2
37 33 36 36 39 41 39 36 34 33 31 29 24 24 23 21 21 21 19 17 14 11 9 7 6 5 5 4 4 5 3 3 4 2 3 2 2 2 1 2 4 7 7 7 10
41 45 44 42 39 37 35 34 36 37 37 35 33 32 28 24 20 16 15 15 14 13 12 11 9 7 6 5 5 5 3 4 5 4 4 6 6 6 7 7 8 9 11 12 10

GFSSW_500_spd_090.txt.gz
Wind_Speed
62 61 62 61 59 59 57 56 56 54 52 50 50 50 50 49 50 48 48 47 46 44 42 40 38 37 36 36 36 35 36 35 32 34 45 45 50 49 53 51 49 52 53 54 55
67 63 62 62 62 60 59 58 57 56 54 53 51 50 49 49 49 50 50 49 49 48 47 44 43 41 40 39 40 40 39 39 39 38 38 43 48 48 51 50 48 51 53 54 55
66 65 64 63 62 62 61 60 59 57 55 55 53 49 49 47 47 48 49 50 49 49 49 48 46 46 45 43 43 43 43 43 42 42 43 41 43 48 51 51 47 49 54 56 56
63 62 62 61 62 63 63 61 60 58 56 55 53 51 49 49 48 47 48 47 47 48 49 49 49 48 47 47 47 45 47 46 45 44 43 43 45 42 48 50 52 51 52 54 56
56 56 56 57 56 59 62 63 62 58 54 54 53 53 49 48 46 47 47 45 46 47 48 49 49 49 49 49 50 50 49 50 47 46 47 46 48 47 46 52 53 55 55 56 59
53 50 49 50 48 47 53 59 60 59 58 57 54 55 48 47 46 45 46 45 45 45 47 46 46 48 49 50 52 51 51 50 50 52 51 52 49 56 49 52 54 57 57 59 59
52 55 54 49 44 43 39 44 50 58 55 52 51 52 49 49 45 44 44 43 43 43 44 44 44 47 48 51 52 52 51 53 57 59 57 57 51 54 59 59 58 59 60 61 60
54 52 48 50 49 49 45 29 34 40 45 43 45 44 46 45 43 43 39 39 38 41 42 41 42 44 47 50 52 54 56 57 63 64 63 62 51 62 61 62 56 61 63 63 62
21 23 25 28 31 30 27 33 22 25 30 33 28 34 33 38 36 38 38 37 35 35 38 37 39 41 45 48 51 54 57 61 63 66 65 63 57 56 59 60 58 60 64 64 62
14 16 14 14 15 19 18 20 21 20 28 26 35 28 34 33 32 31 31 28 27 29 33 33 37 41 45 48 51 55 60 62 55 47 48 43 36 38 49 54 55 56 61 62 61
12 15 15 14 9 22 25 24 25 27 30 33 23 22 23 22 25 20 17 19 20 24 28 29 32 36 40 43 43 33 17 12 15 19 10 18 16 27 35 36 44 51 54 56 55
13 14 9 10 9 30 31 40 31 31 24 28 24 26 22 22 19 14 15 14 13 16 17 22 28 24 18 11 7 4 7 7 11 14 17 22 24 29 24 26 32 37 42 45 46
9 7 8 7 13 40 25 30 34 33 28 27 26 15 14 17 16 14 10 10 11 8 11 17 10 7 7 6 6 5 7 7 7 11 14 14 17 17 10 13 11 14 16 19 22
10 6 8 6 19 38 42 24 35 25 31 19 27 19 15 18 16 13 13 8 6 7 6 7 6 9 8 7 6 7 4 3 2 6 9 10 4 5 13 13 17 15 12 12 21
8 6 4 7 20 36 39 29 28 24 23 29 27 27 18 18 16 15 11 11 14 8 5 6 6 5 5 6 3 1 6 6 3 5 5 9 11 10 8 10 11 12 15 15 14
1 8 8 11 20 43 38 38 28 27 33 35 29 26 23 20 17 16 13 16 14 7 4 5 6 5 3 7 3 6 6 12 7 8 8 8 5 7 9 10 11 11 11 10 10
13 12 9 19 37 34 35 36 23 25 33 36 30 27 23 19 19 17 13 18 12 4 2 2 6 10 10 4 8 10 9 13 8 10 6 3 1 5 7 10 11 10 10 17 18
21 20 31 49 40 36 32 29 24 24 22 22 25 25 20 21 17 14 18 16 8 4 6 8 8 8 4 3 4 9 7 1 1 4 6 6 6 8 14 18 16 13 12 17 19
44 38 42 41 40 39 35 31 30 28 26 28 28 24 23 21 15 16 19 13 6 7 8 10 8 1 5 10 7 9 6 9 8 10 13 17 20 17 16 18 17 13 8 6 8
43 39 34 37 34 28 28 28 23 21 33 31 29 26 23 16 16 21 16 8 10 11 11 9 8 9 12 10 8 8 6 8 12 13 14 13 17 17 16 14 15 12 11 9 9
38 32 30 29 29 30 24 24 28 30 33 29 25 21 19 20 23 19 14 15 17 15 9 10 12 11 10 15 15 11 13 16 17 15 18 18 16 15 16 16 19 18 13 15 18
32 32 32 32 34 36 34 35 30 28 26 25 25 22 25 23 19 12 16 20 15 11 13 15 14 11 11 15 17 15 18 18 16 16 17 14 16 17 16 12 15 15 12 13 15
28 25 23 25 29 33 30 27 26 28 28 28 29 28 25 19 12 18 22 16 14 13 13 14 14 10 10 13 17 12 17 17 16 17 17 16 17 18 22 20 17 14 13 18 16
39 35 35 32 31 29 29 31 31 32 34 32 30 25 18 15 19 21 18 17 18 17 16 14 13 11 11 13 12 11 14 14 16 14 15 15 16 13 17 19 17 14 12 9 7
42 43 41 41 41 41 40 41 40 39 36 30 25 24 25 22 21 19 16 16 14 11 12 13 12 10 9 9 10 10 9 9 11 8 10 9 10 10 10 10 8 8 7 5 4
42 42 41 39 37 37 36 35 34 30 29 31 29 24 24 23 19 15 13 11 9 8 9 9 7 4 3 2 3 4 2 2 2 3 4 3 2 3 2 1 1 1 2 4 6
39 37 37 38 38 39 39 38 38 37 34 30 26 25 23 20 18 16 14 11 10 8 6 5 4 4 3 3 2 2 4 5 5 6 7 10 12 12 12 11 10 10 8 8 6

GFSSW_500_spd_093.txt.gz
Wind_Speed
67 68 71 73 72 68 66 64 61 59 58 55 52 52 51 50 49 49 47 47 46 46 44 41 41 39 37 36 36 36 35 34 35 34 32 32 30 36 45 47 50 52 56 56 55
69 69 68 67 72 72 68 64 63 61 59 55 54 52 51 51 49 48 47 47 47 46 45 45 45 43 42 41 40 40 39 39 41 40 38 37 36 35 36 44 46 51 54 56 57
63 67 65 68 66 70 72 69 65 62 58 55 55 54 53 52 50 49 48 48 47 46 45 45 45 45 45 45 45 44 43 44 44 45 45 42 41 41 38 36 42 48 54 57 57
62 56 57 55 63 67 62 67 66 64 60 57 56 56 53 53 49 49 48 47 46 46 45 44 46 46 46 47 48 48 47 48 48 49 49 50 48 43 41 36 41 47 52 54 57
55 58 50 47 46 52 59 54 60 62 60 56 56 56 53 51 50 48 47 47 46 46 45 44 44 45 45 46 47 47 48 49 51 52 54 55 53 52 44 45 44 45 52 57 61
44 49 49 44 45 40 41 50 42 51 55 53 54 51 51 49 50 47 45 45 45 44 45 44 43 45 46 48 47 47 49 50 51 54 56 59 57 60 51 53 50 48 52 58 62
30 27 26 38 38 39 35 36 38 35 45 50 49 46 45 49 47 45 43 44 43 42 42 43 43 44 45 47 47 48 49 51 52 56 58 62 59 60 63 63 57 55 56 61 62
19 14 13 15 23 26 30 32 28 30 35 43 43 46 47 41 42 44 43 40 40 39 40 41 41 42 43 45 48 48 49 50 53 58 60 63 55 64 71 69 65 62 62 62 64
20 14 13 6 12 15 17 24 27 24 28 35 36 39 39 31 36 40 39 38 37 39 39 40 40 43 43 43 44 45 47 51 54 59 60 62 57 66 74 73 68 68 65 62 64
14 11 10 9 6 21 24 12 18 21 24 27 31 38 39 47 43 37 34 32 31 31 32 33 34 35 35 35 38 41 44 49 53 61 62 64 64 64 72 73 64 59 59 58 60
9 8 7 8 5 24 35 39 21 24 34 34 30 24 25 28 29 28 25 23 24 26 24 25 25 25 26 30 35 40 43 43 38 33 25 20 29 24 36 36 34 44 48 49 50
8 6 5 1 13 33 37 36 34 37 34 37 35 28 24 30 28 21 20 20 16 15 14 15 16 19 25 29 27 23 20 19 18 22 21 23 27 33 31 29 30 31 30 35 41
5 3 4 5 17 32 34 38 32 38 42 32 32 23 20 29 28 27 22 16 14 12 10 12 14 17 19 16 16 13 14 19 16 16 20 20 18 15 22 23 22 18 19 21 29
1 2 6 15 20 32 45 39 35 28 24 26 27 29 26 27 26 22 18 16 14 11 11 10 11 11 11 11 7 11 13 16 15 12 15 19 15 6 5 7 8 6 2 6 8
10 9 4 17 28 32 42 33 37 32 39 33 30 29 27 27 24 22 18 16 15 13 9 10 9 5 3 2 7 6 9 9 17 11 10 13 8 5 6 3 6 7 5 9 12
15 18 16 20 37 35 45 32 28 30 29 34 29 26 28 27 23 20 16 15 16 12 11 10 7 3 3 3 6 12 18 19 17 17 15 10 6 3 2 6 7 7 7 10 11
29 27 24 23 36 41 31 26 27 29 31 32 30 27 28 24 20 18 14 18 13 7 6 7 7 9 6 6 12 16 14 13 12 14 10 8 5 1 2 6 10 10 13 13 18
37 36 34 27 31 35 25 30 30 33 35 34 30 29 23 21 20 17 18 16 10 6 9 14 9 4 6 9 7 5 12 9 8 11 8 6 6 2 5 5 5 7 13 20 20
41 38 35 33 35 29 28 30 35 37 30 31 29 22 21 19 16 17 18 11 9 14 12 13 6 2 2 3 3 8 10 7 5 6 9 11 10 11 11 12 15 18 15 18 9
40 36 34 29 24 20 20 23 25 27 28 25 20 23 20 14 17 19 13 11 14 14 14 7 5 6 4 6 6 7 7 7 6 5 5 8 10 12 12 13 9 11 11 13 14
35 32 29 25 22 22 16 18 23 23 25 22 23 21 20 22 20 14 14 17 15 11 8 8 10 8 8 6 7 10 11 10 8 10 9 10 13 9 18 17 15 19 17 17 14
36 33 34 32 29 27 27 26 25 28 27 26 23 24 25 22 18 17 19 16 12 12 11 11 12 11 12 14 15 14 15 16 15 16 16 13 12 10 14 16 17 22 23 22 18
39 37 36 33 31 30 30 31 30 30 27 27 29 25 21 19 23 20 16 15 15 15 14 12 12 12 13 15 18 15 17 17 15 17 17 15 16 17 12 13 16 19 22 26 28
45 44 40 35 34 34 33 33 35 35 32 28 22 24 29 26 21 18 17 18 18 15 12 11 11 12 12 13 14 12 15 14 16 15 15 15 16 13 10 9 10 14 14 11 9
47 47 46 45 44 42 39 37 33 29 30 31 32 31 27 22 19 19 18 17 15 14 12 10 10 10 9 8 7 7 8 8 11 9 9 9 10 9 9 8 8 8 7 5 4
39 39 39 38 38 37 36 36 35 34 32 29 27 24 23 20 17 14 12 11 10 10 9 8 5 3 2 2 3 4 4 3 3 2 2 4 3 3 3 3 1 2 4 5 6
42 38 37 38 37 38 36 34 32 31 29 26 23 20 18 16 13 11 9 7 6 4 3 2 3 5 5 4 3 1 1 3 5 7 10 10 11 11 11 9 8 8 5 4 6

GFSSW_500_spd_096.txt.gz
Wind_Speed
54 72 72 70 68 68 70 68 68 68 67 66 62 59 54 52 52 51 49 50 48 46 47 46 44 41 39 37 37 35 33 31 31 30 31 31 31 29 29 29 32 43 49 50 52
51 49 59 75 72 69 67 66 71 69 68 66 64 62 57 55 53 52 49 49 48 47 46 46 46 45 43 42 40 38 37 36 36 36 35 35 35 35 34 34 35 36 43 50 51
59 58 57 56 73 73 72 65 61 69 69 67 64 63 61 57 53 52 50 48 48 46 46 46 45 45 44 44 43 41 40 41 40 40 40 41 41 40 37 37 42 40 40 43 49
61 62 61 58 58 61 63 70 63 57 66 66 62 64 61 59 55 53 51 49 48 47 46 46 45 44 43 44 43 43 43 43 43 44 44 45 43 43 44 40 45 46 45 41 40
51 49 49 47 43 47 49 53 59 58 53 65 62 60 61 58 55 52 50 49 47 45 45 46 44 42 43 43 44 44 42 43 45 45 46 48 46 46 45 48 51 52 51 49 48
32 34 31 26 30 42 38 40 48 52 51 52 61 58 57 58 52 51 50 49 46 44 43 43 42 42 42 42 43 44 44 44 45 48 49 49 49 52 51 55 56 56 55 56 55
25 26 24 22 25 27 29 40 25 44 46 43 50 53 39 54 45 50 49 46 45 43 41 41 41 40 40 42 44 45 46 47 48 50 52 53 53 55 59 60 58 60 61 61 60
24 21 19 13 25 29 29 38 30 34 44 40 46 43 45 39 48 48 47 44 43 42 40 39 38 38 38 40 41 43 44 46 49 52 55 56 52 56 62 63 63 66 66 65 64
20 16 13 10 13 26 23 28 35 25 43 42 34 45 46 31 32 40 43 42 39 37 36 36 36 36 36 37 38 40 41 44 48 50 51 52 51 57 65 68 68 72 70 67 67
11 9 10 7 6 19 29 19 22 23 39 38 36 39 42 35 32 33 35 37 36 36 34 33 32 31 31 31 33 35 37 40 43 46 49 53 56 60 70 73 74 73 72 71 71
6 4 4 4 8 17 34 25 19 30 37 40 38 34 38 31 26 30 31 29 29 27 27 25 25 25 25 26 27 30 33 35 42 46 49 48 49 50 49 59 60 58 66 73 75
2 2 3 5 10 23 33 39 25 38 41 35 38 35 37 40 32 30 25 24 22 20 20 19 18 17 18 21 24 27 31 34 32 32 29 27 29 34 41 42 44 42 36 37 42
2 3 7 2 10 33 33 33 29 38 38 29 27 34 27 27 29 26 23 20 18 16 15 13 12 14 16 19 22 23 22 21 17 18 26 25 30 34 28 24 25 26 28 28 26
8 7 7 9 23 26 37 35 32 32 34 31 31 24 25 23 22 20 16 17 17 16 14 13 13 12 13 16 17 14 15 15 15 21 28 30 22 21 20 15 11 9 7 7 6
12 14 25 43 35 40 35 28 39 29 37 29 27 25 26 27 21 18 19 19 18 17 15 14 10 8 9 10 6 10 12 16 23 28 27 24 25 19 20 14 6 1 4 6 4
33 34 35 39 33 28 35 30 39 34 32 30 29 27 27 28 26 24 23 19 17 14 12 10 8 5 7 4 5 11 20 24 23 21 21 20 19 15 13 13 9 3 2 5 9
42 43 39 37 25 24 32 34 36 33 35 30 29 27 29 26 23 20 17 14 15 9 7 6 4 7 5 3 10 14 13 13 11 13 17 15 14 13 9 7 5 5 4 6 9
46 43 43 35 35 33 26 27 32 33 34 34 32 29 25 24 20 16 16 17 10 6 7 6 9 5 0 6 6 9 12 11 11 14 14 12 12 6 6 4 3 2 3 5 9
40 40 42 34 30 32 30 27 32 34 30 29 28 23 21 19 16 18 18 11 6 9 13 12 6 3 3 3 6 10 13 9 11 13 11 11 11 12 9 11 9 8 10 9 14
30 32 29 32 25 27 22 35 32 26 24 24 20 22 18 17 20 17 12 12 14 15 13 9 8 5 3 6 8 9 10 9 11 11 10 12 9 11 9 10 8 7 6 1 3
36 31 23 28 32 30 30 25 26 26 25 24 22 19 22 23 17 14 18 17 14 12 11 11 9 9 10 9 8 11 11 12 12 11 11 11 10 14 16 16 17 18 18 15 13
37 35 35 32 27 20 22 25 23 27 26 25 26 28 23 18 21 21 17 14 15 14 15 13 13 13 15 17 15 15 14 15 17 17 16 13 13 13 12 16 17 22 24 24 22
39 39 38 36 28 25 30 33 33 31 30 27 25 22 22 25 23 18 18 19 18 16 16 15 14 13 14 15 17 16 15 15 17 18 20 18 16 17 17 15 19 22 22 21 16
47 48 47 45 44 41 38 35 31 27 26 29 31 30 26 21 20 22 22 19 17 16 14 14 14 13 12 13 13 13 13 12 11 13 13 14 15 16 14 12 10 11 12 11 9
42 42 42 39 36 35 34 35 35 34 34 31 27 25 24 23 22 21 19 16 14 12 11 11 10 9 8 7 8 9 10 9 7 6 7 6 7 7 6 5 5 4 5 5 5
35 35 37 37 36 35 34 34 34 32 29 26 24 23 22 20 18 15 13 12 9 8 7 5 5 4 6 8 9 9 8 7 6 4 3 5 4 3 4 4 4 4 1 1 3
37 37 35 32 30 29 29 28 27 25 24 23 20 18 14 13 11 10 8 6 5 2 1 4 7 9 11 9 7 3 2 3 4 4 3 3 4 4 5 5 5 4 3 3 2

GFSSW_500_spd_099.txt.gz
Wind_Speed
47 45 43 40 41 56 71 65 70 71 67 65 63 64 60 58 54 52 50 49 47 46 43 40 39 37 35 34 33 32 30 29 28 27 27 26 25 25 26 27 28 29 29 30 39
48 49 49 45 45 46 44 62 66 66 71 67 64 63 61 58 58 54 52 50 48 47 48 45 45 43 42 41 39 37 36 35 34 32 31 32 31 29 28 28 29 34 36 34 35
48 48 47 48 50 50 48 51 58 63 64 68 66 63 59 60 58 56 54 51 49 48 48 47 47 46 46 45 43 42 42 41 39 37 37 36 35 35 34 34 35 34 36 39 38
43 43 43 45 50 54 56 53 54 59 61 61 63 66 61 59 60 58 56 53 50 49 48 47 46 46 46 44 43 42 43 44 43 43 42 41 40 40 40 40 40 41 38 38 40
35 32 24 24 29 40 42 46 49 54 61 58 59 61 64 63 62 60 57 54 51 49 47 46 45 45 44 43 42 42 43 43 43 43 44 45 45 45 43 44 46 47 47 46 45
22 18 17 20 25 28 27 36 33 47 53 63 54 53 56 63 62 60 57 53 51 49 46 45 43 44 43 42 41 40 42 43 43 43 44 46 47 49 49 49 49 50 52 54 53
18 17 17 19 24 20 25 36 34 35 46 50 54 50 46 49 56 57 55 51 50 47 44 43 41 40 40 39 39 39 40 41 42 45 46 49 50 52 52 55 56 57 57 57 58
15 17 19 19 18 19 27 31 29 29 34 40 49 45 51 50 47 49 48 54 48 46 44 42 39 38 38 37 38 37 37 38 42 44 47 48 49 53 58 59 60 63 64 64 64
15 20 13 12 10 14 24 31 25 26 28 40 43 37 42 45 44 42 44 41 48 41 39 37 36 36 35 35 34 34 37 39 41 43 44 45 45 52 56 59 60 62 65 68 67
1 3 6 6 7 10 19 21 20 24 34 46 40 41 38 46 38 33 38 38 38 40 34 32 32 30 29 31 33 34 34 36 38 38 38 42 43 49 54 57 60 64 68 72 74
8 1 4 7 8 10 18 35 22 28 42 49 46 42 32 32 29 29 29 35 37 34 34 32 30 30 29 29 29 29 30 30 32 33 35 41 46 50 54 57 59 67 74 80 82
7 3 8 9 3 10 22 24 24 25 40 45 42 30 28 34 28 24 24 24 24 26 24 23 22 22 22 23 23 22 24 26 31 34 37 39 35 40 38 38 44 50 54 55 58
12 11 13 5 3 24 32 23 28 44 40 37 36 32 31 27 25 24 20 19 17 15 17 18 18 18 17 16 17 20 23 26 29 28 26 29 30 39 40 39 38 39 33 23 24
34 26 15 17 22 19 25 21 41 36 37 29 26 24 32 28 25 22 20 16 16 17 18 18 16 15 16 15 16 18 20 20 19 21 26 31 34 32 33 30 29 30 19 11 13
41 44 44 36 35 29 33 37 34 37 38 28 24 24 17 26 27 20 18 18 19 20 18 16 16 14 11 11 13 11 11 14 21 24 25 28 33 26 23 21 25 21 16 14 8
43 39 39 32 27 28 32 32 29 37 35 26 27 29 26 28 26 24 21 21 20 17 15 13 10 10 8 6 6 7 14 18 18 19 21 25 27 23 20 18 16 10 9 7 6
39 35 37 33 31 31 30 29 32 33 33 26 26 29 28 22 21 21 18 14 11 10 9 8 7 7 6 2 6 8 9 10 11 13 18 20 19 20 16 16 13 9 8 4 2
41 38 35 36 35 31 30 32 33 36 34 28 27 26 24 20 19 16 14 14 12 9 8 8 6 5 2 2 3 5 7 7 10 13 12 14 19 18 16 13 10 9 3 1 5
38 38 38 34 33 34 33 27 34 31 27 24 23 20 17 16 14 14 16 13 10 7 10 12 7 3 4 2 4 7 6 6 6 8 12 14 17 15 14 8 7 8 7 6 6
35 29 36 42 39 34 22 33 30 29 27 23 21 22 19 17 18 17 14 15 18 18 13 11 7 6 6 6 8 7 7 7 10 10 13 13 13 17 15 10 7 7 4 1 4
30 30 34 37 29 26 28 27 27 23 22 22 20 20 24 22 18 19 22 19 16 15 14 13 12 14 14 13 11 11 10 10 10 11 12 11 13 17 16 13 14 14 16 17 20
24 24 35 31 22 17 24 28 29 24 22 26 29 25 22 24 24 20 19 18 18 17 16 17 17 17 17 15 14 12 13 14 15 15 15 16 17 20 17 15 18 20 23 23 20
42 45 42 36 25 22 26 32 34 33 30 28 29 29 26 23 23 22 19 19 19 17 17 17 16 16 15 14 14 14 13 12 13 14 15 17 17 17 16 17 15 17 17 17 17
41 43 41 37 35 33 31 31 31 33 33 31 28 27 27 25 23 22 20 19 18 17 16 15 15 13 11 11 11 12 11 11 11 11 10 12 11 10 9 7 9 10 11 13 13
38 40 40 40 39 39 38 36 33 30 27 27 27 27 25 22 21 18 18 17 16 14 13 11 11 10 10 11 11 12 11 11 11 10 7 6 8 8 6 4 5 6 5 3 2
34 34 34 35 35 34 31 30 29 27 26 25 23 20 19 18 17 16 14 12 11 8 6 6 8 10 14 17 17 15 12 9 9 8 8 8 8 9 5 6 6 6 5 6 4
32 32 29 24 24 24 23 23 21 20 19 18 17 16 15 14 13 11 9 7 5 5 7 9 12 14 12 9 8 8 9 8 7 7 6 5 4 4 4 4 5 6 6 6 6

GFSSW_500_spd_102.txt.gz
Wind_Speed
51 53 52 52 48 47 47 57 67 62 63 67 65 65 63 62 57 52 50 47 45 44 40 38 35 33 31 31 29 27 26 25 25 24 24 24 23 23 23 24 24 27 28 29 30
43 42 46 48 47 46 47 42 49 62 60 56 66 63 64 63 54 56 53 51 48 46 45 43 40 37 35 34 33 32 31 30 30 30 30 30 29 28 27 26 26 26 27 29 32
39 38 39 40 42 44 45 47 43 40 51 60 53 62 63 62 59 58 55 52 50 49 46 45 44 43 41 39 37 37 37 36 36 36 36 35 35 34 33 31 32 32 32 30 30
35 35 35 35 36 37 42 43 44 43 40 46 59 52 60 60 59 58 56 54 52 49 48 47 45 45 45 44 42 41 42 42 41 42 41 40 39 39 37 38 38 38 38 38 37
17 21 27 28 28 25 27 34 42 47 45 43 51 52 51 60 54 55 57 55 53 50 48 47 45 45 44 45 45 44 43 43 42 43 42 42 43 44 43 44 43 44 44 44 43
9 11 14 19 20 17 15 21 33 39 44 42 42 52 51 54 51 41 59 55 52 50 49 47 46 45 45 43 43 43 43 43 42 42 42 44 44 46 46 46 48 48 48 49 49
4 6 6 10 11 15 18 20 26 29 37 43 45 52 47 51 57 60 56 51 46 49 47 46 44 43 43 42 42 41 41 42 41 41 43 44 45 47 49 52 54 54 53 54 55
3 6 11 10 13 15 17 17 25 28 27 30 41 44 44 46 49 51 54 54 46 44 44 43 42 42 41 41 39 39 38 38 38 40 42 44 46 48 49 52 55 58 60 61 62
2 9 15 10 8 9 10 11 33 34 18 25 37 42 40 35 41 43 45 47 48 48 42 42 41 41 40 38 37 36 35 35 36 38 40 41 42 47 49 51 54 55 57 59 61
4 5 2 5 7 6 3 13 21 25 19 30 40 39 46 35 34 34 36 38 40 42 45 44 40 37 37 34 34 32 33 34 36 37 38 40 41 44 46 48 50 53 57 61 64
13 4 5 9 5 2 9 21 24 26 26 37 41 43 47 39 36 33 33 32 31 33 36 43 41 37 35 30 28 29 30 33 34 33 33 35 36 41 45 49 53 57 61 65 70
13 14 7 5 5 8 20 25 18 24 44 34 30 31 43 42 31 33 35 31 29 28 28 27 32 34 33 31 29 29 26 27 27 27 28 32 36 42 45 47 49 51 54 58 61
37 28 20 11 9 18 23 18 21 36 46 38 32 30 29 26 32 26 25 24 25 25 24 22 20 20 20 21 21 21 23 23 23 25 29 33 32 35 40 44 45 45 44 45 43
49 33 24 23 25 26 34 37 37 47 42 41 31 33 34 30 29 26 24 22 20 18 19 20 20 20 19 19 18 17 17 20 23 22 21 26 29 29 34 37 37 34 31 35 36
43 43 43 45 45 44 42 41 44 46 41 34 31 34 31 24 24 24 23 23 19 17 18 18 19 19 17 15 13 14 16 15 15 20 20 22 20 24 27 35 32 25 26 27 25
44 44 41 43 42 42 47 41 43 37 37 33 30 30 29 26 24 22 17 18 18 18 18 17 15 14 12 11 11 10 9 13 13 12 13 17 18 19 23 29 28 24 19 19 19
41 42 41 40 42 42 39 35 34 35 33 30 25 26 25 21 19 17 18 16 14 15 14 14 13 11 10 7 4 6 6 8 8 10 13 15 18 22 21 17 22 18 14 16 12
44 39 39 38 39 35 30 29 33 33 31 28 26 29 25 22 22 19 16 16 14 13 12 11 11 7 7 5 4 2 5 5 7 9 11 16 17 16 16 16 9 10 11 10 6
43 43 41 35 34 29 26 23 32 32 29 26 24 24 23 22 20 18 17 15 13 11 10 10 11 8 6 4 2 1 2 4 6 6 8 9 10 18 15 14 12 12 6 1 5
32 37 42 41 35 30 25 29 31 31 28 25 24 24 22 20 18 16 16 16 16 17 15 12 10 8 6 6 5 5 5 5 3 3 7 10 12 15 15 14 10 9 9 9 7
29 30 39 34 33 24 17 19 27 25 24 23 21 22 22 20 20 20 23 22 19 17 15 15 13 12 12 11 11 11 10 10 9 8 12 11 12 16 16 18 18 17 17 19 22
27 29 34 31 29 23 28 25 26 28 29 27 25 23 25 25 24 20 20 20 19 17 16 16 15 15 15 14 13 12 13 13 12 11 11 13 13 18 18 18 20 23 19 17 17
38 40 37 33 34 37 37 35 34 33 32 31 29 26 24 23 23 23 22 21 20 19 17 17 17 16 13 12 11 10 9 8 8 8 9 10 10 11 11 11 13 11 13 16 19
40 42 41 37 38 37 36 35 32 32 31 29 28 26 25 25 24 23 21 20 19 18 16 15 13 12 11 11 11 11 11 9 6 7 8 9 9 10 9 9 9 9 11 12 11
36 36 37 35 35 34 32 32 31 30 30 28 27 25 23 22 21 20 18 16 14 13 12 12 12 12 13 16 18 17 13 9 8 8 8 9 11 12 11 10 10 10 10 10 10
25 28 30 30 29 28 26 26 26 25 24 23 23 21 20 18 16 15 13 12 10 8 9 9 12 11 15 12 8 10 10 10 10 10 9 8 9 10 11 10 10 10 11 12 13
26 23 21 19 19 20 20 19 18 18 17 17 16 15 14 12 10 8 8 7 6 6 6 8 9 6 8 9 10 9 10 9 9 8 8 9 10 10 10 10 11 11 11 11 12

GFSSW_500_spd_105.txt.gz
Wind_Speed
44 48 53 52 51 52 50 51 48 62 65 61 64 64 67 62 59 56 52 48 46 44 41 38 34 33 30 28 28 28 27 26 25 25 24 25 25 25 25 24 25 25 26 28 27
41 42 42 45 50 52 50 49 48 49 62 62 55 63 64 62 60 58 54 51 48 47 45 41 39 37 33 32 32 31 30 29 28 28 28 27 27 26 25 26 27 26 26 25 26
38 39 43 43 42 45 49 45 47 45 46 59 62 54 63 63 62 59 56 53 50 48 47 45 43 41 38 37 35 35 34 31 32 31 31 30 30 30 30 32 31 30 30 29 29
28 27 33 37 35 36 37 39 42 42 40 47 56 57 53 62 63 61 58 54 52 50 48 47 46 44 42 40 38 38 38 37 36 35 35 35 36 36 37 37 36 36 35 36 36
13 16 16 16 30 29 29 30 34 39 40 38 50 51 52 52 57 60 58 55 53 51 50 48 47 46 45 43 43 42 41 40 39 39 39 40 41 42 43 42 41 40 41 41 41
9 10 9 12 17 23 24 25 27 34 37 39 35 51 48 47 49 54 56 56 55 52 51 49 46 45 45 45 45 43 43 43 43 43 42 43 44 44 45 44 44 44 45 46 46
6 4 1 6 10 16 18 18 12 29 36 37 36 34 50 47 45 46 53 54 54 53 51 49 46 44 43 42 43 42 42 43 43 44 45 45 44 45 45 45 46 47 49 50 51
4 1 4 7 9 8 10 11 15 22 31 35 36 30 34 43 43 42 47 52 53 51 49 47 45 42 41 41 40 40 41 42 40 42 42 43 43 44 44 46 48 50 52 53 55
5 6 10 9 9 8 10 11 18 27 27 29 35 33 36 42 43 47 36 41 48 51 45 45 42 40 39 39 38 38 38 38 39 39 40 41 40 42 44 44 47 50 53 56 57
10 6 2 3 9 6 7 11 22 25 29 28 28 37 37 37 39 43 42 39 40 42 46 41 39 37 37 36 35 35 36 36 37 35 37 37 37 40 44 45 47 49 51 54 56
12 8 3 2 2 7 10 20 36 28 27 34 40 34 39 31 28 35 52 47 39 35 35 39 41 40 38 35 32 31 33 33 34 34 33 35 34 36 39 41 44 47 51 55 59
33 26 19 13 11 10 11 21 33 24 36 42 39 34 40 32 24 26 31 31 29 28 27 29 30 31 34 37 38 38 37 36 36 36 33 31 31 34 38 42 46 50 53 55 58
30 27 21 17 16 18 24 22 27 30 33 38 43 38 35 28 29 29 25 20 19 18 19 19 21 22 23 29 31 31 29 27 25 25 26 27 30 34 37 40 38 38 43 46 50
43 37 37 32 25 25 28 30 38 38 41 36 41 38 28 26 28 34 26 23 20 20 20 20 20 20 20 19 19 19 19 19 20 21 26 29 31 33 29 26 32 37 40 40 39
44 47 44 49 43 42 44 38 38 44 46 42 36 30 23 24 24 23 22 22 21 20 19 17 19 19 19 19 18 16 16 17 20 22 20 25 24 20 23 26 30 33 34 30 31
43 47 49 46 42 41 41 42 41 39 37 32 33 29 27 28 25 23 22 23 21 20 20 19 19 18 17 15 14 14 15 16 13 12 14 16 17 19 25 31 27 25 25 27 22
39 40 44 40 36 33 38 38 37 38 36 34 27 23 22 24 24 23 22 20 16 16 16 15 14 13 13 12 12 10 8 8 9 10 14 16 18 22 21 24 24 21 16 15 10
43 42 40 42 40 27 27 30 29 30 28 28 26 23 23 22 19 19 17 16 15 14 12 13 12 10 9 8 6 7 6 7 9 11 12 15 15 18 22 22 22 21 19 11 9
40 41 41 40 40 39 33 29 29 29 29 28 23 22 21 20 18 19 19 17 15 13 11 9 8 6 9 8 7 5 4 5 8 10 10 11 13 17 17 19 16 14 11 9 9
37 37 36 33 33 37 35 35 35 32 31 28 28 27 23 21 20 19 18 16 14 13 12 12 11 10 7 5 4 3 2 4 4 5 8 10 11 11 17 17 17 17 17 16 10
29 32 36 34 30 31 31 33 31 30 27 26 26 24 21 18 16 15 15 17 17 15 15 13 11 10 8 8 7 4 5 3 4 5 6 9 11 13 15 14 16 17 16 17 17
35 39 42 37 31 32 32 33 33 31 28 28 28 28 27 26 26 23 21 18 16 14 14 14 13 14 12 11 10 8 7 6 6 5 5 8 9 11 12 12 13 15 13 13 11
39 41 41 36 37 38 35 34 33 32 30 27 26 23 22 21 21 20 19 18 17 16 17 17 15 13 10 7 6 6 7 5 4 5 8 10 12 14 14 11 12 14 14 14 15
36 36 35 34 33 33 33 32 31 29 28 27 26 25 24 23 21 20 19 18 17 17 15 12 9 7 6 8 9 8 7 5 5 8 10 10 11 12 11 11 11 10 12 15 17
28 29 31 31 31 31 31 31 30 29 28 26 25 23 22 21 19 17 16 14 12 10 9 9 11 12 14 12 9 7 6 5 3 4 6 7 9 11 12 13 13 14 15 15 16
23 22 23 23 23 23 23 24 24 24 23 22 21 20 18 16 15 13 11 9 8 9 11 11 13 11 7 8 8 9 9 9 8 8 8 10 12 13 14 15 16 16 16 16 16
24 24 24 22 18 17 17 17 16 15 15 13 12 10 9 8 6 5 5 6 8 8 7 7 8 9 10 10 10 8 11 11 12 13 14 15 16 17 18 18 18 18 18 18 18

GFSSW_500_spd_108.txt.gz
Wind_Speed
37 36 32 32 31 46 47 47 48 46 50 59 61 66 64 64 62 58 54 49 46 43 41 37 33 32 29 26 26 26 25 25 24 23 21 22 23 22 22 22 23 24 24 28 23
39 37 43 47 40 35 42 48 46 47 45 47 59 58 63 62 62 61 56 52 48 45 42 39 37 35 33 30 29 27 28 24 21 21 22 22 22 23 23 25 26 25 26 25 27
23 31 38 43 43 38 34 38 43 40 41 43 50 61 58 61 62 61 59 54 51 47 45 42 40 38 36 34 33 32 31 26 27 26 25 26 26 26 27 28 27 26 27 27 27
20 20 26 32 38 41 36 33 36 41 40 41 43 54 55 60 54 62 60 57 53 49 46 45 43 41 39 38 36 34 32 32 31 30 29 29 29 29 30 31 31 31 32 33 33
6 10 13 17 21 30 33 29 32 36 42 43 40 49 55 53 61 59 59 60 56 52 49 47 46 44 41 40 39 37 35 35 34 33 33 34 34 34 35 35 36 38 38 38 38
2 6 10 13 14 17 29 35 27 32 41 43 41 43 50 55 51 54 57 58 57 55 52 49 46 45 42 41 41 38 38 37 36 36 37 37 38 38 39 39 41 41 41 42 43
1 1 3 3 6 10 14 21 24 27 35 38 36 34 49 48 50 45 54 59 56 55 53 50 48 47 44 42 42 41 40 40 39 39 40 40 41 42 42 44 44 44 45 46 47
5 1 3 6 10 12 12 14 13 19 24 31 32 32 47 41 41 40 45 54 57 52 50 50 47 45 43 42 42 42 42 42 39 41 41 42 41 44 41 44 44 45 46 48 50
8 3 3 4 5 10 9 14 9 18 26 28 31 31 42 36 38 41 37 38 53 53 49 48 47 45 43 41 40 39 39 39 38 38 38 38 38 42 42 42 42 45 46 48 51
8 7 5 7 5 8 9 8 13 18 28 31 33 35 32 43 39 28 30 33 36 52 50 44 45 44 42 41 40 37 36 36 37 33 35 36 34 37 40 42 42 44 47 49 51
23 12 4 7 7 9 9 12 22 23 24 29 34 33 32 38 38 34 29 29 29 36 48 46 41 39 37 36 35 34 33 33 34 32 32 33 33 33 38 40 40 40 44 46 49
26 26 21 16 12 10 16 30 31 29 33 30 35 34 34 35 33 36 34 29 27 29 32 38 41 42 43 42 40 37 36 37 38 37 35 36 36 34 34 36 38 40 44 48 50
32 27 23 19 15 23 33 29 32 37 35 25 35 33 31 31 26 31 37 31 31 29 24 25 27 29 30 31 31 31 30 27 27 26 26 24 25 28 32 35 40 44 46 35 35
48 41 36 32 30 30 33 29 34 42 37 34 32 30 27 23 19 22 27 36 35 26 22 23 24 24 25 24 22 20 21 19 18 19 20 22 25 30 32 37 36 33 30 33 38
48 44 41 40 37 36 36 34 37 38 42 34 32 29 26 24 26 25 27 26 25 23 20 18 19 20 19 18 16 15 15 15 16 15 18 23 28 26 23 26 26 31 36 32 24
37 42 42 43 42 40 41 39 37 39 37 31 30 27 26 25 27 25 24 21 18 17 18 19 18 18 17 16 14 13 12 12 14 18 21 20 18 16 20 24 27 26 25 24 19
49 36 36 38 37 36 37 37 37 41 33 25 21 22 21 22 19 21 19 17 15 15 15 15 14 14 12 10 10 11 12 11 14 12 13 13 15 18 17 22 25 23 21 21 17
45 46 40 33 35 33 31 31 32 32 32 28 26 24 20 17 18 20 18 18 17 16 13 13 12 11 11 10 9 8 10 10 11 10 8 11 13 14 17 20 20 18 17 13 10
40 43 41 39 41 38 36 29 31 29 27 27 28 24 25 25 22 22 21 19 18 17 15 13 11 8 6 6 7 8 8 6 4 6 8 9 10 11 14 11 18 18 19 13 10
38 38 40 39 38 40 39 40 36 33 32 30 29 28 25 25 23 21 20 19 17 16 14 11 9 8 7 7 7 5 3 2 4 3 2 3 6 7 8 10 12 12 11 11 10
39 38 38 37 35 34 35 36 35 33 29 28 29 28 26 25 22 20 18 17 16 14 13 13 13 10 9 7 5 2 2 1 2 1 1 2 3 6 8 12 11 11 12 14 12
37 38 40 38 35 35 34 34 32 32 30 28 26 23 22 21 21 21 19 18 16 15 13 12 12 12 10 9 7 4 2 1 2 2 2 4 9 12 16 15 16 18 18 16 16
36 37 37 36 32 34 34 33 32 30 29 28 27 26 24 22 20 19 18 17 17 17 17 16 14 11 8 4 2 4 5 5 7 7 9 10 9 12 12 10 12 13 14 14 14
32 33 35 34 34 33 33 32 31 31 30 28 27 26 25 23 22 22 22 21 20 17 14 10 7 5 4 5 5 6 6 6 6 7 9 8 8 10 12 14 15 15 16 16 17
27 26 28 28 30 29 29 29 29 29 28 28 26 24 23 21 19 18 16 14 13 11 9 8 8 7 7 8 8 8 8 8 8 8 9 11 13 15 15 16 18 19 19 20 20
27 26 27 25 24 22 23 23 23 22 21 20 18 17 16 14 13 11 10 10 9 8 9 11 11 10 10 10 10 10 12 11 11 11 11 11 14 14 16 16 17 19 19 19 19
19 23 24 24 25 25 25 23 21 19 17 16 14 13 12 12 11 12 12 13 14 13 11 11 12 12 11 11 12 10 13 13 13 14 14 15 16 17 19 19 20 21 23 23 23

GFSSW_500_spd_111.txt.gz
Wind_Speed
23 29 38 35 36 25 35 37 44 49 50 53 57 60 60 65 64 62 57 53 49 44 41 36 34 32 30 28 26 26 27 29 32 32 30 34 34 34 35 33 31 30 31 23 20
17 19 28 30 30 32 25 30 35 39 45 48 52 57 60 62 62 61 58 55 51 47 43 40 37 34 32 29 27 26 23 21 19 18 22 25 23 23 23 21 19 19 19 21 20
8 10 17 29 41 34 25 19 22 37 38 43 44 53 52 46 61 60 60 58 54 49 45 42 39 36 33 30 29 27 23 20 20 21 22 21 22 22 22 21 21 21 22 23 24
3 4 9 18 35 42 38 29 25 26 39 40 41 43 55 57 56 58 59 58 56 51 47 44 41 39 36 33 31 30 28 27 27 25 24 24 23 24 24 25 25 26 26 27 28
2 4 6 9 19 31 34 35 30 27 35 39 40 41 47 52 51 54 57 58 56 54 51 47 44 41 38 37 35 33 31 30 30 29 29 28 28 28 28 29 29 30 31 32 34
3 5 5 12 14 18 24 30 30 26 32 37 38 38 36 50 43 32 53 59 57 55 53 50 47 43 40 38 36 35 34 33 33 33 32 32 33 32 31 33 35 36 37 37 38
2 2 6 9 3 11 17 23 26 24 25 35 37 36 37 46 50 38 38 57 59 54 52 50 46 43 40 39 38 37 36 35 35 34 34 35 35 35 36 35 37 39 39 41 42
5 3 7 13 11 9 26 28 29 26 23 29 37 34 35 46 56 42 42 47 57 54 51 49 47 45 42 40 39 38 38 36 35 35 35 36 36 37 38 39 41 42 43 44 44
3 3 3 10 10 14 19 24 26 21 21 25 33 33 38 40 47 53 31 46 53 55 51 50 49 46 43 42 40 39 38 37 36 37 37 38 39 40 38 39 39 40 42 44 45
8 7 5 5 8 12 15 13 13 16 19 26 27 32 38 38 40 45 51 42 45 53 52 48 47 46 44 42 40 38 37 38 38 36 36 37 35 38 38 37 37 38 40 41 41
26 11 9 10 10 10 14 12 17 18 22 28 31 29 40 33 33 32 35 34 36 47 51 50 45 43 42 40 39 39 38 38 38 34 36 37 32 33 38 39 41 39 37 37 39
32 25 19 10 10 10 14 20 19 20 25 28 27 32 36 39 27 29 28 28 31 37 48 49 45 40 40 39 38 37 37 37 36 35 35 34 33 36 37 36 34 33 33 37 41
39 33 28 22 21 19 25 26 25 27 26 29 28 35 37 34 31 27 34 30 25 28 35 43 43 44 42 39 39 39 38 36 39 40 37 32 29 27 26 26 29 31 37 42 46
47 35 34 35 33 25 31 39 31 25 32 33 29 26 36 36 27 33 29 27 22 24 26 29 32 38 39 40 39 37 36 33 29 28 27 23 20 20 23 26 32 35 36 35 35
48 42 35 33 29 29 39 35 33 31 39 32 29 30 31 26 25 33 31 25 26 27 22 19 22 25 26 27 27 27 25 23 21 19 17 17 17 19 22 25 24 27 29 29 28
40 39 37 38 34 35 36 35 34 37 36 31 28 30 22 22 24 26 26 28 26 23 16 22 23 23 23 21 19 19 18 16 14 13 14 15 18 15 16 19 21 25 27 27 24
41 38 36 32 34 35 34 32 31 33 29 26 27 24 22 23 28 28 26 24 23 23 23 22 21 20 18 17 16 13 12 11 11 12 13 10 9 12 12 15 20 20 17 17 14
44 46 36 34 37 35 28 21 18 26 28 26 25 24 21 19 22 21 18 18 20 19 16 16 16 15 15 15 13 11 9 9 10 9 6 8 7 8 8 10 8 10 15 15 11
41 45 43 37 32 29 27 25 30 30 29 26 23 22 21 21 19 18 21 21 22 23 21 20 18 16 14 12 10 7 6 5 3 3 5 4 3 5 5 4 6 11 11 11 12
41 39 40 40 37 37 37 39 37 32 30 29 29 30 28 27 25 24 23 22 22 21 20 17 14 10 8 7 6 6 6 5 4 4 3 3 2 3 2 5 7 9 12 13 11
40 42 43 41 37 35 33 34 35 35 32 34 32 32 29 26 26 23 23 22 20 18 16 14 14 12 10 8 8 5 5 4 4 4 5 4 4 6 9 12 13 14 15 13 12
38 39 39 39 37 34 36 37 37 36 33 30 30 29 28 26 25 23 22 20 19 18 16 13 11 11 11 10 8 5 3 3 4 6 6 6 9 12 14 12 10 11 11 11 12
37 39 39 38 35 35 36 35 34 34 33 31 31 29 27 26 24 23 21 20 19 19 19 18 15 11 7 3 1 2 4 6 8 9 9 9 9 6 7 9 11 12 14 16 17
29 30 33 34 34 34 35 35 35 34 33 31 31 30 29 29 28 27 26 23 20 17 14 10 7 4 2 2 2 2 2 2 2 2 2 4 6 9 10 12 13 13 14 14 15
27 28 27 26 27 26 27 28 27 27 27 26 25 25 24 22 21 19 17 15 13 10 8 7 7 9 10 11 10 10 9 9 8 6 6 6 7 9 12 14 14 15 16 17 17
21 22 25 26 27 26 23 22 21 19 18 17 16 15 14 13 12 13 13 14 13 14 14 12 12 11 10 10 9 8 8 7 7 7 8 9 12 12 14 16 19 21 22 24 24
16 17 18 19 21 22 22 21 22 22 21 20 20 19 18 18 17 16 15 15 14 14 13 12 11 10 9 8 7 6 7 8 9 11 12 14 16 19 19 19 21 24 24 24 24

GFSSW_500_spd_114.txt.gz
Wind_Speed
28 20 18 20 36 26 26 37 37 34 46 55 60 56 66 67 63 61 60 57 54 50 45 43 43 43 44 43 41 41 40 39 38 37 37 35 37 40 37 38 39 38 35 35 37
11 11 11 15 34 32 18 19 20 29 38 49 54 61 61 48 59 60 59 58 55 52 46 43 40 38 37 35 34 34 32 30 27 29 30 32 36 36 35 33 32 31 30 26 24
6 2 7 11 29 33 23 23 27 27 30 43 50 51 53 55 35 60 60 58 56 53 47 43 40 38 35 33 31 28 28 24 23 22 24 26 27 25 25 23 21 20 20 20 20
3 0 2 6 18 26 35 17 25 22 29 36 45 50 54 54 36 45 61 58 55 52 50 45 43 40 37 33 31 30 28 25 24 23 22 21 20 21 21 21 21 21 21 23 23
5 3 2 2 9 26 36 33 24 14 26 31 39 45 52 64 41 42 49 56 55 54 52 49 46 41 39 36 34 33 31 28 26 25 24 23 23 23 24 24 25 25 26 27 27
3 3 5 5 12 20 23 24 25 20 20 30 31 32 48 63 48 31 51 52 55 54 52 50 46 43 40 38 37 35 33 30 29 28 27 27 27 28 28 28 29 29 29 30 32
3 6 9 15 6 12 17 17 26 26 23 27 30 32 42 56 52 45 45 55 53 52 50 48 45 42 40 37 37 37 35 33 32 31 31 32 31 30 31 32 33 33 34 35 36
4 5 12 18 8 6 14 16 22 27 24 28 33 34 34 51 51 34 34 43 53 53 52 49 47 44 42 39 38 37 35 34 34 33 33 34 33 33 34 35 37 38 38 39 41
15 13 10 16 18 15 21 24 19 25 27 29 35 33 35 34 41 38 31 45 52 52 53 51 48 45 44 42 40 38 36 34 34 33 33 34 35 36 36 38 39 40 40 41 43
15 11 10 14 17 19 22 25 25 23 23 26 36 37 39 38 49 40 29 33 49 53 53 51 48 45 44 43 40 38 37 36 35 34 34 35 36 36 39 37 38 39 39 39 41
17 15 17 14 13 15 16 13 12 15 20 22 32 33 37 42 60 33 31 33 39 49 50 49 47 45 43 42 41 40 39 38 37 36 35 36 34 39 38 37 37 37 38 41 42
32 15 11 12 11 8 16 16 21 27 34 22 28 28 29 36 41 52 31 33 37 45 48 48 44 44 42 40 40 39 39 38 37 37 37 36 33 36 37 37 39 39 37 36 34
44 34 22 16 17 21 22 23 25 34 26 20 31 30 25 22 22 33 38 31 29 36 43 46 45 40 40 40 39 38 37 37 37 37 36 35 34 37 40 38 34 33 33 33 36
48 37 36 35 35 32 29 26 27 31 27 30 30 28 27 27 26 28 25 32 34 31 38 41 44 44 41 40 40 38 38 37 36 37 38 38 34 30 31 30 29 30 32 34 34
48 42 41 38 36 32 31 33 32 30 30 25 22 33 28 24 30 30 29 22 27 31 33 35 36 38 41 41 40 39 38 38 36 33 31 29 27 19 24 25 27 28 27 25 28
42 41 42 43 40 34 34 31 27 26 26 26 31 26 19 30 28 30 24 22 22 25 28 29 29 30 31 31 30 29 29 28 27 25 23 21 21 18 21 21 19 18 19 17 14
40 38 34 35 38 35 31 27 25 28 28 28 27 21 21 28 30 28 25 25 28 26 23 25 24 25 24 24 24 24 23 20 18 18 17 18 19 15 13 12 12 9 8 9 8
45 38 34 31 28 25 25 29 26 26 25 22 21 22 23 24 27 22 20 23 21 15 20 21 19 21 21 20 19 19 17 17 16 14 14 10 9 11 10 10 10 5 7 7 8
41 41 40 37 32 32 29 26 30 30 29 25 23 24 26 25 22 23 22 22 20 19 18 18 18 18 18 17 16 14 11 11 8 6 6 6 7 8 9 7 5 9 11 10 11
45 45 41 37 36 35 33 37 35 32 32 29 27 26 24 24 24 24 22 21 20 20 19 17 17 16 15 13 10 8 8 8 8 9 8 9 8 5 5 6 8 11 13 16 18
43 42 43 42 41 37 33 36 36 34 32 33 33 34 32 31 29 28 27 26 25 24 22 19 16 13 11 11 13 11 10 9 8 9 9 7 5 7 9 13 15 14 13 11 9
40 40 42 41 39 37 37 37 37 36 35 34 33 31 29 27 27 25 24 23 23 22 21 20 18 16 15 12 10 9 8 8 7 7 5 6 7 10 11 8 6 9 11 11 11
32 34 36 37 36 36 37 37 35 35 34 33 32 32 31 29 29 27 26 24 22 21 21 20 17 14 11 8 6 4 4 5 5 6 7 7 6 3 6 7 8 9 11 12 13
26 26 27 28 29 30 31 32 31 32 32 31 32 31 30 30 30 28 26 24 21 18 15 12 9 7 5 5 3 2 2 2 1 2 1 1 4 6 8 9 10 12 13 15 17
24 24 25 23 23 22 22 23 23 24 24 24 24 23 22 21 20 18 16 14 12 10 9 10 11 11 11 12 11 9 7 5 4 4 5 7 9 10 12 14 15 16 17 20 21
22 21 21 21 21 22 23 23 23 22 21 19 16 14 14 14 14 13 12 14 16 14 13 12 12 11 10 8 7 6 5 5 6 7 8 9 11 10 13 14 16 19 18 18 19
17 18 17 17 18 18 18 19 20 19 19 19 18 17 16 16 15 14 14 13 13 12 11 11 9 7 7 6 6 5 6 6 6 8 9 11 13 15 18 17 18 17 17 16 14

GFSSW_500_spd_117.txt.gz
Wind_Speed
25 21 14 11 18 24 33 29 35 44 38 51 56 63 49 54 69 68 66 63 60 56 52 50 51 50 48 48 48 49 48 47 46 43 41 38 35 33 35 36 36 35 36 37 37
13 9 7 9 11 19 27 28 25 28 37 40 65 54 42 39 58 68 65 63 59 56 53 49 47 47 49 48 46 45 43 40 39 38 38 37 37 37 37 36 37 38 37 37 38
7 4 3 10 8 15 25 18 26 26 30 33 55 64 54 40 45 55 68 61 58 55 52 48 45 44 44 46 46 44 44 42 41 40 40 38 38 36 35 35 34 34 31 29 29
4 6 6 7 3 11 29 12 20 21 22 29 52 70 57 34 36 42 59 58 57 54 51 49 45 40 38 39 39 39 40 39 36 36 35 32 32 32 30 28 27 24 22 19 19
5 9 9 8 2 11 18 25 16 20 23 23 42 66 78 42 36 30 46 59 56 54 51 48 46 41 38 37 37 35 35 34 31 29 29 29 26 24 22 21 19 19 20 21 22
8 9 9 9 10 9 15 24 25 8 20 23 36 56 72 60 34 30 37 56 59 54 51 48 46 43 40 39 37 35 34 32 30 28 27 25 23 22 21 21 20 21 23 25 26
11 12 15 14 9 13 17 16 25 14 16 22 26 43 61 53 44 36 39 45 57 53 51 48 46 44 40 37 36 35 34 33 31 29 27 25 24 24 25 25 25 25 27 29 31
13 12 18 16 7 5 15 15 14 14 17 21 23 36 53 59 48 32 32 50 57 54 52 48 46 45 41 38 37 37 35 33 32 31 29 28 28 28 28 28 30 30 31 32 35
15 14 20 20 17 9 16 13 15 15 17 21 26 35 46 68 46 36 34 39 53 55 51 49 47 45 43 40 38 37 34 33 32 31 31 32 30 31 31 32 33 33 34 36 39
19 19 18 20 18 14 23 21 20 21 21 24 27 29 43 52 47 26 27 41 45 52 52 50 47 44 43 41 38 35 33 33 33 32 32 32 32 32 34 34 36 37 38 39 41
21 22 21 20 21 19 16 18 24 24 18 21 29 27 28 45 52 21 30 32 39 47 49 48 46 44 42 40 38 36 35 34 33 32 32 32 32 34 34 35 38 39 40 41 42
33 27 24 25 24 17 12 13 15 19 23 23 26 28 28 40 45 34 28 35 39 43 48 47 45 43 41 40 39 37 34 34 34 34 34 34 33 36 37 38 38 39 39 41 42
44 41 38 36 32 28 30 38 31 20 21 23 27 26 29 43 42 34 24 30 33 42 47 44 42 41 40 38 37 37 36 35 35 35 35 35 34 35 36 37 39 41 42 37 36
49 44 40 38 35 35 35 32 28 26 34 28 23 23 24 29 35 27 24 28 33 42 44 44 41 40 39 37 37 36 36 36 36 35 35 35 36 34 36 41 41 37 35 32 32
43 43 40 38 38 34 32 32 30 28 27 28 26 21 18 14 34 31 30 23 24 29 40 40 42 41 39 37 36 36 36 36 35 36 37 36 37 33 33 32 31 30 29 30 31
36 36 35 33 31 30 28 26 23 21 24 26 24 22 28 27 23 29 21 25 21 22 27 36 38 40 42 41 39 38 38 37 37 37 35 34 33 26 26 25 25 27 27 21 16
38 37 30 27 26 25 29 27 25 30 29 25 22 26 28 28 29 26 19 25 27 25 27 31 34 37 37 37 37 36 35 33 31 29 27 25 24 21 22 23 23 17 13 11 10
44 39 35 31 26 26 24 26 23 23 19 17 20 19 23 26 25 27 21 23 25 25 25 29 27 28 29 28 26 26 25 24 22 20 19 21 21 19 19 16 14 12 11 12 14
44 43 44 40 32 30 25 21 25 27 25 22 22 20 21 23 22 23 25 25 19 20 23 23 21 23 21 21 19 17 16 18 18 18 19 18 14 11 11 12 11 11 12 12 14
45 44 40 39 39 36 32 29 26 25 25 26 26 25 21 19 16 17 20 14 13 16 18 18 16 17 17 17 15 13 15 12 14 12 12 10 10 9 10 9 8 10 13 16 19
42 42 42 42 39 37 33 35 36 35 33 31 27 26 25 24 22 20 19 19 20 20 19 18 18 15 14 12 13 12 13 11 9 10 10 10 10 10 9 10 12 12 12 11 11
34 36 39 40 38 35 35 36 36 34 32 30 31 32 33 31 29 26 25 25 26 25 23 21 20 18 16 15 15 13 12 10 9 8 9 9 9 9 10 7 6 8 9 11 13
28 29 31 32 33 33 34 33 33 32 32 32 31 31 30 28 27 26 25 23 22 20 20 20 20 18 15 12 10 10 8 7 7 6 7 6 6 3 5 6 8 10 12 14 16
29 28 27 24 24 25 27 29 29 30 30 30 30 29 28 27 27 26 25 23 22 20 18 17 14 13 11 9 8 7 6 4 3 3 3 2 2 3 6 8 10 12 14 16 19
26 27 26 25 24 22 21 20 20 20 21 21 21 21 21 20 19 18 16 14 12 11 9 9 9 9 8 9 9 9 8 5 3 2 1 3 6 7 9 10 14 15 16 18 20
19 21 24 24 24 23 21 21 20 20 18 17 14 13 12 11 10 9 10 12 14 13 13 13 12 11 10 10 9 7 5 3 2 2 4 3 9 8 14 15 17 17 18 18 18
11 14 16 19 20 21 20 19 18 18 17 17 16 15 14 13 13 12 12 11 11 11 10 10 9 8 7 6 5 4 2 1 3 6 7 10 13 14 17 17 19 20 18 21 23